Time,TemperatureF,DewpointF,PressureIn,WindDirection,WindDirectionDegrees,WindSpeedMPH,WindSpeedGustMPH,Humidity,HourlyPrecipIn,Conditions,Clouds,dailyrainin,SoftwareType,DateUTC
2013-06-20 00:00:00,67.8,56.5,30.16,ESE,112,4.4,4.4,67,0.00,,,0.00,VWS V14.01,2013-06-20 05:00:00,
2013-06-20 00:01:00,67.8,56.5,30.16,ESE,112,4.4,4.4,67,0.00,,,0.00,VWS V14.01,2013-06-20 05:01:00,
2013-06-20 00:02:00,67.8,56.5,30.16,ESE,112,3.3,3.3,67,0.00,,,0.00,VWS V14.01,2013-06-20 05:02:00,
2013-06-20 00:03:00,67.6,56.7,30.16,ESE,112,4.2,4.2,68,0.00,,,0.00,VWS V14.01,2013-06-20 05:03:00,
2013-06-20 00:04:00,67.6,56.7,30.16,ESE,112,4.2,4.2,68,0.00,,,0.00,VWS V14.01,2013-06-20 05:04:00,
2013-06-20 00:05:00,67.2,56.3,30.16,ESE,112,4.2,4.2,68,0.00,,,0.00,VWS V14.01,2013-06-20 05:05:00,
2013-06-20 00:06:00,67.2,56.3,30.16,ESE,112,4.2,4.2,68,0.00,,,0.00,VWS V14.01,2013-06-20 05:06:00,
2013-06-20 00:07:00,67.2,56.7,30.16,ESE,112,4.6,4.6,69,0.00,,,0.00,VWS V14.01,2013-06-20 05:07:00,
2013-06-20 00:08:00,67.2,56.7,30.16,ESE,112,4.6,4.6,69,0.00,,,0.00,VWS V14.01,2013-06-20 05:08:00,
2013-06-20 00:09:00,67.1,56.6,30.16,ESE,112,4.6,4.6,69,0.00,,,0.00,VWS V14.01,2013-06-20 05:09:00,
2013-06-20 00:10:00,67.1,56.6,30.16,ESE,112,4.6,4.6,69,0.00,,,0.00,VWS V14.01,2013-06-20 05:10:00,
2013-06-20 00:11:00,67.1,56.6,30.16,ESE,112,4.6,4.6,69,0.00,,,0.00,VWS V14.01,2013-06-20 05:11:00,
2013-06-20 00:12:00,67.1,56.6,30.16,ESE,112,3.1,3.1,69,0.00,,,0.00,VWS V14.01,2013-06-20 05:12:00,
2013-06-20 00:13:00,67.1,56.6,30.16,ESE,112,3.1,3.1,69,0.00,,,0.00,VWS V14.01,2013-06-20 05:13:00,
2013-06-20 00:14:00,67.1,57.0,30.16,SE,135,2.4,3.1,70,0.00,,,0.00,VWS V14.01,2013-06-20 05:14:00,
2013-06-20 00:15:00,67.1,57.0,30.16,SE,135,2.4,2.4,70,0.00,,,0.00,VWS V14.01,2013-06-20 05:15:00,
2013-06-20 00:16:00,67.1,57.0,30.16,SE,135,2.4,2.4,70,0.00,,,0.00,VWS V14.01,2013-06-20 05:16:00,
2013-06-20 00:17:00,66.9,56.8,30.16,SE,135,2.2,2.2,70,0.00,,,0.00,VWS V14.01,2013-06-20 05:17:00,
2013-06-20 00:18:00,66.9,56.8,30.15,SE,135,6.0,6.0,70,0.00,,,0.00,VWS V14.01,2013-06-20 05:18:00,
2013-06-20 00:19:00,66.9,56.8,30.15,SE,135,6.0,6.0,70,0.00,,,0.00,VWS V14.01,2013-06-20 05:19:00,
2013-06-20 00:20:00,66.9,56.8,30.15,SE,135,0.0,6.0,70,0.00,,,0.00,VWS V14.01,2013-06-20 05:20:00,
2013-06-20 00:21:00,66.9,56.8,30.15,SE,135,0.0,6.0,70,0.00,,,0.00,VWS V14.01,2013-06-20 05:21:00,
2013-06-20 00:22:00,66.9,57.2,30.15,SE,135,3.1,3.1,71,0.00,,,0.00,VWS V14.01,2013-06-20 05:22:00,
2013-06-20 00:23:00,66.9,57.2,30.15,SE,135,3.1,3.1,71,0.00,,,0.00,VWS V14.01,2013-06-20 05:23:00,
2013-06-20 00:24:00,66.9,57.2,30.16,SE,135,3.5,3.5,71,0.00,,,0.00,VWS V14.01,2013-06-20 05:24:00,
2013-06-20 00:25:00,66.9,57.2,30.16,SE,135,3.5,3.5,71,0.00,,,0.00,VWS V14.01,2013-06-20 05:25:00,
2013-06-20 00:26:00,66.9,57.2,30.16,SE,135,3.5,3.5,71,0.00,,,0.00,VWS V14.01,2013-06-20 05:26:00,
2013-06-20 00:27:00,66.7,57.0,30.16,ESE,112,1.1,1.1,71,0.00,,,0.00,VWS V14.01,2013-06-20 05:27:00,
2013-06-20 00:28:00,66.7,57.0,30.16,ESE,112,1.1,1.1,71,0.00,,,0.00,VWS V14.01,2013-06-20 05:28:00,
2013-06-20 00:29:00,66.7,57.0,30.16,ESE,112,3.1,3.1,71,0.00,,,0.00,VWS V14.01,2013-06-20 05:29:00,
2013-06-20 00:30:00,66.7,57.0,30.16,ESE,112,3.1,3.1,71,0.00,,,0.00,VWS V14.01,2013-06-20 05:30:00,
2013-06-20 00:31:00,66.7,57.0,30.16,ESE,112,3.1,3.1,71,0.00,,,0.00,VWS V14.01,2013-06-20 05:31:00,
2013-06-20 00:32:00,66.7,57.0,30.17,ESE,112,3.3,3.3,71,0.00,,,0.00,VWS V14.01,2013-06-20 05:32:00,
2013-06-20 00:33:00,66.9,57.6,30.17,ESE,112,2.4,3.3,72,0.00,,,0.00,VWS V14.01,2013-06-20 05:33:00,
2013-06-20 00:34:00,66.9,57.6,30.16,ESE,112,2.4,2.4,72,0.00,,,0.00,VWS V14.01,2013-06-20 05:34:00,
2013-06-20 00:35:00,66.9,57.6,30.16,ESE,112,6.7,6.7,72,0.00,,,0.00,VWS V14.01,2013-06-20 05:35:00,
2013-06-20 00:36:00,66.9,57.6,30.16,ESE,112,6.7,6.7,72,0.00,,,0.00,VWS V14.01,2013-06-20 05:36:00,
2013-06-20 00:37:00,67.1,57.8,30.17,ESE,112,6.0,6.7,72,0.00,,,0.00,VWS V14.01,2013-06-20 05:37:00,
2013-06-20 00:38:00,67.1,57.8,30.17,ESE,112,6.0,6.0,72,0.00,,,0.00,VWS V14.01,2013-06-20 05:38:00,
2013-06-20 00:39:00,67.2,57.5,30.16,ESE,112,6.7,6.7,71,0.00,,,0.00,VWS V14.01,2013-06-20 05:39:00,
2013-06-20 00:40:00,67.2,57.5,30.16,ESE,112,6.7,6.7,71,0.00,,,0.00,VWS V14.01,2013-06-20 05:40:00,
2013-06-20 00:41:00,67.2,57.5,30.16,ESE,112,6.7,6.7,71,0.00,,,0.00,VWS V14.01,2013-06-20 05:41:00,
2013-06-20 00:42:00,67.2,57.5,30.17,ESE,112,4.6,4.6,71,0.00,,,0.00,VWS V14.01,2013-06-20 05:42:00,
2013-06-20 00:43:00,67.2,57.5,30.17,ESE,112,4.6,4.6,71,0.00,,,0.00,VWS V14.01,2013-06-20 05:43:00,
2013-06-20 00:44:00,67.2,57.5,30.17,ESE,112,1.7,4.6,71,0.00,,,0.00,VWS V14.01,2013-06-20 05:44:00,
2013-06-20 00:45:00,67.2,57.5,30.17,ESE,112,1.7,1.7,71,0.00,,,0.00,VWS V14.01,2013-06-20 05:45:00,
2013-06-20 00:46:00,67.2,57.5,30.17,ESE,112,1.7,1.7,71,0.00,,,0.00,VWS V14.01,2013-06-20 05:46:00,
2013-06-20 00:47:00,67.2,57.5,30.18,SE,135,3.8,3.8,71,0.00,,,0.00,VWS V14.01,2013-06-20 05:47:00,
2013-06-20 00:48:00,67.2,57.5,30.17,ESE,112,2.4,3.8,71,0.00,,,0.00,VWS V14.01,2013-06-20 05:48:00,
2013-06-20 00:49:00,67.2,57.5,30.17,ESE,112,2.4,2.4,71,0.00,,,0.00,VWS V14.01,2013-06-20 05:49:00,
2013-06-20 00:50:00,67.1,57.4,30.18,SE,135,0.0,2.4,71,0.00,,,0.00,VWS V14.01,2013-06-20 05:50:00,
2013-06-20 00:51:00,67.2,57.5,30.17,ESE,112,2.4,2.4,71,0.00,,,0.00,VWS V14.01,2013-06-20 05:51:00,
2013-06-20 00:52:00,67.1,57.4,30.17,ESE,112,0.0,0.0,71,0.00,,,0.00,VWS V14.01,2013-06-20 05:52:00,
2013-06-20 00:53:00,67.1,57.4,30.18,ESE,112,0.0,0.0,71,0.00,,,0.00,VWS V14.01,2013-06-20 05:53:00,
2013-06-20 00:54:00,66.9,57.6,30.17,SE,135,0.0,0.0,72,0.00,,,0.00,VWS V14.01,2013-06-20 05:54:00,
2013-06-20 00:55:00,66.9,57.6,30.17,SE,135,0.0,0.0,72,0.00,,,0.00,VWS V14.01,2013-06-20 05:55:00,
2013-06-20 00:56:00,66.9,57.6,30.17,SE,135,0.0,0.0,72,0.00,,,0.00,VWS V14.01,2013-06-20 05:56:00,
2013-06-20 00:57:00,66.7,57.4,30.18,SE,135,0.0,0.0,72,0.00,,,0.00,VWS V14.01,2013-06-20 05:57:00,
2013-06-20 00:58:00,66.7,57.4,30.17,SE,135,0.0,0.0,72,0.00,,,0.00,VWS V14.01,2013-06-20 05:58:00,
2013-06-20 00:59:00,66.7,57.4,30.17,SE,135,0.0,0.0,72,0.00,,,0.00,VWS V14.01,2013-06-20 05:59:00,
2013-06-20 01:00:00,66.7,57.4,30.17,SE,135,0.0,0.0,72,0.00,,,0.00,VWS V14.01,2013-06-20 06:00:00,
2013-06-20 01:01:00,66.7,57.4,30.17,SE,135,0.0,0.0,72,0.00,,,0.00,VWS V14.01,2013-06-20 06:01:00,
2013-06-20 01:02:00,66.3,57.0,30.17,ESE,112,0.0,0.0,72,0.00,,,0.00,VWS V14.01,2013-06-20 06:02:00,
2013-06-20 01:03:00,66.3,57.0,30.17,ESE,112,0.0,0.0,72,0.00,,,0.00,VWS V14.01,2013-06-20 06:03:00,
2013-06-20 01:04:00,66.3,57.0,30.17,ESE,112,0.0,0.0,72,0.00,,,0.00,VWS V14.01,2013-06-20 06:04:00,
2013-06-20 01:05:00,66.3,57.4,30.17,ESE,112,0.0,0.0,73,0.00,,,0.00,VWS V14.01,2013-06-20 06:05:00,
2013-06-20 01:06:00,66.3,57.0,30.17,ESE,112,0.0,0.0,72,0.00,,,0.00,VWS V14.01,2013-06-20 06:06:00,
2013-06-20 01:07:00,66.3,57.4,30.17,ESE,112,0.0,0.0,73,0.00,,,0.00,VWS V14.01,2013-06-20 06:07:00,
2013-06-20 01:08:00,66.3,57.4,30.17,ESE,112,0.0,0.0,73,0.00,,,0.00,VWS V14.01,2013-06-20 06:08:00,
2013-06-20 01:09:00,66.3,57.4,30.18,ESE,112,2.9,2.9,73,0.00,,,0.00,VWS V14.01,2013-06-20 06:09:00,
2013-06-20 01:10:00,66.3,57.4,30.18,ESE,112,2.9,2.9,73,0.00,,,0.00,VWS V14.01,2013-06-20 06:10:00,
2013-06-20 01:11:00,66.3,57.4,30.18,ESE,112,2.9,2.9,73,0.00,,,0.00,VWS V14.01,2013-06-20 06:11:00,
2013-06-20 01:12:00,66.3,57.4,30.18,ESE,112,0.0,0.0,73,0.00,,,0.00,VWS V14.01,2013-06-20 06:12:00,
2013-06-20 01:13:00,66.3,57.4,30.18,ESE,112,0.0,0.0,73,0.00,,,0.00,VWS V14.01,2013-06-20 06:13:00,
2013-06-20 01:14:00,66.3,57.4,30.18,ESE,112,0.0,0.0,73,0.00,,,0.00,VWS V14.01,2013-06-20 06:14:00,
2013-06-20 01:15:00,66.3,57.4,30.18,ESE,112,0.0,0.0,73,0.00,,,0.00,VWS V14.01,2013-06-20 06:15:00,
2013-06-20 01:16:00,66.3,57.4,30.18,ESE,112,0.0,0.0,73,0.00,,,0.00,VWS V14.01,2013-06-20 06:16:00,
2013-06-20 01:17:00,66.2,57.3,30.18,ESE,112,2.2,2.2,73,0.00,,,0.00,VWS V14.01,2013-06-20 06:17:00,
2013-06-20 01:18:00,66.0,57.1,30.17,ESE,112,0.8,2.2,73,0.00,,,0.00,VWS V14.01,2013-06-20 06:18:00,
2013-06-20 01:19:00,66.0,57.1,30.17,ESE,112,0.8,0.8,73,0.00,,,0.00,VWS V14.01,2013-06-20 06:19:00,
2013-06-20 01:20:00,66.0,57.1,30.18,ESE,112,0.0,0.8,73,0.00,,,0.00,VWS V14.01,2013-06-20 06:20:00,
2013-06-20 01:21:00,66.0,57.1,30.17,ESE,112,0.8,0.8,73,0.00,,,0.00,VWS V14.01,2013-06-20 06:21:00,
2013-06-20 01:22:00,65.8,56.9,30.18,ESE,112,0.0,0.0,73,0.00,,,0.00,VWS V14.01,2013-06-20 06:22:00,
2013-06-20 01:23:00,65.8,56.9,30.18,ESE,112,0.0,0.0,73,0.00,,,0.00,VWS V14.01,2013-06-20 06:23:00,
2013-06-20 01:24:00,65.8,57.3,30.18,ESE,112,0.0,0.0,74,0.00,,,0.00,VWS V14.01,2013-06-20 06:24:00,
2013-06-20 01:25:00,65.8,57.3,30.17,ESE,112,0.0,0.0,74,0.00,,,0.00,VWS V14.01,2013-06-20 06:25:00,
2013-06-20 01:26:00,65.8,57.3,30.18,ESE,112,0.0,0.0,74,0.00,,,0.00,VWS V14.01,2013-06-20 06:26:00,
2013-06-20 01:27:00,65.8,57.3,30.17,ESE,112,0.0,0.0,74,0.00,,,0.00,VWS V14.01,2013-06-20 06:27:00,
2013-06-20 01:28:00,65.8,57.3,30.18,ESE,112,0.0,0.0,74,0.00,,,0.00,VWS V14.01,2013-06-20 06:28:00,
2013-06-20 01:29:00,65.8,57.3,30.17,ESE,112,1.3,1.3,74,0.00,,,0.00,VWS V14.01,2013-06-20 06:29:00,
2013-06-20 01:30:00,65.8,57.3,30.17,ESE,112,1.3,1.3,74,0.00,,,0.00,VWS V14.01,2013-06-20 06:30:00,
2013-06-20 01:31:00,65.8,57.3,30.17,ESE,112,1.3,1.3,74,0.00,,,0.00,VWS V14.01,2013-06-20 06:31:00,
2013-06-20 01:32:00,65.8,57.3,30.18,ESE,112,0.4,0.4,74,0.00,,,0.00,VWS V14.01,2013-06-20 06:32:00,
2013-06-20 01:33:00,65.8,57.3,30.17,ESE,112,0.0,0.4,74,0.00,,,0.00,VWS V14.01,2013-06-20 06:33:00,
2013-06-20 01:34:00,65.8,57.3,30.17,ESE,112,0.0,0.0,74,0.00,,,0.00,VWS V14.01,2013-06-20 06:34:00,
2013-06-20 01:35:00,65.8,57.3,30.17,ESE,112,0.0,0.0,74,0.00,,,0.00,VWS V14.01,2013-06-20 06:35:00,
2013-06-20 01:36:00,65.8,57.3,30.17,ESE,112,0.0,0.0,74,0.00,,,0.00,VWS V14.01,2013-06-20 06:36:00,
2013-06-20 01:37:00,65.8,57.3,30.17,ESE,112,0.0,0.0,74,0.00,,,0.00,VWS V14.01,2013-06-20 06:37:00,
2013-06-20 01:38:00,65.8,57.3,30.17,ESE,112,0.0,0.0,74,0.00,,,0.00,VWS V14.01,2013-06-20 06:38:00,
2013-06-20 01:39:00,65.8,57.3,30.17,ESE,112,0.0,0.0,74,0.00,,,0.00,VWS V14.01,2013-06-20 06:39:00,
2013-06-20 01:40:00,65.8,57.3,30.17,ESE,112,0.0,0.0,74,0.00,,,0.00,VWS V14.01,2013-06-20 06:40:00,
2013-06-20 01:41:00,65.8,57.3,30.17,ESE,112,0.0,0.0,74,0.00,,,0.00,VWS V14.01,2013-06-20 06:41:00,
2013-06-20 01:42:00,65.6,57.1,30.17,ESE,112,1.7,1.7,74,0.00,,,0.00,VWS V14.01,2013-06-20 06:42:00,
2013-06-20 01:43:00,65.6,57.1,30.17,ESE,112,1.7,1.7,74,0.00,,,0.00,VWS V14.01,2013-06-20 06:43:00,
2013-06-20 01:44:00,65.6,57.1,30.17,ESE,112,5.8,5.8,74,0.00,,,0.00,VWS V14.01,2013-06-20 06:44:00,
2013-06-20 01:45:00,65.6,57.1,30.17,ESE,112,5.8,5.8,74,0.00,,,0.00,VWS V14.01,2013-06-20 06:45:00,
2013-06-20 01:46:00,65.6,57.1,30.17,ESE,112,5.8,5.8,74,0.00,,,0.00,VWS V14.01,2013-06-20 06:46:00,
2013-06-20 01:47:00,65.6,57.1,30.17,ESE,112,0.0,0.0,74,0.00,,,0.00,VWS V14.01,2013-06-20 06:47:00,
2013-06-20 01:48:00,65.6,57.1,30.17,ESE,112,0.0,0.0,74,0.00,,,0.00,VWS V14.01,2013-06-20 06:48:00,
2013-06-20 01:49:00,65.6,57.1,30.17,ESE,112,0.0,0.0,74,0.00,,,0.00,VWS V14.01,2013-06-20 06:49:00,
2013-06-20 01:50:00,65.6,57.1,30.17,ESE,112,0.0,0.0,74,0.00,,,0.00,VWS V14.01,2013-06-20 06:50:00,
2013-06-20 01:51:00,65.6,57.1,30.17,ESE,112,0.0,0.0,74,0.00,,,0.00,VWS V14.01,2013-06-20 06:51:00,
2013-06-20 01:52:00,65.4,56.9,30.18,ESE,112,0.4,0.4,74,0.00,,,0.00,VWS V14.01,2013-06-20 06:52:00,
2013-06-20 01:53:00,65.4,56.9,30.18,ESE,112,0.4,0.4,74,0.00,,,0.00,VWS V14.01,2013-06-20 06:53:00,
2013-06-20 01:54:00,65.4,56.9,30.18,ESE,112,0.0,0.4,74,0.00,,,0.00,VWS V14.01,2013-06-20 06:54:00,
2013-06-20 01:55:00,65.4,56.9,30.18,ESE,112,0.0,0.0,74,0.00,,,0.00,VWS V14.01,2013-06-20 06:55:00,
2013-06-20 01:56:00,65.4,56.9,30.18,ESE,112,0.0,0.0,74,0.00,,,0.00,VWS V14.01,2013-06-20 06:56:00,
2013-06-20 01:57:00,65.4,56.9,30.18,ESE,112,0.4,0.4,74,0.00,,,0.00,VWS V14.01,2013-06-20 06:57:00,
2013-06-20 01:58:00,65.4,56.9,30.18,ESE,112,0.4,0.4,74,0.00,,,0.00,VWS V14.01,2013-06-20 06:58:00,
2013-06-20 01:59:00,65.4,56.9,30.18,ESE,112,0.4,0.4,74,0.00,,,0.00,VWS V14.01,2013-06-20 06:59:00,
2013-06-20 02:00:00,65.4,56.9,30.18,ESE,112,0.4,0.4,74,0.00,,,0.00,VWS V14.01,2013-06-20 07:00:00,
2013-06-20 02:01:00,65.4,56.9,30.18,ESE,112,0.4,0.4,74,0.00,,,0.00,VWS V14.01,2013-06-20 07:01:00,
2013-06-20 02:02:00,65.3,56.8,30.18,ESE,112,0.0,0.0,74,0.00,,,0.00,VWS V14.01,2013-06-20 07:02:00,
2013-06-20 02:03:00,65.3,56.8,30.18,ESE,112,0.4,0.4,74,0.00,,,0.00,VWS V14.01,2013-06-20 07:03:00,
2013-06-20 02:04:00,65.3,56.8,30.18,ESE,112,0.4,0.4,74,0.00,,,0.00,VWS V14.01,2013-06-20 07:04:00,
2013-06-20 02:05:00,65.1,56.6,30.18,ESE,112,0.6,0.6,74,0.00,,,0.00,VWS V14.01,2013-06-20 07:05:00,
2013-06-20 02:06:00,65.3,56.8,30.18,ESE,112,0.4,0.4,74,0.00,,,0.00,VWS V14.01,2013-06-20 07:06:00,
2013-06-20 02:07:00,65.1,56.6,30.18,ESE,112,0.0,0.6,74,0.00,,,0.00,VWS V14.01,2013-06-20 07:07:00,
2013-06-20 02:08:00,65.1,56.6,30.18,ESE,112,0.0,0.0,74,0.00,,,0.00,VWS V14.01,2013-06-20 07:08:00,
2013-06-20 02:09:00,65.1,56.6,30.18,ESE,112,0.0,0.0,74,0.00,,,0.00,VWS V14.01,2013-06-20 07:09:00,
2013-06-20 02:10:00,65.1,56.6,30.18,ESE,112,0.0,0.0,74,0.00,,,0.00,VWS V14.01,2013-06-20 07:10:00,
2013-06-20 02:11:00,65.1,56.6,30.18,ESE,112,0.0,0.0,74,0.00,,,0.00,VWS V14.01,2013-06-20 07:11:00,
2013-06-20 02:12:00,64.9,56.4,30.18,ESE,112,0.0,0.0,74,0.00,,,0.00,VWS V14.01,2013-06-20 07:12:00,
2013-06-20 02:13:00,64.9,56.4,30.18,ESE,112,0.0,0.0,74,0.00,,,0.00,VWS V14.01,2013-06-20 07:13:00,
2013-06-20 02:14:00,64.9,56.4,30.18,ESE,112,0.0,0.0,74,0.00,,,0.00,VWS V14.01,2013-06-20 07:14:00,
2013-06-20 02:15:00,64.9,56.4,30.18,ESE,112,0.0,0.0,74,0.00,,,0.00,VWS V14.01,2013-06-20 07:15:00,
2013-06-20 02:16:00,64.9,56.4,30.18,ESE,112,0.0,0.0,74,0.00,,,0.00,VWS V14.01,2013-06-20 07:16:00,
2013-06-20 02:17:00,64.9,56.4,30.18,ESE,112,0.0,0.0,74,0.00,,,0.00,VWS V14.01,2013-06-20 07:17:00,
2013-06-20 02:18:00,64.9,56.4,30.17,SE,135,0.0,0.0,74,0.00,,,0.00,VWS V14.01,2013-06-20 07:18:00,
2013-06-20 02:19:00,64.9,56.4,30.18,SE,135,0.0,0.0,74,0.00,,,0.00,VWS V14.01,2013-06-20 07:19:00,
2013-06-20 02:20:00,64.9,56.4,30.17,SE,135,0.0,0.0,74,0.00,,,0.00,VWS V14.01,2013-06-20 07:20:00,
2013-06-20 02:21:00,64.9,56.4,30.18,SE,135,0.0,0.0,74,0.00,,,0.00,VWS V14.01,2013-06-20 07:21:00,
2013-06-20 02:22:00,64.7,56.2,30.17,SE,135,0.0,0.0,74,0.00,,,0.00,VWS V14.01,2013-06-20 07:22:00,
2013-06-20 02:23:00,64.7,56.2,30.18,SE,135,0.0,0.0,74,0.00,,,0.00,VWS V14.01,2013-06-20 07:23:00,
2013-06-20 02:24:00,64.7,56.6,30.18,SE,135,0.0,0.0,75,0.00,,,0.00,VWS V14.01,2013-06-20 07:24:00,
2013-06-20 02:25:00,64.7,56.6,30.17,SE,135,0.0,0.0,75,0.00,,,0.00,VWS V14.01,2013-06-20 07:25:00,
2013-06-20 02:26:00,64.7,56.6,30.18,SE,135,0.0,0.0,75,0.00,,,0.00,VWS V14.01,2013-06-20 07:26:00,
2013-06-20 02:27:00,64.5,56.4,30.18,SE,135,0.0,0.0,75,0.00,,,0.00,VWS V14.01,2013-06-20 07:27:00,
2013-06-20 02:28:00,64.5,56.4,30.18,SE,135,0.0,0.0,75,0.00,,,0.00,VWS V14.01,2013-06-20 07:28:00,
2013-06-20 02:29:00,64.5,56.4,30.18,SE,135,0.0,0.0,75,0.00,,,0.00,VWS V14.01,2013-06-20 07:29:00,
2013-06-20 02:30:00,64.5,56.4,30.18,SE,135,0.0,0.0,75,0.00,,,0.00,VWS V14.01,2013-06-20 07:30:00,
2013-06-20 02:31:00,64.5,56.4,30.18,SE,135,0.0,0.0,75,0.00,,,0.00,VWS V14.01,2013-06-20 07:31:00,
2013-06-20 02:32:00,64.5,56.4,30.17,SE,135,0.0,0.0,75,0.00,,,0.00,VWS V14.01,2013-06-20 07:32:00,
2013-06-20 02:33:00,64.5,56.4,30.17,SE,135,0.8,0.8,75,0.00,,,0.00,VWS V14.01,2013-06-20 07:33:00,
2013-06-20 02:34:00,64.5,56.4,30.18,SE,135,0.8,0.8,75,0.00,,,0.00,VWS V14.01,2013-06-20 07:34:00,
2013-06-20 02:35:00,64.9,56.8,30.18,SE,135,0.0,0.8,75,0.00,,,0.00,VWS V14.01,2013-06-20 07:35:00,
2013-06-20 02:36:00,64.5,56.4,30.18,SE,135,0.8,0.8,75,0.00,,,0.00,VWS V14.01,2013-06-20 07:36:00,
2013-06-20 02:37:00,64.9,56.8,30.18,SE,135,0.0,0.0,75,0.00,,,0.00,VWS V14.01,2013-06-20 07:37:00,
2013-06-20 02:38:00,64.9,56.8,30.18,SE,135,0.0,0.0,75,0.00,,,0.00,VWS V14.01,2013-06-20 07:38:00,
2013-06-20 02:39:00,64.7,56.6,30.18,SE,135,0.4,0.4,75,0.00,,,0.00,VWS V14.01,2013-06-20 07:39:00,
2013-06-20 02:40:00,64.7,56.6,30.18,SE,135,0.4,0.4,75,0.00,,,0.00,VWS V14.01,2013-06-20 07:40:00,
2013-06-20 02:41:00,64.7,56.6,30.18,SE,135,0.4,0.4,75,0.00,,,0.00,VWS V14.01,2013-06-20 07:41:00,
2013-06-20 02:42:00,64.7,56.6,30.18,SE,135,0.0,0.0,75,0.00,,,0.00,VWS V14.01,2013-06-20 07:42:00,
2013-06-20 02:43:00,64.7,56.6,30.18,SE,135,0.0,0.0,75,0.00,,,0.00,VWS V14.01,2013-06-20 07:43:00,
2013-06-20 02:44:00,64.5,56.4,30.18,SE,135,0.0,0.0,75,0.00,,,0.00,VWS V14.01,2013-06-20 07:44:00,
2013-06-20 02:45:00,64.5,56.4,30.18,SE,135,0.0,0.0,75,0.00,,,0.00,VWS V14.01,2013-06-20 07:45:00,
2013-06-20 02:46:00,64.5,56.4,30.18,SE,135,0.0,0.0,75,0.00,,,0.00,VWS V14.01,2013-06-20 07:46:00,
2013-06-20 02:47:00,64.5,56.4,30.18,SE,135,0.0,0.0,75,0.00,,,0.00,VWS V14.01,2013-06-20 07:47:00,
2013-06-20 02:48:00,64.5,56.4,30.18,SE,135,0.2,0.2,75,0.00,,,0.00,VWS V14.01,2013-06-20 07:48:00,
2013-06-20 02:49:00,64.5,56.4,30.18,SE,135,0.2,0.2,75,0.00,,,0.00,VWS V14.01,2013-06-20 07:49:00,
2013-06-20 02:50:00,64.9,56.8,30.18,SSE,158,0.0,0.2,75,0.00,,,0.00,VWS V14.01,2013-06-20 07:50:00,
2013-06-20 02:51:00,64.5,56.4,30.18,SE,135,0.2,0.2,75,0.00,,,99.99,VWS V14.01,2013-06-20 07:51:00,
2013-06-20 02:52:00,65.1,56.6,30.18,SE,135,0.0,0.0,74,0.00,,,0.00,VWS V14.01,2013-06-20 07:52:00,
2013-06-20 02:53:00,65.1,56.6,30.18,SE,135,0.0,0.0,74,0.00,,,0.00,VWS V14.01,2013-06-20 07:53:00,
2013-06-20 02:54:00,64.9,56.4,30.18,SE,135,0.0,0.0,74,0.00,,,0.00,VWS V14.01,2013-06-20 07:54:00,
2013-06-20 02:55:00,64.9,56.4,30.18,SE,135,0.0,0.0,74,0.00,,,0.00,VWS V14.01,2013-06-20 07:55:00,
2013-06-20 02:56:00,64.9,56.4,30.18,SE,135,0.0,0.0,74,0.00,,,0.00,VWS V14.01,2013-06-20 07:56:00,
2013-06-20 02:57:00,64.5,56.0,30.18,SE,135,0.0,0.0,74,0.00,,,0.00,VWS V14.01,2013-06-20 07:57:00,
2013-06-20 02:58:00,64.5,56.0,30.19,SE,135,0.0,0.0,74,0.00,,,0.00,VWS V14.01,2013-06-20 07:58:00,
2013-06-20 02:59:00,64.5,56.0,30.19,SE,135,0.0,0.0,74,0.00,,,0.00,VWS V14.01,2013-06-20 07:59:00,
2013-06-20 03:00:00,64.5,56.0,30.18,SE,135,0.0,0.0,74,0.00,,,0.00,VWS V14.01,2013-06-20 08:00:00,
2013-06-20 03:01:00,64.5,56.0,30.19,SE,135,0.0,0.0,74,0.00,,,0.00,VWS V14.01,2013-06-20 08:01:00,
2013-06-20 03:02:00,64.2,56.1,30.18,SE,135,0.0,0.0,75,0.00,,,0.00,VWS V14.01,2013-06-20 08:02:00,
2013-06-20 03:03:00,64.2,56.1,30.18,SE,135,0.0,0.0,75,0.00,,,0.00,VWS V14.01,2013-06-20 08:03:00,
2013-06-20 03:04:00,64.2,56.1,30.18,SE,135,0.0,0.0,75,0.00,,,0.00,VWS V14.01,2013-06-20 08:04:00,
2013-06-20 03:05:00,64.2,56.1,30.18,SE,135,0.0,0.0,75,0.00,,,0.00,VWS V14.01,2013-06-20 08:05:00,
2013-06-20 03:06:00,64.2,56.1,30.18,SE,135,0.0,0.0,75,0.00,,,0.00,VWS V14.01,2013-06-20 08:06:00,
2013-06-20 03:07:00,64.0,55.9,30.17,SE,135,0.0,0.0,75,0.00,,,0.00,VWS V14.01,2013-06-20 08:07:00,
2013-06-20 03:08:00,64.0,55.9,30.17,SE,135,0.0,0.0,75,0.00,,,0.00,VWS V14.01,2013-06-20 08:08:00,
2013-06-20 03:09:00,64.0,56.3,30.17,SE,135,0.4,0.4,76,0.00,,,0.00,VWS V14.01,2013-06-20 08:09:00,
2013-06-20 03:10:00,64.0,56.3,30.18,SE,135,0.4,0.4,76,0.00,,,0.00,VWS V14.01,2013-06-20 08:10:00,
2013-06-20 03:11:00,64.0,56.3,30.17,SE,135,0.4,0.4,76,0.00,,,0.00,VWS V14.01,2013-06-20 08:11:00,
2013-06-20 03:12:00,63.8,56.1,30.17,SE,135,0.0,0.0,76,0.00,,,0.00,VWS V14.01,2013-06-20 08:12:00,
2013-06-20 03:13:00,63.8,56.1,30.17,SE,135,0.0,0.0,76,0.00,,,0.00,VWS V14.01,2013-06-20 08:13:00,
2013-06-20 03:14:00,63.6,55.9,30.17,SE,135,0.0,0.0,76,0.00,,,0.00,VWS V14.01,2013-06-20 08:14:00,
2013-06-20 03:15:00,63.6,55.9,30.17,SE,135,0.0,0.0,76,0.00,,,0.00,VWS V14.01,2013-06-20 08:15:00,
2013-06-20 03:16:00,63.6,55.9,30.17,SE,135,0.0,0.0,76,0.00,,,0.00,VWS V14.01,2013-06-20 08:16:00,
2013-06-20 03:17:00,63.5,55.8,30.17,SE,135,0.0,0.0,76,0.00,,,0.00,VWS V14.01,2013-06-20 08:17:00,
2013-06-20 03:18:00,63.5,55.8,30.17,SE,135,0.0,0.0,76,0.00,,,0.00,VWS V14.01,2013-06-20 08:18:00,
2013-06-20 03:19:00,63.5,55.8,30.18,SE,135,0.0,0.0,76,0.00,,,0.00,VWS V14.01,2013-06-20 08:19:00,
2013-06-20 03:20:00,63.5,56.2,30.18,SE,135,0.0,0.0,77,0.00,,,0.00,VWS V14.01,2013-06-20 08:20:00,
2013-06-20 03:21:00,63.5,55.8,30.18,SE,135,0.0,0.0,76,0.00,,,0.00,VWS V14.01,2013-06-20 08:21:00,
2013-06-20 03:22:00,63.6,56.3,30.18,SE,135,0.0,0.0,77,0.00,,,0.00,VWS V14.01,2013-06-20 08:22:00,
2013-06-20 03:23:00,63.6,56.3,30.18,SE,135,0.0,0.0,77,0.00,,,0.00,VWS V14.01,2013-06-20 08:23:00,
2013-06-20 03:24:00,63.6,55.9,30.18,SE,135,1.5,1.5,76,0.00,,,0.00,VWS V14.01,2013-06-20 08:24:00,
2013-06-20 03:25:00,63.6,55.9,30.18,SE,135,1.5,1.5,76,0.00,,,0.00,VWS V14.01,2013-06-20 08:25:00,
2013-06-20 03:26:00,63.6,55.9,30.18,SE,135,1.5,1.5,76,0.00,,,0.00,VWS V14.01,2013-06-20 08:26:00,
2013-06-20 03:27:00,64.0,56.3,30.18,SE,135,0.6,0.6,76,0.00,,,0.00,VWS V14.01,2013-06-20 08:27:00,
2013-06-20 03:28:00,64.0,56.3,30.18,SE,135,0.0,0.6,76,0.00,,,0.00,VWS V14.01,2013-06-20 08:28:00,
2013-06-20 03:29:00,64.2,56.5,30.18,SE,135,0.0,0.0,76,0.00,,,0.00,VWS V14.01,2013-06-20 08:29:00,
2013-06-20 03:30:00,64.2,56.5,30.18,SE,135,0.0,0.0,76,0.00,,,0.00,VWS V14.01,2013-06-20 08:30:00,
2013-06-20 03:31:00,64.2,56.5,30.18,SE,135,0.0,0.0,76,0.00,,,0.00,VWS V14.01,2013-06-20 08:31:00,
2013-06-20 03:32:00,64.2,56.5,30.18,SE,135,0.0,0.0,76,0.00,,,0.00,VWS V14.01,2013-06-20 08:32:00,
2013-06-20 03:33:00,64.2,56.5,30.18,SE,135,1.3,1.3,76,0.00,,,0.00,VWS V14.01,2013-06-20 08:33:00,
2013-06-20 03:34:00,64.2,56.5,30.18,SE,135,1.3,1.3,76,0.00,,,0.00,VWS V14.01,2013-06-20 08:34:00,
2013-06-20 03:35:00,64.2,56.5,30.18,SE,135,0.0,1.3,76,0.00,,,0.00,VWS V14.01,2013-06-20 08:35:00,
2013-06-20 03:36:00,64.2,56.5,30.18,SE,135,1.3,1.3,76,0.00,,,0.00,VWS V14.01,2013-06-20 08:36:00,
2013-06-20 03:37:00,64.2,56.5,30.17,SE,135,0.0,0.0,76,0.00,,,0.00,VWS V14.01,2013-06-20 08:37:00,
2013-06-20 03:38:00,64.2,56.5,30.17,SE,135,0.0,0.0,76,0.00,,,0.00,VWS V14.01,2013-06-20 08:38:00,
2013-06-20 03:39:00,64.0,56.3,30.18,SSE,158,3.5,3.5,76,0.00,,,0.00,VWS V14.01,2013-06-20 08:39:00,
2013-06-20 03:40:00,64.0,56.3,30.18,SSE,158,3.5,3.5,76,0.00,,,0.00,VWS V14.01,2013-06-20 08:40:00,
2013-06-20 03:41:00,64.0,56.3,30.18,SSE,158,3.5,3.5,76,0.00,,,0.00,VWS V14.01,2013-06-20 08:41:00,
2013-06-20 03:42:00,64.0,56.3,30.18,SE,135,0.0,0.0,76,0.00,,,0.00,VWS V14.01,2013-06-20 08:42:00,
2013-06-20 03:43:00,64.2,56.5,30.17,SE,135,0.0,0.0,76,0.00,,,0.00,VWS V14.01,2013-06-20 08:43:00,
2013-06-20 03:44:00,64.2,56.5,30.18,SE,135,0.0,0.0,76,0.00,,,0.00,VWS V14.01,2013-06-20 08:44:00,
2013-06-20 03:45:00,64.2,56.5,30.18,SE,135,0.0,0.0,76,0.00,,,0.00,VWS V14.01,2013-06-20 08:45:00,
2013-06-20 03:46:00,64.2,56.5,30.18,SE,135,0.0,0.0,76,0.00,,,0.00,VWS V14.01,2013-06-20 08:46:00,
2013-06-20 03:47:00,64.2,56.5,30.18,SE,135,0.0,0.0,76,0.00,,,0.00,VWS V14.01,2013-06-20 08:47:00,
2013-06-20 03:48:00,64.2,56.5,30.18,SE,135,0.0,0.0,76,0.00,,,0.00,VWS V14.01,2013-06-20 08:48:00,
2013-06-20 03:49:00,64.2,56.5,30.18,SE,135,0.0,0.0,76,0.00,,,0.00,VWS V14.01,2013-06-20 08:49:00,
2013-06-20 03:50:00,64.2,56.5,30.18,SE,135,1.1,1.1,76,0.00,,,0.00,VWS V14.01,2013-06-20 08:50:00,
2013-06-20 03:51:00,64.2,56.5,30.18,SE,135,0.0,0.0,76,0.00,,,0.00,VWS V14.01,2013-06-20 08:51:00,
2013-06-20 03:52:00,64.2,56.1,30.18,SE,135,0.8,1.1,75,0.00,,,0.00,VWS V14.01,2013-06-20 08:52:00,
2013-06-20 03:53:00,64.2,56.1,30.18,SE,135,0.8,0.8,75,0.00,,,0.00,VWS V14.01,2013-06-20 08:53:00,
2013-06-20 03:54:00,64.2,56.5,30.18,SE,135,0.4,0.8,76,0.00,,,0.00,VWS V14.01,2013-06-20 08:54:00,
2013-06-20 03:55:00,64.2,56.5,30.18,SE,135,0.4,0.4,76,0.00,,,0.00,VWS V14.01,2013-06-20 08:55:00,
2013-06-20 03:56:00,64.2,56.5,30.18,SE,135,0.4,0.4,76,0.00,,,0.00,VWS V14.01,2013-06-20 08:56:00,
2013-06-20 03:57:00,64.5,56.4,30.17,SE,135,1.3,1.3,75,0.00,,,0.00,VWS V14.01,2013-06-20 08:57:00,
2013-06-20 03:58:00,64.5,56.4,30.18,SE,135,1.3,1.3,75,0.00,,,0.00,VWS V14.01,2013-06-20 08:58:00,
2013-06-20 03:59:00,64.5,56.4,30.18,SE,135,1.3,1.3,75,0.00,,,0.00,VWS V14.01,2013-06-20 08:59:00,
2013-06-20 04:00:00,64.5,56.4,30.18,SE,135,1.3,1.3,75,0.00,,,0.00,VWS V14.01,2013-06-20 09:00:00,
2013-06-20 04:01:00,64.5,56.4,30.18,SE,135,1.3,1.3,75,0.00,,,0.00,VWS V14.01,2013-06-20 09:01:00,
2013-06-20 04:02:00,64.0,55.9,30.18,SE,135,0.0,0.0,75,0.00,,,0.00,VWS V14.01,2013-06-20 09:02:00,
2013-06-20 04:03:00,63.8,56.1,30.18,SE,135,0.0,0.0,76,0.00,,,0.00,VWS V14.01,2013-06-20 09:03:00,
2013-06-20 04:04:00,63.8,56.1,30.18,SE,135,0.0,0.0,76,0.00,,,0.00,VWS V14.01,2013-06-20 09:04:00,
2013-06-20 04:05:00,63.5,55.8,30.18,SE,135,0.0,0.0,76,0.00,,,0.00,VWS V14.01,2013-06-20 09:05:00,
2013-06-20 04:06:00,63.8,56.1,30.18,SE,135,0.0,0.0,76,0.00,,,0.00,VWS V14.01,2013-06-20 09:06:00,
2013-06-20 04:07:00,63.3,55.6,30.18,SE,135,0.0,0.0,76,0.00,,,0.00,VWS V14.01,2013-06-20 09:07:00,
2013-06-20 04:08:00,63.3,55.6,30.18,SE,135,0.0,0.0,76,0.00,,,0.00,VWS V14.01,2013-06-20 09:08:00,
2013-06-20 04:09:00,63.1,55.4,30.19,SE,135,0.0,0.0,76,0.00,,,0.00,VWS V14.01,2013-06-20 09:09:00,
2013-06-20 04:10:00,63.1,55.4,30.18,SE,135,0.0,0.0,76,0.00,,,0.00,VWS V14.01,2013-06-20 09:10:00,
2013-06-20 04:11:00,63.1,55.4,30.19,SE,135,0.0,0.0,76,0.00,,,0.00,VWS V14.01,2013-06-20 09:11:00,
2013-06-20 04:12:00,63.1,55.8,30.18,SE,135,0.0,0.0,77,0.00,,,0.00,VWS V14.01,2013-06-20 09:12:00,
2013-06-20 04:13:00,63.1,55.8,30.18,SE,135,0.0,0.0,77,0.00,,,0.00,VWS V14.01,2013-06-20 09:13:00,
2013-06-20 04:14:00,63.1,55.8,30.18,SE,135,0.0,0.0,77,0.00,,,0.00,VWS V14.01,2013-06-20 09:14:00,
2013-06-20 04:15:00,63.1,55.8,30.18,SE,135,0.0,0.0,77,0.00,,,0.00,VWS V14.01,2013-06-20 09:15:00,
2013-06-20 04:16:00,63.1,55.8,30.18,SE,135,0.0,0.0,77,0.00,,,0.00,VWS V14.01,2013-06-20 09:16:00,
2013-06-20 04:17:00,62.9,55.6,30.18,SE,135,0.0,0.0,77,0.00,,,0.00,VWS V14.01,2013-06-20 09:17:00,
2013-06-20 04:18:00,62.7,55.4,30.18,SE,135,0.0,0.0,77,0.00,,,0.00,VWS V14.01,2013-06-20 09:18:00,
2013-06-20 04:19:00,62.7,55.4,30.18,SE,135,0.0,0.0,77,0.00,,,0.00,VWS V14.01,2013-06-20 09:19:00,
2013-06-20 04:20:00,62.7,55.4,30.18,SE,135,0.0,0.0,77,0.00,,,0.00,VWS V14.01,2013-06-20 09:20:00,
2013-06-20 04:21:00,62.7,55.4,30.18,SE,135,0.0,0.0,77,0.00,,,0.00,VWS V14.01,2013-06-20 09:21:00,
2013-06-20 04:22:00,62.6,55.3,30.18,SE,135,0.0,0.0,77,0.00,,,0.00,VWS V14.01,2013-06-20 09:22:00,
2013-06-20 04:23:00,62.6,55.3,30.18,SE,135,0.0,0.0,77,0.00,,,0.00,VWS V14.01,2013-06-20 09:23:00,
2013-06-20 04:24:00,62.4,55.5,30.18,SE,135,0.0,0.0,78,0.00,,,0.00,VWS V14.01,2013-06-20 09:24:00,
2013-06-20 04:25:00,62.4,55.5,30.17,SE,135,0.0,0.0,78,0.00,,,0.00,VWS V14.01,2013-06-20 09:25:00,
2013-06-20 04:26:00,62.4,55.5,30.18,SE,135,0.0,0.0,78,0.00,,,0.00,VWS V14.01,2013-06-20 09:26:00,
2013-06-20 04:27:00,62.4,55.5,30.17,SE,135,0.0,0.0,78,0.00,,,0.00,VWS V14.01,2013-06-20 09:27:00,
2013-06-20 04:28:00,62.4,55.5,30.17,SE,135,0.0,0.0,78,0.00,,,0.00,VWS V14.01,2013-06-20 09:28:00,
2013-06-20 04:29:00,62.4,55.5,30.17,SE,135,0.0,0.0,78,0.00,,,0.00,VWS V14.01,2013-06-20 09:29:00,
2013-06-20 04:30:00,62.4,55.5,30.17,SE,135,0.0,0.0,78,0.00,,,0.00,VWS V14.01,2013-06-20 09:30:00,
2013-06-20 04:31:00,62.4,55.5,30.17,SE,135,0.0,0.0,78,0.00,,,0.00,VWS V14.01,2013-06-20 09:31:00,
2013-06-20 04:32:00,62.4,55.5,30.17,SE,135,0.0,0.0,78,0.00,,,0.00,VWS V14.01,2013-06-20 09:32:00,
2013-06-20 04:33:00,62.4,55.5,30.17,SE,135,0.0,0.0,78,0.00,,,0.00,VWS V14.01,2013-06-20 09:33:00,
2013-06-20 04:34:00,62.4,55.5,30.17,SE,135,0.0,0.0,78,0.00,,,0.00,VWS V14.01,2013-06-20 09:34:00,
2013-06-20 04:35:00,62.4,55.5,30.17,SE,135,0.0,0.0,78,0.00,,,0.00,VWS V14.01,2013-06-20 09:35:00,
2013-06-20 04:36:00,62.4,55.5,30.17,SE,135,0.0,0.0,78,0.00,,,0.00,VWS V14.01,2013-06-20 09:36:00,
2013-06-20 04:37:00,62.4,55.5,30.17,ESE,112,0.0,0.0,78,0.00,,,0.00,VWS V14.01,2013-06-20 09:37:00,
2013-06-20 04:38:00,62.4,55.5,30.17,ESE,112,0.0,0.0,78,0.00,,,0.00,VWS V14.01,2013-06-20 09:38:00,
2013-06-20 04:39:00,62.4,55.5,30.17,ESE,112,0.0,0.0,78,0.00,,,0.00,VWS V14.01,2013-06-20 09:39:00,
2013-06-20 04:40:00,62.4,55.5,30.17,ESE,112,0.0,0.0,78,0.00,,,0.00,VWS V14.01,2013-06-20 09:40:00,
2013-06-20 04:41:00,62.4,55.5,30.18,ESE,112,0.0,0.0,78,0.00,,,0.00,VWS V14.01,2013-06-20 09:41:00,
2013-06-20 04:42:00,62.4,55.5,30.18,ESE,112,0.0,0.0,78,0.00,,,0.00,VWS V14.01,2013-06-20 09:42:00,
2013-06-20 04:43:00,62.4,55.5,30.18,ESE,112,0.0,0.0,78,0.00,,,0.00,VWS V14.01,2013-06-20 09:43:00,
2013-06-20 04:44:00,62.4,55.5,30.18,ESE,112,0.0,0.0,78,0.00,,,0.00,VWS V14.01,2013-06-20 09:44:00,
2013-06-20 04:45:00,62.4,55.5,30.18,ESE,112,0.0,0.0,78,0.00,,,0.00,VWS V14.01,2013-06-20 09:45:00,
2013-06-20 04:46:00,62.4,55.5,30.18,ESE,112,0.0,0.0,78,0.00,,,0.00,VWS V14.01,2013-06-20 09:46:00,
2013-06-20 04:47:00,62.4,55.5,30.18,ESE,112,0.0,0.0,78,0.00,,,0.00,VWS V14.01,2013-06-20 09:47:00,
2013-06-20 04:48:00,62.4,55.5,30.18,ESE,112,0.0,0.0,78,0.00,,,0.00,VWS V14.01,2013-06-20 09:48:00,
2013-06-20 04:49:00,62.4,55.5,30.18,ESE,112,0.0,0.0,78,0.00,,,0.00,VWS V14.01,2013-06-20 09:49:00,
2013-06-20 04:50:00,62.4,55.5,30.18,ESE,112,0.0,0.0,78,0.00,,,0.00,VWS V14.01,2013-06-20 09:50:00,
2013-06-20 04:51:00,62.4,55.5,30.18,ESE,112,0.0,0.0,78,0.00,,,0.00,VWS V14.01,2013-06-20 09:51:00,
2013-06-20 04:52:00,62.2,55.3,30.18,ESE,112,0.0,0.0,78,0.00,,,0.00,VWS V14.01,2013-06-20 09:52:00,
2013-06-20 04:53:00,62.2,55.3,30.18,ESE,112,0.0,0.0,78,0.00,,,0.00,VWS V14.01,2013-06-20 09:53:00,
2013-06-20 04:54:00,62.2,55.3,30.18,ESE,112,0.0,0.0,78,0.00,,,0.00,VWS V14.01,2013-06-20 09:54:00,
2013-06-20 04:55:00,62.2,55.3,30.18,ESE,112,0.0,0.0,78,0.00,,,0.00,VWS V14.01,2013-06-20 09:55:00,
2013-06-20 04:56:00,62.2,55.3,30.18,ESE,112,0.0,0.0,78,0.00,,,0.00,VWS V14.01,2013-06-20 09:56:00,
2013-06-20 04:57:00,62.2,55.3,30.18,ESE,112,0.0,0.0,78,0.00,,,0.00,VWS V14.01,2013-06-20 09:57:00,
2013-06-20 04:58:00,62.2,55.3,30.18,ESE,112,0.0,0.0,78,0.00,,,0.00,VWS V14.01,2013-06-20 09:58:00,
2013-06-20 04:59:00,62.2,55.3,30.18,ESE,112,0.0,0.0,78,0.00,,,0.00,VWS V14.01,2013-06-20 09:59:00,
2013-06-20 05:00:00,62.2,55.3,30.18,ESE,112,0.0,0.0,78,0.00,,,0.00,VWS V14.01,2013-06-20 10:00:00,
2013-06-20 05:01:00,62.2,55.3,30.18,ESE,112,0.0,0.0,78,0.00,,,0.00,VWS V14.01,2013-06-20 10:01:00,
2013-06-20 05:02:00,62.2,55.3,30.18,ESE,112,0.0,0.0,78,0.00,,,0.00,VWS V14.01,2013-06-20 10:02:00,
2013-06-20 05:03:00,62.0,55.1,30.18,ESE,112,0.0,0.0,78,0.00,,,0.00,VWS V14.01,2013-06-20 10:03:00,
2013-06-20 05:04:00,62.0,55.1,30.18,ESE,112,0.0,0.0,78,0.00,,,0.00,VWS V14.01,2013-06-20 10:04:00,
2013-06-20 05:05:00,62.0,55.1,30.18,ESE,112,0.0,0.0,78,0.00,,,0.00,VWS V14.01,2013-06-20 10:05:00,
2013-06-20 05:06:00,62.0,55.1,30.19,ESE,112,0.0,0.0,78,0.00,,,0.00,VWS V14.01,2013-06-20 10:06:00,
2013-06-20 05:07:00,62.0,55.1,30.18,ESE,112,0.0,0.0,78,0.00,,,0.00,VWS V14.01,2013-06-20 10:07:00,
2013-06-20 05:08:00,62.0,55.1,30.18,ESE,112,0.0,0.0,78,0.00,,,0.00,VWS V14.01,2013-06-20 10:08:00,
2013-06-20 05:09:00,62.2,55.3,30.18,SE,135,0.0,0.0,78,0.00,,,0.00,VWS V14.01,2013-06-20 10:09:00,
2013-06-20 05:10:00,62.2,55.3,30.18,SE,135,0.0,0.0,78,0.00,,,0.00,VWS V14.01,2013-06-20 10:10:00,
2013-06-20 05:11:00,62.4,55.5,30.18,SE,135,0.0,0.0,78,0.00,,,0.00,VWS V14.01,2013-06-20 10:11:00,
2013-06-20 05:12:00,62.4,55.5,30.18,SE,135,0.0,0.0,78,0.00,,,0.00,VWS V14.01,2013-06-20 10:12:00,
2013-06-20 05:13:00,62.4,55.5,30.18,SE,135,0.0,0.0,78,0.00,,,0.00,VWS V14.01,2013-06-20 10:13:00,
2013-06-20 05:14:00,62.2,55.3,30.18,SE,135,0.0,0.0,78,0.00,,,0.00,VWS V14.01,2013-06-20 10:14:00,
2013-06-20 05:15:00,62.2,55.3,30.18,SE,135,0.0,0.0,78,0.00,,,0.00,VWS V14.01,2013-06-20 10:15:00,
2013-06-20 05:16:00,61.8,54.9,30.17,SE,135,0.0,0.0,78,0.00,,,0.00,VWS V14.01,2013-06-20 10:16:00,
2013-06-20 05:17:00,61.8,54.9,30.17,SE,135,0.0,0.0,78,0.00,,,0.00,VWS V14.01,2013-06-20 10:17:00,
2013-06-20 05:18:00,61.8,54.9,30.18,SE,135,0.0,0.0,78,0.00,,,0.00,VWS V14.01,2013-06-20 10:18:00,
2013-06-20 05:19:00,61.8,54.9,30.17,SE,135,0.0,0.0,78,0.00,,,0.00,VWS V14.01,2013-06-20 10:19:00,
2013-06-20 05:20:00,61.8,54.9,30.17,SE,135,0.0,0.0,78,0.00,,,0.00,VWS V14.01,2013-06-20 10:20:00,
2013-06-20 05:21:00,61.8,54.9,30.18,SE,135,0.0,0.0,78,0.00,,,0.00,VWS V14.01,2013-06-20 10:21:00,
2013-06-20 05:22:00,61.7,55.1,30.17,SE,135,0.0,0.0,79,0.00,,,0.00,VWS V14.01,2013-06-20 10:22:00,
2013-06-20 05:23:00,61.7,55.1,30.17,SE,135,0.0,0.0,79,0.00,,,0.00,VWS V14.01,2013-06-20 10:23:00,
2013-06-20 05:24:00,61.5,54.9,30.17,SE,135,0.0,0.0,79,0.00,,,0.00,VWS V14.01,2013-06-20 10:24:00,
2013-06-20 05:25:00,61.5,54.9,30.17,SE,135,0.0,0.0,79,0.00,,,0.00,VWS V14.01,2013-06-20 10:25:00,
2013-06-20 05:26:00,61.5,54.9,30.17,SE,135,0.0,0.0,79,0.00,,,0.00,VWS V14.01,2013-06-20 10:26:00,
2013-06-20 05:27:00,61.5,54.9,30.17,SE,135,0.0,0.0,79,0.00,,,0.00,VWS V14.01,2013-06-20 10:27:00,
2013-06-20 05:28:00,61.5,54.9,30.17,SE,135,0.0,0.0,79,0.00,,,0.00,VWS V14.01,2013-06-20 10:28:00,
2013-06-20 05:29:00,61.5,54.9,30.17,SE,135,0.0,0.0,79,0.00,,,0.00,VWS V14.01,2013-06-20 10:29:00,
2013-06-20 05:30:00,61.5,54.9,30.17,SE,135,0.0,0.0,79,0.00,,,0.00,VWS V14.01,2013-06-20 10:30:00,
2013-06-20 05:31:00,61.5,54.9,30.18,SE,135,0.0,0.0,79,0.00,,,0.00,VWS V14.01,2013-06-20 10:31:00,
2013-06-20 05:32:00,61.5,54.9,30.18,SE,135,0.0,0.0,79,0.00,,,0.00,VWS V14.01,2013-06-20 10:32:00,
2013-06-20 05:33:00,61.5,54.9,30.17,SE,135,0.0,0.0,79,0.00,,,0.00,VWS V14.01,2013-06-20 10:33:00,
2013-06-20 05:34:00,61.5,54.9,30.18,SE,135,0.0,0.0,79,0.00,,,0.00,VWS V14.01,2013-06-20 10:34:00,
2013-06-20 05:35:00,61.5,54.9,30.18,SE,135,0.0,0.0,79,0.00,,,0.00,VWS V14.01,2013-06-20 10:35:00,
2013-06-20 05:36:00,61.7,55.1,30.18,ESE,112,0.0,0.0,79,0.00,,,0.00,VWS V14.01,2013-06-20 10:36:00,
2013-06-20 05:37:00,61.7,55.1,30.18,ESE,112,0.0,0.0,79,0.00,,,0.00,VWS V14.01,2013-06-20 10:37:00,
2013-06-20 05:38:00,61.7,55.1,30.18,ESE,112,0.0,0.0,79,0.00,,,0.00,VWS V14.01,2013-06-20 10:38:00,
2013-06-20 05:39:00,61.7,55.1,30.18,ESE,112,0.0,0.0,79,0.00,,,0.00,VWS V14.01,2013-06-20 10:39:00,
2013-06-20 05:40:00,61.7,55.1,30.18,ESE,112,0.0,0.0,79,0.00,,,0.00,VWS V14.01,2013-06-20 10:40:00,
2013-06-20 05:41:00,61.7,55.1,30.18,ESE,112,0.0,0.0,79,0.00,,,0.00,VWS V14.01,2013-06-20 10:41:00,
2013-06-20 05:42:00,61.7,55.1,30.18,ESE,112,0.0,0.0,79,0.00,,,0.00,VWS V14.01,2013-06-20 10:42:00,
2013-06-20 05:43:00,61.7,55.1,30.18,ESE,112,0.0,0.0,79,0.00,,,0.00,VWS V14.01,2013-06-20 10:43:00,
2013-06-20 05:44:00,62.0,55.4,30.18,ESE,112,0.0,0.0,79,0.00,,,0.00,VWS V14.01,2013-06-20 10:44:00,
2013-06-20 05:45:00,62.0,55.4,30.18,ESE,112,0.0,0.0,79,0.00,,,0.00,VWS V14.01,2013-06-20 10:45:00,
2013-06-20 05:46:00,62.2,55.3,30.18,ESE,112,0.0,0.0,78,0.00,,,0.00,VWS V14.01,2013-06-20 10:46:00,
2013-06-20 05:47:00,62.2,55.3,30.18,ESE,112,0.0,0.0,78,0.00,,,0.00,VWS V14.01,2013-06-20 10:47:00,
2013-06-20 05:48:00,62.2,55.3,30.18,ESE,112,0.0,0.0,78,0.00,,,0.00,VWS V14.01,2013-06-20 10:48:00,
2013-06-20 05:49:00,62.2,55.3,30.18,ESE,112,0.0,0.0,78,0.00,,,0.00,VWS V14.01,2013-06-20 10:49:00,
2013-06-20 05:50:00,62.2,55.3,30.18,ESE,112,0.0,0.0,78,0.00,,,0.00,VWS V14.01,2013-06-20 10:50:00,
2013-06-20 05:51:00,62.4,55.5,30.18,ESE,112,0.0,0.0,78,0.00,,,0.00,VWS V14.01,2013-06-20 10:51:00,
2013-06-20 05:52:00,62.4,55.5,30.18,ESE,112,0.0,0.0,78,0.00,,,0.00,VWS V14.01,2013-06-20 10:52:00,
2013-06-20 05:53:00,62.4,55.5,30.18,ESE,112,0.0,0.0,78,0.00,,,0.00,VWS V14.01,2013-06-20 10:53:00,
2013-06-20 05:54:00,62.7,55.8,30.18,ESE,112,0.0,0.0,78,0.00,,,0.00,VWS V14.01,2013-06-20 10:54:00,
2013-06-20 05:55:00,62.7,55.8,30.18,ESE,112,0.0,0.0,78,0.00,,,0.00,VWS V14.01,2013-06-20 10:55:00,
2013-06-20 05:56:00,63.1,55.8,30.18,ESE,112,0.0,0.0,77,0.00,,,0.00,VWS V14.01,2013-06-20 10:56:00,
2013-06-20 05:57:00,63.1,55.8,30.18,ESE,112,0.0,0.0,77,0.00,,,0.00,VWS V14.01,2013-06-20 10:57:00,
2013-06-20 05:58:00,63.1,55.8,30.18,ESE,112,0.0,0.0,77,0.00,,,0.00,VWS V14.01,2013-06-20 10:58:00,
2013-06-20 05:59:00,63.1,55.8,30.18,ESE,112,0.0,0.0,77,0.00,,,0.00,VWS V14.01,2013-06-20 10:59:00,
2013-06-20 06:00:00,63.1,55.8,30.18,ESE,112,0.0,0.0,77,0.00,,,0.00,VWS V14.01,2013-06-20 11:00:00,
2013-06-20 06:01:00,64.0,56.3,30.18,ESE,112,0.0,0.0,76,0.00,,,0.00,VWS V14.01,2013-06-20 11:01:00,
2013-06-20 06:02:00,64.0,56.3,30.18,ESE,112,0.0,0.0,76,0.00,,,0.00,VWS V14.01,2013-06-20 11:02:00,
2013-06-20 06:03:00,64.2,56.5,30.18,ESE,112,0.0,0.0,76,0.00,,,0.00,VWS V14.01,2013-06-20 11:03:00,
2013-06-20 06:04:00,64.2,56.5,30.18,ESE,112,0.0,0.0,76,0.00,,,0.00,VWS V14.01,2013-06-20 11:04:00,
2013-06-20 06:05:00,64.2,56.5,30.18,ESE,112,0.0,0.0,76,0.00,,,0.00,VWS V14.01,2013-06-20 11:05:00,
2013-06-20 06:06:00,64.5,56.4,30.18,ESE,112,0.0,0.0,75,0.00,,,0.00,VWS V14.01,2013-06-20 11:06:00,
2013-06-20 06:07:00,64.9,56.8,30.18,ESE,112,0.0,0.0,75,0.00,,,0.00,VWS V14.01,2013-06-20 11:07:00,
2013-06-20 06:08:00,64.9,56.8,30.18,ESE,112,0.0,0.0,75,0.00,,,0.00,VWS V14.01,2013-06-20 11:08:00,
2013-06-20 06:09:00,65.1,57.0,30.18,ESE,112,0.0,0.0,75,0.00,,,0.00,VWS V14.01,2013-06-20 11:09:00,
2013-06-20 06:10:00,65.1,57.0,30.18,ESE,112,0.0,0.0,75,0.00,,,0.00,VWS V14.01,2013-06-20 11:10:00,
2013-06-20 06:11:00,65.1,56.6,30.18,ESE,112,0.0,0.0,74,0.00,,,0.00,VWS V14.01,2013-06-20 11:11:00,
2013-06-20 06:12:00,65.1,56.6,30.18,ESE,112,0.0,0.0,74,0.00,,,0.00,VWS V14.01,2013-06-20 11:12:00,
2013-06-20 06:13:00,65.1,56.6,30.18,ESE,112,0.0,0.0,74,0.00,,,0.00,VWS V14.01,2013-06-20 11:13:00,
2013-06-20 06:14:00,65.1,56.6,30.19,ESE,112,0.0,0.0,74,0.00,,,0.00,VWS V14.01,2013-06-20 11:14:00,
2013-06-20 06:15:00,65.1,56.6,30.19,ESE,112,0.0,0.0,74,0.00,,,0.00,VWS V14.01,2013-06-20 11:15:00,
2013-06-20 06:16:00,65.4,56.9,30.19,ESE,112,0.0,0.0,74,0.00,,,0.00,VWS V14.01,2013-06-20 11:16:00,
2013-06-20 06:17:00,65.4,56.9,30.19,ESE,112,0.0,0.0,74,0.00,,,0.00,VWS V14.01,2013-06-20 11:17:00,
2013-06-20 06:18:00,65.6,57.1,30.19,ESE,112,0.0,0.0,74,0.00,,,0.00,VWS V14.01,2013-06-20 11:18:00,
2013-06-20 06:19:00,65.6,57.1,30.19,ESE,112,0.0,0.0,74,0.00,,,0.00,VWS V14.01,2013-06-20 11:19:00,
2013-06-20 06:20:00,65.6,57.1,30.19,ESE,112,0.0,0.0,74,0.00,,,0.00,VWS V14.01,2013-06-20 11:20:00,
2013-06-20 06:21:00,66.0,57.5,30.18,ESE,112,0.0,0.0,74,0.00,,,0.00,VWS V14.01,2013-06-20 11:21:00,
2013-06-20 06:22:00,66.0,57.5,30.18,ESE,112,0.0,0.0,74,0.00,,,0.00,VWS V14.01,2013-06-20 11:22:00,
2013-06-20 06:23:00,66.0,57.5,30.18,ESE,112,0.0,0.0,74,0.00,,,0.00,VWS V14.01,2013-06-20 11:23:00,
2013-06-20 06:24:00,66.3,57.4,30.19,ESE,112,0.0,0.0,73,0.00,,,0.00,VWS V14.01,2013-06-20 11:24:00,
2013-06-20 06:25:00,66.3,57.4,30.19,ESE,112,0.0,0.0,73,0.00,,,0.00,VWS V14.01,2013-06-20 11:25:00,
2013-06-20 06:26:00,66.5,57.6,30.19,ESE,112,0.0,0.0,73,0.00,,,0.00,VWS V14.01,2013-06-20 11:26:00,
2013-06-20 06:27:00,66.5,57.6,30.19,ESE,112,0.0,0.0,73,0.00,,,0.00,VWS V14.01,2013-06-20 11:27:00,
2013-06-20 06:28:00,66.5,57.6,30.19,ESE,112,0.0,0.0,73,0.00,,,0.00,VWS V14.01,2013-06-20 11:28:00,
2013-06-20 06:29:00,66.5,57.6,30.19,ESE,112,0.0,0.0,73,0.00,,,0.00,VWS V14.01,2013-06-20 11:29:00,
2013-06-20 06:30:00,66.5,57.6,30.19,ESE,112,0.0,0.0,73,0.00,,,0.00,VWS V14.01,2013-06-20 11:30:00,
2013-06-20 06:31:00,66.0,57.1,30.19,ESE,112,0.0,0.0,73,0.00,,,0.00,VWS V14.01,2013-06-20 11:31:00,
2013-06-20 06:32:00,66.0,57.1,30.19,ESE,112,0.0,0.0,73,0.00,,,0.00,VWS V14.01,2013-06-20 11:32:00,
2013-06-20 06:33:00,65.6,57.1,30.18,ESE,112,0.0,0.0,74,0.00,,,0.00,VWS V14.01,2013-06-20 11:33:00,
2013-06-20 06:34:00,65.6,57.1,30.18,ESE,112,0.0,0.0,74,0.00,,,0.00,VWS V14.01,2013-06-20 11:34:00,
2013-06-20 06:35:00,65.6,57.1,30.18,ESE,112,0.0,0.0,74,0.00,,,0.00,VWS V14.01,2013-06-20 11:35:00,
2013-06-20 06:36:00,65.3,56.8,30.18,ESE,112,0.0,0.0,74,0.00,,,0.00,VWS V14.01,2013-06-20 11:36:00,
2013-06-20 06:37:00,65.1,56.6,30.18,ESE,112,0.0,0.0,74,0.00,,,0.00,VWS V14.01,2013-06-20 11:37:00,
2013-06-20 06:38:00,65.1,56.6,30.19,ESE,112,0.0,0.0,74,0.00,,,0.00,VWS V14.01,2013-06-20 11:38:00,
2013-06-20 06:39:00,66.0,57.5,30.19,ESE,112,0.0,0.0,74,0.00,,,0.00,VWS V14.01,2013-06-20 11:39:00,
2013-06-20 06:40:00,66.0,57.5,30.19,ESE,112,0.0,0.0,74,0.00,,,0.00,VWS V14.01,2013-06-20 11:40:00,
2013-06-20 06:41:00,66.7,58.2,30.19,ESE,112,0.0,0.0,74,0.00,,,0.00,VWS V14.01,2013-06-20 11:41:00,
2013-06-20 06:42:00,66.7,58.2,30.19,ESE,112,0.0,0.0,74,0.00,,,0.00,VWS V14.01,2013-06-20 11:42:00,
2013-06-20 06:43:00,66.7,58.2,30.19,ESE,112,0.0,0.0,74,0.00,,,0.00,VWS V14.01,2013-06-20 11:43:00,
2013-06-20 06:44:00,67.6,59.0,30.19,ESE,112,0.0,0.0,74,0.00,,,0.00,VWS V14.01,2013-06-20 11:44:00,
2013-06-20 06:45:00,67.6,59.0,30.19,ESE,112,0.0,0.0,74,0.00,,,0.00,VWS V14.01,2013-06-20 11:45:00,
2013-06-20 06:46:00,67.8,58.8,30.19,ESE,112,0.0,0.0,73,0.00,,,0.00,VWS V14.01,2013-06-20 11:46:00,
2013-06-20 06:47:00,67.8,58.8,30.19,ESE,112,0.0,0.0,73,0.00,,,0.00,VWS V14.01,2013-06-20 11:47:00,
2013-06-20 06:48:00,68.3,59.3,30.19,ESE,112,0.0,0.0,73,0.00,,,0.00,VWS V14.01,2013-06-20 11:48:00,
2013-06-20 06:49:00,68.3,59.3,30.19,ESE,112,0.0,0.0,73,0.00,,,0.00,VWS V14.01,2013-06-20 11:49:00,
2013-06-20 06:50:00,68.3,59.3,30.19,ESE,112,0.0,0.0,73,0.00,,,0.00,VWS V14.01,2013-06-20 11:50:00,
2013-06-20 06:51:00,68.1,58.7,30.18,ESE,112,0.0,0.0,72,0.00,,,0.00,VWS V14.01,2013-06-20 11:51:00,
2013-06-20 06:52:00,67.2,57.9,30.19,ESE,112,0.0,0.0,72,0.00,,,0.00,VWS V14.01,2013-06-20 11:52:00,
2013-06-20 06:53:00,67.2,57.9,30.19,ESE,112,0.0,0.0,72,0.00,,,0.00,VWS V14.01,2013-06-20 11:53:00,
2013-06-20 06:54:00,66.7,57.8,30.19,ESE,112,2.6,2.6,73,0.00,,,0.00,VWS V14.01,2013-06-20 11:54:00,
2013-06-20 06:55:00,66.7,57.8,30.19,ESE,112,2.6,2.6,73,0.00,,,0.00,VWS V14.01,2013-06-20 11:55:00,
2013-06-20 06:56:00,66.3,57.4,30.19,ESE,112,2.0,2.6,73,0.00,,,0.00,VWS V14.01,2013-06-20 11:56:00,
2013-06-20 06:57:00,66.3,57.4,30.19,ESE,112,2.0,2.0,73,0.00,,,0.00,VWS V14.01,2013-06-20 11:57:00,
2013-06-20 06:58:00,66.3,57.4,30.19,ESE,112,2.0,2.0,73,0.00,,,0.00,VWS V14.01,2013-06-20 11:58:00,
2013-06-20 06:59:00,66.3,57.4,30.19,ESE,112,2.0,2.0,73,0.00,,,0.00,VWS V14.01,2013-06-20 11:59:00,
2013-06-20 07:00:00,66.3,57.4,30.19,ESE,112,2.0,2.0,73,0.00,,,0.00,VWS V14.01,2013-06-20 12:00:00,
2013-06-20 07:01:00,67.8,58.8,30.19,ESE,112,0.0,4.4,73,0.00,,,0.00,VWS V14.01,2013-06-20 12:01:00,
2013-06-20 07:02:00,67.8,58.8,30.19,ESE,112,0.0,0.0,73,0.00,,,0.00,VWS V14.01,2013-06-20 12:02:00,
2013-06-20 07:03:00,68.5,59.5,30.19,ESE,112,0.0,0.0,73,0.00,,,0.00,VWS V14.01,2013-06-20 12:03:00,
2013-06-20 07:04:00,68.5,59.5,30.19,ESE,112,0.0,0.0,73,0.00,,,0.00,VWS V14.01,2013-06-20 12:04:00,
2013-06-20 07:05:00,68.5,59.5,30.19,ESE,112,0.0,0.0,73,0.00,,,0.00,VWS V14.01,2013-06-20 12:05:00,
2013-06-20 07:06:00,69.0,59.2,30.19,SE,135,2.9,2.9,71,0.00,,,0.00,VWS V14.01,2013-06-20 12:06:00,
2013-06-20 07:07:00,69.6,59.4,30.19,SE,135,3.8,3.8,70,0.00,,,0.00,VWS V14.01,2013-06-20 12:07:00,
2013-06-20 07:08:00,69.6,59.4,30.19,SE,135,3.8,3.8,70,0.00,,,0.00,VWS V14.01,2013-06-20 12:08:00,
2013-06-20 07:09:00,69.9,59.7,30.19,SE,135,0.0,3.8,70,0.00,,,0.00,VWS V14.01,2013-06-20 12:09:00,
2013-06-20 07:10:00,69.9,59.7,30.19,SE,135,0.0,0.0,70,0.00,,,0.00,VWS V14.01,2013-06-20 12:10:00,
2013-06-20 07:11:00,70.3,59.7,30.19,SE,135,1.7,1.7,69,0.00,,,0.00,VWS V14.01,2013-06-20 12:11:00,
2013-06-20 07:12:00,70.3,59.7,30.20,SE,135,1.7,1.7,69,0.00,,,0.00,VWS V14.01,2013-06-20 12:12:00,
2013-06-20 07:13:00,70.5,59.8,30.19,SE,135,0.0,1.7,69,0.00,,,0.00,VWS V14.01,2013-06-20 12:13:00,
2013-06-20 07:14:00,70.5,59.8,30.19,SE,135,0.0,0.0,69,0.00,,,0.00,VWS V14.01,2013-06-20 12:14:00,
2013-06-20 07:15:00,70.5,59.8,30.19,SE,135,0.0,0.0,69,0.00,,,0.00,VWS V14.01,2013-06-20 12:15:00,
2013-06-20 07:16:00,70.7,59.6,30.19,SE,135,5.1,5.1,68,0.00,,,0.00,VWS V14.01,2013-06-20 12:16:00,
2013-06-20 07:17:00,70.7,59.6,30.19,SE,135,5.1,5.1,68,0.00,,,0.00,VWS V14.01,2013-06-20 12:17:00,
2013-06-20 07:18:00,70.7,59.6,30.19,SE,135,0.0,5.1,68,0.00,,,0.00,VWS V14.01,2013-06-20 12:18:00,
2013-06-20 07:19:00,70.7,59.6,30.19,SE,135,0.0,0.0,68,0.00,,,0.00,VWS V14.01,2013-06-20 12:19:00,
2013-06-20 07:20:00,70.7,59.6,30.19,SE,135,0.0,0.0,68,0.00,,,0.00,VWS V14.01,2013-06-20 12:20:00,
2013-06-20 07:21:00,70.8,59.3,30.19,ESE,112,0.4,0.4,67,0.00,,,0.00,VWS V14.01,2013-06-20 12:21:00,
2013-06-20 07:22:00,71.2,59.7,30.20,SE,135,0.0,0.4,67,0.00,,,0.00,VWS V14.01,2013-06-20 12:22:00,
2013-06-20 07:23:00,71.2,59.7,30.20,SE,135,0.0,0.0,67,0.00,,,0.00,VWS V14.01,2013-06-20 12:23:00,
2013-06-20 07:24:00,71.4,59.9,30.20,SSE,158,1.5,1.5,67,0.00,,,0.00,VWS V14.01,2013-06-20 12:24:00,
2013-06-20 07:25:00,71.4,59.9,30.20,SSE,158,1.5,1.5,67,0.00,,,0.00,VWS V14.01,2013-06-20 12:25:00,
2013-06-20 07:26:00,71.2,58.8,30.20,SSE,158,6.2,6.2,65,0.00,,,0.00,VWS V14.01,2013-06-20 12:26:00,
2013-06-20 07:27:00,71.2,58.8,30.19,SSE,158,6.2,6.2,65,0.00,,,0.00,VWS V14.01,2013-06-20 12:27:00,
2013-06-20 07:28:00,71.0,58.7,30.20,SE,135,3.1,6.2,65,0.00,,,0.00,VWS V14.01,2013-06-20 12:28:00,
2013-06-20 07:29:00,71.0,58.7,30.19,SE,135,3.1,3.1,65,0.00,,,0.00,VWS V14.01,2013-06-20 12:29:00,
2013-06-20 07:30:00,71.0,58.7,30.19,SE,135,3.1,3.1,65,0.00,,,0.00,VWS V14.01,2013-06-20 12:30:00,
2013-06-20 07:31:00,71.2,59.3,30.19,SE,135,7.1,7.1,66,0.00,,,0.00,VWS V14.01,2013-06-20 12:31:00,
2013-06-20 07:32:00,71.2,59.3,30.19,SE,135,7.1,7.1,66,0.00,,,0.00,VWS V14.01,2013-06-20 12:32:00,
2013-06-20 07:33:00,71.2,59.3,30.19,SE,135,6.0,7.1,66,0.00,,,0.00,VWS V14.01,2013-06-20 12:33:00,
2013-06-20 07:34:00,71.2,59.3,30.19,SE,135,6.0,6.0,66,0.00,,,0.00,VWS V14.01,2013-06-20 12:34:00,
2013-06-20 07:35:00,71.2,59.3,30.19,SE,135,6.0,6.0,66,0.00,,,0.00,VWS V14.01,2013-06-20 12:35:00,
2013-06-20 07:36:00,71.2,59.3,30.19,SSE,158,6.0,6.0,66,0.00,,,0.00,VWS V14.01,2013-06-20 12:36:00,
2013-06-20 07:37:00,71.4,59.5,30.19,SSE,158,6.9,6.9,66,0.00,,,0.00,VWS V14.01,2013-06-20 12:37:00,
2013-06-20 07:38:00,71.4,59.5,30.19,SSE,158,6.9,6.9,66,0.00,,,0.00,VWS V14.01,2013-06-20 12:38:00,
2013-06-20 07:39:00,71.4,59.0,30.19,SSE,158,3.3,6.9,65,0.00,,,0.00,VWS V14.01,2013-06-20 12:39:00,
2013-06-20 07:40:00,71.4,59.0,30.19,SSE,158,3.3,3.3,65,0.00,,,0.00,VWS V14.01,2013-06-20 12:40:00,
2013-06-20 07:41:00,71.6,59.2,30.19,SSE,158,4.4,4.4,65,0.00,,,0.00,VWS V14.01,2013-06-20 12:41:00,
2013-06-20 07:42:00,71.6,59.2,30.19,SSE,158,4.4,4.4,65,0.00,,,0.00,VWS V14.01,2013-06-20 12:42:00,
2013-06-20 07:43:00,71.6,59.2,30.19,SE,135,4.6,4.6,65,0.00,,,0.00,VWS V14.01,2013-06-20 12:43:00,
2013-06-20 07:44:00,71.7,59.3,30.19,SE,135,4.6,4.6,65,0.00,,,0.00,VWS V14.01,2013-06-20 12:44:00,
2013-06-20 07:45:00,71.7,59.3,30.19,SE,135,4.6,4.6,65,0.00,,,0.00,VWS V14.01,2013-06-20 12:45:00,
2013-06-20 07:46:00,71.9,59.5,30.19,ESE,112,6.2,6.2,65,0.00,,,0.00,VWS V14.01,2013-06-20 12:46:00,
2013-06-20 07:47:00,71.9,59.5,30.19,ESE,112,6.2,6.2,65,0.00,,,0.00,VWS V14.01,2013-06-20 12:47:00,
2013-06-20 07:48:00,72.5,59.6,30.19,SSE,158,0.0,6.2,64,0.00,,,0.00,VWS V14.01,2013-06-20 12:48:00,
2013-06-20 07:49:00,72.5,59.6,30.19,SSE,158,0.0,0.0,64,0.00,,,0.00,VWS V14.01,2013-06-20 12:49:00,
2013-06-20 07:50:00,72.5,59.6,30.19,SSE,158,0.0,0.0,64,0.00,,,0.00,VWS V14.01,2013-06-20 12:50:00,
2013-06-20 07:51:00,73.0,59.7,30.19,SE,135,4.4,4.4,63,0.00,,,0.00,VWS V14.01,2013-06-20 12:51:00,
2013-06-20 07:52:00,73.0,60.1,30.19,SE,135,3.8,4.4,64,0.00,,,0.00,VWS V14.01,2013-06-20 12:52:00,
2013-06-20 07:53:00,73.0,60.1,30.19,SE,135,3.8,3.8,64,0.00,,,0.00,VWS V14.01,2013-06-20 12:53:00,
2013-06-20 07:54:00,73.5,60.6,30.19,SE,135,3.1,3.8,64,0.00,,,0.00,VWS V14.01,2013-06-20 12:54:00,
2013-06-20 07:55:00,73.5,60.6,30.19,SE,135,3.1,3.1,64,0.00,,,0.00,VWS V14.01,2013-06-20 12:55:00,
2013-06-20 07:56:00,73.7,61.2,30.19,South,180,0.0,3.1,65,0.00,,,0.00,VWS V14.01,2013-06-20 12:56:00,
2013-06-20 07:57:00,73.7,61.2,30.19,South,180,0.0,0.0,65,0.00,,,0.00,VWS V14.01,2013-06-20 12:57:00,
2013-06-20 07:58:00,74.4,61.9,30.19,SE,135,0.2,0.2,65,0.00,,,0.00,VWS V14.01,2013-06-20 12:58:00,
2013-06-20 07:59:00,74.4,61.0,30.19,SE,135,0.2,0.2,63,0.00,,,0.00,VWS V14.01,2013-06-20 12:59:00,
2013-06-20 08:00:00,74.4,61.0,30.19,SE,135,0.2,0.2,63,0.00,,,0.00,VWS V14.01,2013-06-20 13:00:00,
2013-06-20 08:01:00,75.0,61.1,30.19,SE,135,1.1,1.1,62,0.00,,,0.00,VWS V14.01,2013-06-20 13:01:00,
2013-06-20 08:02:00,75.0,61.1,30.19,SE,135,1.1,1.1,62,0.00,,,0.00,VWS V14.01,2013-06-20 13:02:00,
2013-06-20 08:03:00,75.3,60.9,30.20,SE,135,0.6,1.1,61,0.00,,,0.00,VWS V14.01,2013-06-20 13:03:00,
2013-06-20 08:04:00,75.3,60.9,30.20,SE,135,0.6,0.6,61,0.00,,,0.00,VWS V14.01,2013-06-20 13:04:00,
2013-06-20 08:05:00,75.3,60.9,30.20,SE,135,0.6,0.6,61,0.00,,,0.00,VWS V14.01,2013-06-20 13:05:00,
2013-06-20 08:06:00,76.1,62.2,30.19,SE,135,0.0,0.0,62,0.00,,,0.00,VWS V14.01,2013-06-20 13:06:00,
2013-06-20 08:07:00,76.8,61.9,30.19,South,180,0.0,0.0,60,0.00,,,0.00,VWS V14.01,2013-06-20 13:07:00,
2013-06-20 08:08:00,76.8,61.9,30.19,South,180,0.0,0.0,60,0.00,,,0.00,VWS V14.01,2013-06-20 13:08:00,
2013-06-20 08:09:00,76.8,61.9,30.19,SE,135,0.0,0.0,60,0.00,,,0.00,VWS V14.01,2013-06-20 13:09:00,
2013-06-20 08:10:00,76.8,61.9,30.19,SE,135,0.0,0.0,60,0.00,,,0.00,VWS V14.01,2013-06-20 13:10:00,
2013-06-20 08:11:00,76.4,61.0,30.19,SE,135,2.6,2.6,59,0.00,,,0.00,VWS V14.01,2013-06-20 13:11:00,
2013-06-20 08:12:00,76.4,61.0,30.19,SE,135,2.6,2.6,59,0.00,,,0.00,VWS V14.01,2013-06-20 13:12:00,
2013-06-20 08:13:00,75.9,61.0,30.19,SSE,158,2.0,2.6,60,0.00,,,0.00,VWS V14.01,2013-06-20 13:13:00,
2013-06-20 08:14:00,75.9,61.0,30.19,SSE,158,2.0,2.0,60,0.00,,,0.00,VWS V14.01,2013-06-20 13:14:00,
2013-06-20 08:15:00,75.9,61.0,30.19,SSE,158,2.0,2.0,60,0.00,,,0.00,VWS V14.01,2013-06-20 13:15:00,
2013-06-20 08:16:00,75.3,60.5,30.19,SE,135,6.7,6.7,60,0.00,,,0.00,VWS V14.01,2013-06-20 13:16:00,
2013-06-20 08:17:00,75.3,60.5,30.19,SE,135,6.7,6.7,60,0.00,,,0.00,VWS V14.01,2013-06-20 13:17:00,
2013-06-20 08:18:00,75.2,60.4,30.19,South,180,0.0,6.7,60,0.00,,,0.00,VWS V14.01,2013-06-20 13:18:00,
2013-06-20 08:19:00,75.2,60.4,30.19,South,180,0.0,0.0,60,0.00,,,0.00,VWS V14.01,2013-06-20 13:19:00,
2013-06-20 08:20:00,75.2,60.4,30.19,South,180,0.0,0.0,60,0.00,,,0.00,VWS V14.01,2013-06-20 13:20:00,
2013-06-20 08:21:00,75.7,61.3,30.19,SSE,158,7.8,7.8,61,0.00,,,0.00,VWS V14.01,2013-06-20 13:21:00,
2013-06-20 08:22:00,75.0,60.2,30.19,SE,135,2.9,7.8,60,0.00,,,0.00,VWS V14.01,2013-06-20 13:22:00,
2013-06-20 08:23:00,75.0,60.2,30.19,SE,135,2.9,2.9,60,0.00,,,0.00,VWS V14.01,2013-06-20 13:23:00,
2013-06-20 08:24:00,75.2,60.8,30.19,SE,135,4.9,4.9,61,0.00,,,0.00,VWS V14.01,2013-06-20 13:24:00,
2013-06-20 08:25:00,75.2,60.8,30.19,SE,135,4.9,4.9,61,0.00,,,99.99,VWS V14.01,2013-06-20 13:25:00,
2013-06-20 08:26:00,75.3,60.9,30.19,SSE,158,0.4,4.9,61,0.00,,,0.00,VWS V14.01,2013-06-20 13:26:00,
2013-06-20 08:27:00,75.3,60.9,30.19,SSE,158,0.4,0.4,61,0.00,,,0.00,VWS V14.01,2013-06-20 13:27:00,
2013-06-20 08:28:00,75.9,61.0,30.19,SSE,158,0.2,0.4,60,0.00,,,0.00,VWS V14.01,2013-06-20 13:28:00,
2013-06-20 08:29:00,75.9,61.0,30.19,SSE,158,0.2,0.2,60,0.00,,,0.00,VWS V14.01,2013-06-20 13:29:00,
2013-06-20 08:30:00,75.9,61.0,30.19,SSE,158,0.2,0.2,60,0.00,,,0.00,VWS V14.01,2013-06-20 13:30:00,
2013-06-20 08:31:00,76.4,61.5,30.19,SE,135,1.5,1.5,60,0.00,,,0.00,VWS V14.01,2013-06-20 13:31:00,
2013-06-20 08:32:00,76.4,61.5,30.19,SE,135,1.5,1.5,60,0.00,,,0.00,VWS V14.01,2013-06-20 13:32:00,
2013-06-20 08:33:00,76.6,61.7,30.19,SE,135,7.1,7.1,60,0.00,,,0.00,VWS V14.01,2013-06-20 13:33:00,
2013-06-20 08:34:00,76.6,61.7,30.19,SE,135,7.1,7.1,60,0.00,,,0.00,VWS V14.01,2013-06-20 13:34:00,
2013-06-20 08:35:00,76.6,61.7,30.19,SE,135,7.1,7.1,60,0.00,,,0.00,VWS V14.01,2013-06-20 13:35:00,
2013-06-20 08:36:00,75.9,60.6,30.19,SSE,158,2.9,2.9,59,0.00,,,0.00,VWS V14.01,2013-06-20 13:36:00,
2013-06-20 08:37:00,75.9,60.6,30.19,SSE,158,5.8,5.8,59,0.00,,,0.00,VWS V14.01,2013-06-20 13:37:00,
2013-06-20 08:38:00,75.9,60.6,30.19,SSE,158,5.8,5.8,59,0.00,,,0.00,VWS V14.01,2013-06-20 13:38:00,
2013-06-20 08:39:00,76.6,62.2,30.20,SE,135,3.1,5.8,61,0.00,,,0.00,VWS V14.01,2013-06-20 13:39:00,
2013-06-20 08:40:00,76.6,62.2,30.20,SE,135,3.1,3.1,61,0.00,,,0.00,VWS V14.01,2013-06-20 13:40:00,
2013-06-20 08:41:00,76.8,61.9,30.20,SSW,202,0.0,3.1,60,0.00,,,0.00,VWS V14.01,2013-06-20 13:41:00,
2013-06-20 08:42:00,76.8,61.9,30.20,SSW,202,0.0,0.0,60,0.00,,,0.00,VWS V14.01,2013-06-20 13:42:00,
2013-06-20 08:43:00,77.5,62.5,30.20,SSE,158,0.0,0.0,60,0.00,,,0.00,VWS V14.01,2013-06-20 13:43:00,
2013-06-20 08:44:00,77.5,62.5,30.20,SSE,158,0.0,0.0,60,0.00,,,0.00,VWS V14.01,2013-06-20 13:44:00,
2013-06-20 08:45:00,77.5,62.5,30.20,SSE,158,0.0,0.0,60,0.00,,,0.00,VWS V14.01,2013-06-20 13:45:00,
2013-06-20 08:46:00,77.7,62.2,30.20,SE,135,2.6,2.6,59,0.00,,,0.00,VWS V14.01,2013-06-20 13:46:00,
2013-06-20 08:47:00,77.7,62.2,30.20,SE,135,2.6,2.6,59,0.00,,,0.00,VWS V14.01,2013-06-20 13:47:00,
2013-06-20 08:48:00,77.5,62.1,30.20,SE,135,0.6,2.6,59,0.00,,,0.00,VWS V14.01,2013-06-20 13:48:00,
2013-06-20 08:49:00,77.5,62.1,30.20,SE,135,0.6,0.6,59,0.00,,,0.00,VWS V14.01,2013-06-20 13:49:00,
2013-06-20 08:50:00,77.5,62.1,30.20,SE,135,0.6,0.6,59,0.00,,,0.00,VWS V14.01,2013-06-20 13:50:00,
2013-06-20 08:51:00,78.0,63.0,30.20,SSE,158,1.5,1.5,60,0.00,,,0.00,VWS V14.01,2013-06-20 13:51:00,
2013-06-20 08:52:00,78.6,63.1,30.20,SE,135,0.0,1.5,59,0.00,,,0.00,VWS V14.01,2013-06-20 13:52:00,
2013-06-20 08:53:00,78.6,63.1,30.20,SE,135,0.0,0.0,59,0.00,,,0.00,VWS V14.01,2013-06-20 13:53:00,
2013-06-20 08:54:00,79.1,63.6,30.20,SE,135,2.6,2.6,59,0.00,,,0.00,VWS V14.01,2013-06-20 13:54:00,
2013-06-20 08:55:00,79.1,63.6,30.20,SE,135,2.6,2.6,59,0.00,,,0.00,VWS V14.01,2013-06-20 13:55:00,
2013-06-20 08:56:00,79.1,62.6,30.20,SE,135,4.2,4.2,57,0.00,,,0.00,VWS V14.01,2013-06-20 13:56:00,
2013-06-20 08:57:00,79.1,62.6,30.20,SE,135,4.2,4.2,57,0.00,,,0.00,VWS V14.01,2013-06-20 13:57:00,
2013-06-20 08:58:00,78.6,62.1,30.20,SE,135,0.0,4.2,57,0.00,,,0.00,VWS V14.01,2013-06-20 13:58:00,
2013-06-20 08:59:00,78.6,62.1,30.20,SE,135,0.0,0.0,57,0.00,,,0.00,VWS V14.01,2013-06-20 13:59:00,
2013-06-20 09:00:00,78.6,62.1,30.20,SE,135,0.0,0.0,57,0.00,,,0.00,VWS V14.01,2013-06-20 14:00:00,
2013-06-20 09:01:00,79.5,63.0,30.20,SE,135,2.6,2.6,57,0.00,,,0.00,VWS V14.01,2013-06-20 14:01:00,
2013-06-20 09:02:00,79.5,63.0,30.20,SE,135,4.4,4.4,57,0.00,,,0.00,VWS V14.01,2013-06-20 14:02:00,
2013-06-20 09:03:00,79.3,62.3,30.20,SE,135,4.4,4.4,56,0.00,,,0.00,VWS V14.01,2013-06-20 14:03:00,
2013-06-20 09:04:00,79.3,62.3,30.20,SE,135,4.4,4.4,56,0.00,,,0.00,VWS V14.01,2013-06-20 14:04:00,
2013-06-20 09:05:00,79.3,62.3,30.20,SE,135,4.4,4.4,56,0.00,,,0.00,VWS V14.01,2013-06-20 14:05:00,
2013-06-20 09:06:00,78.9,62.4,30.20,SE,135,1.3,1.3,57,0.00,,,0.00,VWS V14.01,2013-06-20 14:06:00,
2013-06-20 09:07:00,79.1,62.6,30.20,ESE,112,3.1,3.1,57,0.00,,,0.00,VWS V14.01,2013-06-20 14:07:00,
2013-06-20 09:08:00,79.1,62.6,30.20,ESE,112,3.1,3.1,57,0.00,,,0.00,VWS V14.01,2013-06-20 14:08:00,
2013-06-20 09:09:00,79.3,62.8,30.20,SE,135,1.3,3.1,57,0.00,,,0.00,VWS V14.01,2013-06-20 14:09:00,
2013-06-20 09:10:00,79.3,62.8,30.20,SE,135,1.3,1.3,57,0.00,,,0.00,VWS V14.01,2013-06-20 14:10:00,
2013-06-20 09:11:00,79.3,63.3,30.20,South,180,0.0,1.3,58,0.00,,,0.00,VWS V14.01,2013-06-20 14:11:00,
2013-06-20 09:12:00,79.3,63.3,30.20,South,180,0.0,0.0,58,0.00,,,0.00,VWS V14.01,2013-06-20 14:12:00,
2013-06-20 09:13:00,80.4,63.3,30.20,SSE,158,0.0,0.0,56,0.00,,,0.00,VWS V14.01,2013-06-20 14:13:00,
2013-06-20 09:14:00,80.4,63.3,30.20,SSE,158,0.0,0.0,56,0.00,,,0.00,VWS V14.01,2013-06-20 14:14:00,
2013-06-20 09:15:00,80.4,63.3,30.20,SSE,158,0.0,0.0,56,0.00,,,0.00,VWS V14.01,2013-06-20 14:15:00,
2013-06-20 09:16:00,80.7,63.0,30.20,ESE,112,1.5,1.5,55,0.00,,,0.00,VWS V14.01,2013-06-20 14:16:00,
2013-06-20 09:17:00,80.7,63.0,30.20,ESE,112,1.5,1.5,55,0.00,,,0.00,VWS V14.01,2013-06-20 14:17:00,
2013-06-20 09:18:00,80.7,63.6,30.20,SSE,158,5.8,5.8,56,0.00,,,0.00,VWS V14.01,2013-06-20 14:18:00,
2013-06-20 09:19:00,80.7,63.6,30.20,SSE,158,5.8,5.8,56,0.00,,,0.00,VWS V14.01,2013-06-20 14:19:00,
2013-06-20 09:20:00,80.7,63.6,30.20,SSE,158,5.8,5.8,56,0.00,,,0.00,VWS V14.01,2013-06-20 14:20:00,
2013-06-20 09:21:00,80.6,63.0,30.19,SSE,158,0.0,0.0,55,0.00,,,0.00,VWS V14.01,2013-06-20 14:21:00,
2013-06-20 09:22:00,80.9,63.2,30.19,SSE,158,5.1,5.1,55,0.00,,,0.00,VWS V14.01,2013-06-20 14:22:00,
2013-06-20 09:23:00,80.9,63.2,30.19,SSE,158,5.1,5.1,55,0.00,,,0.00,VWS V14.01,2013-06-20 14:23:00,
2013-06-20 09:24:00,80.6,63.0,30.19,SE,135,2.9,5.1,55,0.00,,,0.00,VWS V14.01,2013-06-20 14:24:00,
2013-06-20 09:25:00,80.6,63.0,30.19,SE,135,2.9,2.9,55,0.00,,,0.00,VWS V14.01,2013-06-20 14:25:00,
2013-06-20 09:26:00,81.1,64.4,30.19,SSE,158,4.4,4.4,57,0.00,,,0.00,VWS V14.01,2013-06-20 14:26:00,
2013-06-20 09:27:00,81.1,64.4,30.19,SSE,158,4.4,4.4,57,0.00,,,0.00,VWS V14.01,2013-06-20 14:27:00,
2013-06-20 09:28:00,81.3,64.1,30.20,SSE,158,5.1,5.1,56,0.00,,,0.00,VWS V14.01,2013-06-20 14:28:00,
2013-06-20 09:29:00,81.3,64.1,30.20,SSE,158,5.1,5.1,56,0.00,,,0.00,VWS V14.01,2013-06-20 14:29:00,
2013-06-20 09:30:00,81.3,64.1,30.20,SSE,158,5.1,5.1,56,0.00,,,0.00,VWS V14.01,2013-06-20 14:30:00,
2013-06-20 09:31:00,81.6,63.4,30.19,SE,135,3.5,3.5,54,0.00,,,0.00,VWS V14.01,2013-06-20 14:31:00,
2013-06-20 09:32:00,81.6,63.4,30.19,SE,135,3.5,3.5,54,0.00,,,0.00,VWS V14.01,2013-06-20 14:32:00,
2013-06-20 09:33:00,81.6,63.4,30.19,SE,135,4.0,4.0,54,0.00,,,0.00,VWS V14.01,2013-06-20 14:33:00,
2013-06-20 09:34:00,81.6,63.4,30.19,SE,135,4.0,4.0,54,0.00,,,0.00,VWS V14.01,2013-06-20 14:34:00,
2013-06-20 09:35:00,81.6,63.4,30.19,SE,135,4.0,4.0,54,0.00,,,0.00,VWS V14.01,2013-06-20 14:35:00,
2013-06-20 09:36:00,81.5,63.3,30.19,ESE,112,5.3,5.3,54,0.00,,,0.00,VWS V14.01,2013-06-20 14:36:00,
2013-06-20 09:37:00,81.3,63.1,30.19,SE,135,0.8,5.3,54,0.00,,,0.00,VWS V14.01,2013-06-20 14:37:00,
2013-06-20 09:38:00,81.3,63.1,30.19,SE,135,0.8,0.8,54,0.00,,,0.00,VWS V14.01,2013-06-20 14:38:00,
2013-06-20 09:39:00,81.3,63.1,30.19,SE,135,0.0,0.8,54,0.00,,,0.00,VWS V14.01,2013-06-20 14:39:00,
2013-06-20 09:40:00,81.3,63.1,30.19,SE,135,0.0,0.0,54,0.00,,,0.00,VWS V14.01,2013-06-20 14:40:00,
2013-06-20 09:41:00,81.3,63.6,30.19,SSE,158,3.1,3.1,55,0.00,,,0.00,VWS V14.01,2013-06-20 14:41:00,
2013-06-20 09:42:00,81.3,63.6,30.19,SSE,158,3.1,3.1,55,0.00,,,0.00,VWS V14.01,2013-06-20 14:42:00,
2013-06-20 09:43:00,81.1,62.4,30.19,SE,135,3.5,3.5,53,0.00,,,0.00,VWS V14.01,2013-06-20 14:43:00,
2013-06-20 09:44:00,81.1,62.4,30.19,SE,135,3.5,3.5,53,0.00,,,0.00,VWS V14.01,2013-06-20 14:44:00,
2013-06-20 09:45:00,81.1,62.4,30.19,SE,135,3.5,3.5,53,0.00,,,0.00,VWS V14.01,2013-06-20 14:45:00,
2013-06-20 09:46:00,81.3,63.1,30.19,SE,135,5.3,5.3,54,0.00,,,0.00,VWS V14.01,2013-06-20 14:46:00,
2013-06-20 09:47:00,81.3,62.5,30.19,SSE,158,0.2,5.3,53,0.00,,,0.00,VWS V14.01,2013-06-20 14:47:00,
2013-06-20 09:48:00,81.3,62.5,30.19,SSE,158,0.2,0.2,53,0.00,,,0.00,VWS V14.01,2013-06-20 14:48:00,
2013-06-20 09:49:00,81.3,62.5,30.19,SSE,158,0.2,0.2,53,0.00,,,0.00,VWS V14.01,2013-06-20 14:49:00,
2013-06-20 09:50:00,81.3,62.5,30.19,SSE,158,0.2,0.2,53,0.00,,,0.00,VWS V14.01,2013-06-20 14:50:00,
2013-06-20 09:51:00,81.3,62.5,30.19,SE,135,4.9,4.9,53,0.00,,,0.00,VWS V14.01,2013-06-20 14:51:00,
2013-06-20 09:52:00,81.3,62.0,30.19,SE,135,5.1,5.1,52,0.00,,,0.00,VWS V14.01,2013-06-20 14:52:00,
2013-06-20 09:53:00,81.3,62.0,30.19,SE,135,5.1,5.1,52,0.00,,,0.00,VWS V14.01,2013-06-20 14:53:00,
2013-06-20 09:54:00,81.1,62.4,30.19,SE,135,1.7,5.1,53,0.00,,,0.00,VWS V14.01,2013-06-20 14:54:00,
2013-06-20 09:55:00,81.1,62.4,30.19,SE,135,1.7,1.7,53,0.00,,,0.00,VWS V14.01,2013-06-20 14:55:00,
2013-06-20 09:57:00,81.1,62.4,30.19,East,90,6.4,6.4,53,0.00,,,0.00,VWS V14.01,2013-06-20 14:57:00,
2013-06-20 09:58:00,81.3,62.0,30.19,SE,135,6.0,6.4,52,0.00,,,0.00,VWS V14.01,2013-06-20 14:58:00,
2013-06-20 09:59:00,81.3,62.0,30.19,SE,135,6.0,6.0,52,0.00,,,0.00,VWS V14.01,2013-06-20 14:59:00,
2013-06-20 10:00:00,81.3,62.0,30.19,SE,135,6.0,6.0,52,0.00,,,0.00,VWS V14.01,2013-06-20 15:00:00,
2013-06-20 10:01:00,81.3,62.0,30.19,SE,135,5.8,5.8,52,0.00,,,0.00,VWS V14.01,2013-06-20 15:01:00,
2013-06-20 10:02:00,81.3,62.0,30.19,SE,135,7.6,7.6,52,0.00,,,0.00,VWS V14.01,2013-06-20 15:02:00,
2013-06-20 10:03:00,81.8,62.5,30.19,SE,135,7.6,7.6,52,0.00,,,0.00,VWS V14.01,2013-06-20 15:03:00,
2013-06-20 10:04:00,81.8,62.5,30.19,SE,135,7.6,7.6,52,0.00,,,0.00,VWS V14.01,2013-06-20 15:04:00,
2013-06-20 10:05:00,81.8,62.5,30.19,SE,135,7.6,7.6,52,0.00,,,0.00,VWS V14.01,2013-06-20 15:05:00,
2013-06-20 10:06:00,81.8,61.9,30.19,SSE,158,0.0,0.0,51,0.00,,,0.00,VWS V14.01,2013-06-20 15:06:00,
2013-06-20 10:07:00,82.2,63.4,30.19,SE,135,4.4,4.4,53,0.00,,,0.00,VWS V14.01,2013-06-20 15:07:00,
2013-06-20 10:08:00,82.2,63.4,30.19,SE,135,4.4,4.4,53,0.00,,,0.00,VWS V14.01,2013-06-20 15:08:00,
2013-06-20 10:09:00,83.1,62.5,30.19,SE,135,0.6,4.4,50,0.00,,,0.00,VWS V14.01,2013-06-20 15:09:00,
2013-06-20 10:10:00,83.1,62.5,30.19,SE,135,0.6,0.6,50,0.00,,,0.00,VWS V14.01,2013-06-20 15:10:00,
2013-06-20 10:11:00,83.3,62.7,30.19,SSW,202,4.2,4.2,50,0.00,,,0.00,VWS V14.01,2013-06-20 15:11:00,
2013-06-20 10:12:00,83.3,62.7,30.19,SSW,202,4.2,4.2,50,0.00,,,0.00,VWS V14.01,2013-06-20 15:12:00,
2013-06-20 10:13:00,83.4,61.7,30.19,SSE,158,6.9,6.9,48,0.00,,,0.00,VWS V14.01,2013-06-20 15:13:00,
2013-06-20 10:14:00,83.4,61.7,30.19,SSE,158,6.9,6.9,48,0.00,,,0.00,VWS V14.01,2013-06-20 15:14:00,
2013-06-20 10:15:00,83.4,61.7,30.19,SSE,158,6.9,6.9,48,0.00,,,0.00,VWS V14.01,2013-06-20 15:15:00,
2013-06-20 10:16:00,83.4,61.7,30.19,South,180,9.6,9.6,48,0.00,,,0.00,VWS V14.01,2013-06-20 15:16:00,
2013-06-20 10:18:00,83.4,61.7,30.19,SSE,158,0.0,0.0,48,0.00,,,0.00,VWS V14.01,2013-06-20 15:18:00,
2013-06-20 10:19:00,83.4,61.7,30.19,SSE,158,0.0,0.0,48,0.00,,,0.00,VWS V14.01,2013-06-20 15:19:00,
2013-06-20 10:20:00,83.4,61.7,30.19,SSE,158,0.0,0.0,48,0.00,,,0.00,VWS V14.01,2013-06-20 15:20:00,
2013-06-20 10:21:00,83.4,62.3,30.19,SE,135,2.2,2.2,49,0.00,,,0.00,VWS V14.01,2013-06-20 15:21:00,
2013-06-20 10:22:00,82.9,61.8,30.19,SE,135,6.4,6.4,49,0.00,,,0.00,VWS V14.01,2013-06-20 15:22:00,
2013-06-20 10:23:00,82.9,61.8,30.19,SE,135,6.4,6.4,49,0.00,,,0.00,VWS V14.01,2013-06-20 15:23:00,
2013-06-20 10:24:00,83.3,62.2,30.19,South,180,0.0,6.4,49,0.00,,,0.00,VWS V14.01,2013-06-20 15:24:00,
2013-06-20 10:25:00,83.3,62.2,30.19,South,180,0.0,0.0,49,0.00,,,0.00,VWS V14.01,2013-06-20 15:25:00,
2013-06-20 10:26:00,84.3,62.5,30.19,SSE,158,6.0,6.0,48,0.00,,,0.00,VWS V14.01,2013-06-20 15:26:00,
2013-06-20 10:27:00,84.3,62.5,30.19,SSE,158,6.0,6.0,48,0.00,,,0.00,VWS V14.01,2013-06-20 15:27:00,
2013-06-20 10:28:00,84.3,63.1,30.19,ESE,112,3.5,6.0,49,0.00,,,0.00,VWS V14.01,2013-06-20 15:28:00,
2013-06-20 10:29:00,84.3,63.1,30.19,ESE,112,3.5,3.5,49,0.00,,,0.00,VWS V14.01,2013-06-20 15:29:00,
2013-06-20 10:30:00,84.3,63.1,30.19,ESE,112,3.5,3.5,49,0.00,,,0.00,VWS V14.01,2013-06-20 15:30:00,
2013-06-20 10:31:00,84.7,62.9,30.19,SSE,158,0.4,0.4,48,0.00,,,0.00,VWS V14.01,2013-06-20 15:31:00,
2013-06-20 10:32:00,84.7,62.9,30.19,South,180,3.8,3.8,48,0.00,,,0.00,VWS V14.01,2013-06-20 15:32:00,
2013-06-20 10:33:00,84.9,62.4,30.19,South,180,3.8,3.8,47,0.00,,,0.00,VWS V14.01,2013-06-20 15:33:00,
2013-06-20 10:34:00,84.9,62.4,30.19,South,180,3.8,3.8,47,0.00,,,0.00,VWS V14.01,2013-06-20 15:34:00,
2013-06-20 10:35:00,84.9,62.4,30.19,South,180,3.8,3.8,47,0.00,,,0.00,VWS V14.01,2013-06-20 15:35:00,
2013-06-20 10:36:00,85.1,62.6,30.19,SSE,158,0.0,0.0,47,0.00,,,0.00,VWS V14.01,2013-06-20 15:36:00,
2013-06-20 10:37:00,85.2,62.7,30.19,SSW,202,5.1,5.1,47,0.00,,,0.00,VWS V14.01,2013-06-20 15:37:00,
2013-06-20 10:38:00,85.2,62.7,30.19,SSW,202,5.1,5.1,47,0.00,,,0.00,VWS V14.01,2013-06-20 15:38:00,
2013-06-20 10:39:00,84.9,62.4,30.20,SSW,202,4.4,5.1,47,0.00,,,0.00,VWS V14.01,2013-06-20 15:39:00,
2013-06-20 10:40:00,84.9,62.4,30.20,SSW,202,4.4,4.4,47,0.00,,,0.00,VWS V14.01,2013-06-20 15:40:00,
2013-06-20 10:41:00,84.9,62.4,30.19,SSW,202,10.2,10.2,47,0.00,,,0.00,VWS V14.01,2013-06-20 15:41:00,
2013-06-20 10:42:00,84.9,62.4,30.19,SSW,202,10.2,10.2,47,0.00,,,0.00,VWS V14.01,2013-06-20 15:42:00,
2013-06-20 10:43:00,84.7,61.7,30.19,SSW,202,6.4,10.2,46,0.00,,,0.00,VWS V14.01,2013-06-20 15:43:00,
2013-06-20 10:44:00,84.7,61.7,30.20,SSW,202,6.4,6.4,46,0.00,,,0.00,VWS V14.01,2013-06-20 15:44:00,
2013-06-20 10:45:00,84.7,61.7,30.20,SSW,202,6.4,6.4,46,0.00,,,0.00,VWS V14.01,2013-06-20 15:45:00,
2013-06-20 10:46:00,84.7,61.7,30.19,SW,225,6.7,6.7,46,0.00,,,0.00,VWS V14.01,2013-06-20 15:46:00,
2013-06-20 10:47:00,84.7,62.3,30.19,SE,135,1.3,6.7,47,0.00,,,0.00,VWS V14.01,2013-06-20 15:47:00,
2013-06-20 10:48:00,84.7,62.3,30.19,SE,135,1.3,1.3,47,0.00,,,0.00,VWS V14.01,2013-06-20 15:48:00,
2013-06-20 10:49:00,84.7,62.3,30.19,SE,135,1.3,1.3,47,0.00,,,0.00,VWS V14.01,2013-06-20 15:49:00,
2013-06-20 10:50:00,84.7,62.3,30.19,SE,135,1.3,1.3,47,0.00,,,0.00,VWS V14.01,2013-06-20 15:50:00,
2013-06-20 10:51:00,84.9,61.2,30.19,SSW,202,5.5,5.5,45,0.00,,,0.00,VWS V14.01,2013-06-20 15:51:00,
2013-06-20 10:52:00,84.7,61.7,30.19,SSW,202,6.0,6.0,46,0.00,,,0.00,VWS V14.01,2013-06-20 15:52:00,
2013-06-20 10:53:00,84.7,61.7,30.19,SSW,202,6.0,6.0,46,0.00,,,0.00,VWS V14.01,2013-06-20 15:53:00,
2013-06-20 10:54:00,84.5,61.5,30.19,South,180,8.7,8.7,46,0.00,,,0.00,VWS V14.01,2013-06-20 15:54:00,
2013-06-20 10:55:00,84.5,61.5,30.19,South,180,8.7,8.7,46,0.00,,,0.00,VWS V14.01,2013-06-20 15:55:00,
2013-06-20 10:56:00,84.7,61.7,30.19,South,180,2.6,8.7,46,0.00,,,0.00,VWS V14.01,2013-06-20 15:56:00,
2013-06-20 10:57:00,84.7,61.7,30.19,South,180,2.6,2.6,46,0.00,,,0.00,VWS V14.01,2013-06-20 15:57:00,
2013-06-20 10:58:00,85.1,62.6,30.19,South,180,4.4,4.4,47,0.00,,,0.00,VWS V14.01,2013-06-20 15:58:00,
2013-06-20 10:59:00,85.1,62.6,30.19,South,180,4.4,4.4,47,0.00,,,0.00,VWS V14.01,2013-06-20 15:59:00,
2013-06-20 11:00:00,85.1,62.6,30.19,South,180,4.4,4.4,47,0.00,,,0.00,VWS V14.01,2013-06-20 16:00:00,
2013-06-20 11:01:00,85.2,62.1,30.19,SSE,158,2.4,2.4,46,0.00,,,0.00,VWS V14.01,2013-06-20 16:01:00,
2013-06-20 11:02:00,85.4,62.9,30.19,SSE,158,2.4,2.4,47,0.00,,,0.00,VWS V14.01,2013-06-20 16:02:00,
2013-06-20 11:03:00,85.4,62.9,30.19,ESE,112,0.2,2.4,47,0.00,,,0.00,VWS V14.01,2013-06-20 16:03:00,
2013-06-20 11:04:00,85.4,62.9,30.19,SSW,202,2.4,2.4,47,0.00,,,0.00,VWS V14.01,2013-06-20 16:04:00,
2013-06-20 11:05:00,85.4,62.9,30.19,SSW,202,2.4,2.4,47,0.00,,,0.00,VWS V14.01,2013-06-20 16:05:00,
2013-06-20 11:06:00,85.6,62.5,30.19,SSW,202,2.4,2.4,46,0.00,,,0.00,VWS V14.01,2013-06-20 16:06:00,
2013-06-20 11:07:00,86.0,62.8,30.19,SSW,202,3.8,3.8,46,0.00,,,0.00,VWS V14.01,2013-06-20 16:07:00,
2013-06-20 11:08:00,86.0,62.8,30.18,SSW,202,3.8,3.8,46,0.00,,,0.00,VWS V14.01,2013-06-20 16:08:00,
2013-06-20 11:09:00,86.3,62.5,30.19,South,180,7.8,7.8,45,0.00,,,0.00,VWS V14.01,2013-06-20 16:09:00,
2013-06-20 11:10:00,86.3,62.5,30.19,South,180,7.8,7.8,45,0.00,,,0.00,VWS V14.01,2013-06-20 16:10:00,
2013-06-20 11:11:00,85.8,62.0,30.19,SSW,202,2.4,7.8,45,0.00,,,0.00,VWS V14.01,2013-06-20 16:11:00,
2013-06-20 11:12:00,85.8,62.0,30.19,SSW,202,2.4,2.4,45,0.00,,,0.00,VWS V14.01,2013-06-20 16:12:00,
2013-06-20 11:13:00,85.8,62.0,30.19,SE,135,3.8,3.8,45,0.00,,,0.00,VWS V14.01,2013-06-20 16:13:00,
2013-06-20 11:14:00,85.8,62.0,30.19,SE,135,3.8,3.8,45,0.00,,,0.00,VWS V14.01,2013-06-20 16:14:00,
2013-06-20 11:15:00,85.8,62.0,30.19,SE,135,3.8,3.8,45,0.00,,,0.00,VWS V14.01,2013-06-20 16:15:00,
2013-06-20 11:16:00,85.8,62.0,30.19,SSW,202,0.0,0.0,45,0.00,,,0.00,VWS V14.01,2013-06-20 16:16:00,
2013-06-20 11:17:00,85.8,62.7,30.18,SSE,158,6.0,6.0,46,0.00,,,0.00,VWS V14.01,2013-06-20 16:17:00,
2013-06-20 11:18:00,85.6,62.5,30.18,SSE,158,6.0,6.0,46,0.00,,,0.00,VWS V14.01,2013-06-20 16:18:00,
2013-06-20 11:19:00,85.6,62.5,30.19,SSE,158,6.0,6.0,46,0.00,,,0.00,VWS V14.01,2013-06-20 16:19:00,
2013-06-20 11:20:00,85.6,62.5,30.19,SSE,158,6.0,6.0,46,0.00,,,0.00,VWS V14.01,2013-06-20 16:20:00,
2013-06-20 11:21:00,85.2,62.7,30.18,SE,135,8.0,8.0,47,0.00,,,0.00,VWS V14.01,2013-06-20 16:21:00,
2013-06-20 11:22:00,85.1,62.0,30.18,SE,135,0.0,8.0,46,0.00,,,0.00,VWS V14.01,2013-06-20 16:22:00,
2013-06-20 11:23:00,85.1,62.0,30.19,SE,135,0.0,0.0,46,0.00,,,0.00,VWS V14.01,2013-06-20 16:23:00,
2013-06-20 11:24:00,85.6,62.5,30.19,SSW,202,8.9,8.9,46,0.00,,,0.00,VWS V14.01,2013-06-20 16:24:00,
2013-06-20 11:25:00,85.6,62.5,30.19,SSW,202,8.9,8.9,46,0.00,,,0.00,VWS V14.01,2013-06-20 16:25:00,
2013-06-20 11:26:00,85.8,62.0,30.19,SSW,202,10.9,10.9,45,0.00,,,0.00,VWS V14.01,2013-06-20 16:26:00,
2013-06-20 11:27:00,85.8,62.0,30.19,SSW,202,10.9,10.9,45,0.00,,,0.00,VWS V14.01,2013-06-20 16:27:00,
2013-06-20 11:28:00,85.6,62.5,30.19,SSW,202,3.5,10.9,46,0.00,,,0.00,VWS V14.01,2013-06-20 16:28:00,
2013-06-20 11:29:00,85.6,62.5,30.19,SSW,202,3.5,3.5,46,0.00,,,0.00,VWS V14.01,2013-06-20 16:29:00,
2013-06-20 11:30:00,85.6,62.5,30.19,SSW,202,3.5,3.5,46,0.00,,,0.00,VWS V14.01,2013-06-20 16:30:00,
2013-06-20 11:31:00,85.8,61.4,30.18,South,180,6.2,6.2,44,0.00,,,0.00,VWS V14.01,2013-06-20 16:31:00,
2013-06-20 11:32:00,85.8,61.4,30.18,SSW,202,7.6,7.6,44,0.00,,,0.00,VWS V14.01,2013-06-20 16:32:00,
2013-06-20 11:33:00,85.8,61.4,30.18,SSW,202,7.6,7.6,44,0.00,,,0.00,VWS V14.01,2013-06-20 16:33:00,
2013-06-20 11:34:00,85.8,60.7,30.19,SSW,202,7.6,7.6,43,0.00,,,0.00,VWS V14.01,2013-06-20 16:34:00,
2013-06-20 11:35:00,85.8,60.7,30.19,SSW,202,7.6,7.6,43,0.00,,,99.99,VWS V14.01,2013-06-20 16:35:00,
2013-06-20 11:36:00,85.8,60.7,30.19,SSW,202,6.4,6.4,43,0.00,,,0.00,VWS V14.01,2013-06-20 16:36:00,
2013-06-20 11:37:00,85.8,60.7,30.19,SW,225,2.9,6.4,43,0.00,,,0.00,VWS V14.01,2013-06-20 16:37:00,
2013-06-20 11:38:00,85.8,60.7,30.19,SW,225,2.9,2.9,43,0.00,,,0.00,VWS V14.01,2013-06-20 16:38:00,
2013-06-20 11:39:00,85.8,61.4,30.19,SSW,202,6.9,6.9,44,0.00,,,0.00,VWS V14.01,2013-06-20 16:39:00,
2013-06-20 11:40:00,85.8,61.4,30.19,SSW,202,6.9,6.9,44,0.00,,,0.00,VWS V14.01,2013-06-20 16:40:00,
2013-06-20 11:41:00,85.8,62.0,30.19,SSW,202,6.4,6.9,45,0.00,,,0.00,VWS V14.01,2013-06-20 16:41:00,
2013-06-20 11:42:00,85.8,62.0,30.19,SSW,202,6.4,6.4,45,0.00,,,0.00,VWS V14.01,2013-06-20 16:42:00,
2013-06-20 11:43:00,86.0,60.9,30.19,SSW,202,5.3,6.4,43,0.00,,,0.00,VWS V14.01,2013-06-20 16:43:00,
2013-06-20 11:44:00,86.0,60.9,30.18,SSW,202,5.3,5.3,43,0.00,,,0.00,VWS V14.01,2013-06-20 16:44:00,
2013-06-20 11:45:00,86.0,60.9,30.18,SSW,202,5.3,5.3,43,0.00,,,0.00,VWS V14.01,2013-06-20 16:45:00,
2013-06-20 11:46:00,86.1,61.0,30.18,SSE,158,1.5,1.5,43,0.00,,,0.00,VWS V14.01,2013-06-20 16:46:00,
2013-06-20 11:47:00,86.1,61.0,30.18,SSE,158,6.0,6.0,43,0.00,,,0.00,VWS V14.01,2013-06-20 16:47:00,
2013-06-20 11:48:00,86.1,61.7,30.18,SSE,158,6.0,6.0,44,0.00,,,0.00,VWS V14.01,2013-06-20 16:48:00,
2013-06-20 11:49:00,86.1,61.7,30.18,SE,135,0.0,6.0,44,0.00,,,0.00,VWS V14.01,2013-06-20 16:49:00,
2013-06-20 11:50:00,86.1,61.7,30.18,SE,135,0.0,0.0,44,0.00,,,0.00,VWS V14.01,2013-06-20 16:50:00,
2013-06-20 11:51:00,85.8,60.7,30.18,SE,135,0.0,0.0,43,0.00,,,0.00,VWS V14.01,2013-06-20 16:51:00,
2013-06-20 11:52:00,85.8,61.4,30.18,SE,135,0.0,0.0,44,0.00,,,0.00,VWS V14.01,2013-06-20 16:52:00,
2013-06-20 11:53:00,85.8,61.4,30.18,SE,135,0.0,0.0,44,0.00,,,0.00,VWS V14.01,2013-06-20 16:53:00,
2013-06-20 11:54:00,85.6,61.8,30.18,SE,135,8.0,8.0,45,0.00,,,0.00,VWS V14.01,2013-06-20 16:54:00,
2013-06-20 11:55:00,85.6,61.8,30.18,SE,135,8.0,8.0,45,0.00,,,0.00,VWS V14.01,2013-06-20 16:55:00,
2013-06-20 11:56:00,85.6,62.5,30.18,SE,135,5.3,8.0,46,0.00,,,0.00,VWS V14.01,2013-06-20 16:56:00,
2013-06-20 11:57:00,85.6,62.5,30.18,SE,135,5.3,5.3,46,0.00,,,0.00,VWS V14.01,2013-06-20 16:57:00,
2013-06-20 11:58:00,85.8,62.0,30.18,SSE,158,6.4,6.4,45,0.00,,,0.00,VWS V14.01,2013-06-20 16:58:00,
2013-06-20 11:59:00,85.8,62.0,30.18,SSE,158,6.4,6.4,45,0.00,,,0.00,VWS V14.01,2013-06-20 16:59:00,
2013-06-20 12:00:00,85.8,62.0,30.18,SSE,158,6.4,6.4,45,0.00,,,0.00,VWS V14.01,2013-06-20 17:00:00,
2013-06-20 12:01:00,85.6,61.8,30.18,South,180,0.0,0.0,45,0.00,,,0.00,VWS V14.01,2013-06-20 17:01:00,
2013-06-20 12:02:00,86.1,61.0,30.18,SE,135,1.3,1.3,43,0.00,,,0.00,VWS V14.01,2013-06-20 17:02:00,
2013-06-20 12:03:00,86.1,61.0,30.18,SE,135,1.3,1.3,43,0.00,,,0.00,VWS V14.01,2013-06-20 17:03:00,
2013-06-20 12:04:00,85.6,60.6,30.18,ESE,112,4.4,4.4,43,0.00,,,0.00,VWS V14.01,2013-06-20 17:04:00,
2013-06-20 12:05:00,85.6,60.6,30.18,ESE,112,4.4,4.4,43,0.00,,,0.00,VWS V14.01,2013-06-20 17:05:00,
2013-06-20 12:06:00,85.6,60.6,30.18,ESE,112,4.4,4.4,43,0.00,,,0.00,VWS V14.01,2013-06-20 17:06:00,
2013-06-20 12:07:00,85.6,61.8,30.18,SE,135,0.6,4.4,45,0.00,,,0.00,VWS V14.01,2013-06-20 17:07:00,
2013-06-20 12:08:00,85.6,61.8,30.18,SE,135,0.6,0.6,45,0.00,,,0.00,VWS V14.01,2013-06-20 17:08:00,
2013-06-20 12:09:00,85.8,62.0,30.18,SE,135,0.0,0.6,45,0.00,,,0.00,VWS V14.01,2013-06-20 17:09:00,
2013-06-20 12:10:00,85.8,62.0,30.18,SE,135,0.0,0.0,45,0.00,,,0.00,VWS V14.01,2013-06-20 17:10:00,
2013-06-20 12:11:00,86.1,62.3,30.18,SSE,158,5.8,5.8,45,0.00,,,0.00,VWS V14.01,2013-06-20 17:11:00,
2013-06-20 12:12:00,86.1,62.3,30.18,SSE,158,5.8,5.8,45,0.00,,,0.00,VWS V14.01,2013-06-20 17:12:00,
2013-06-20 12:13:00,85.8,62.7,30.18,SSE,158,6.4,6.4,46,0.00,,,0.00,VWS V14.01,2013-06-20 17:13:00,
2013-06-20 12:14:00,85.8,62.7,30.18,SSE,158,6.4,6.4,46,0.00,,,0.00,VWS V14.01,2013-06-20 17:14:00,
2013-06-20 12:15:00,85.8,62.7,30.18,SSE,158,6.4,6.4,46,0.00,,,0.00,VWS V14.01,2013-06-20 17:15:00,
2013-06-20 12:16:00,86.1,61.7,30.18,SE,135,5.5,5.5,44,0.00,,,0.00,VWS V14.01,2013-06-20 17:16:00,
2013-06-20 12:17:00,85.8,62.7,30.18,SE,135,6.4,6.4,46,0.00,,,0.00,VWS V14.01,2013-06-20 17:17:00,
2013-06-20 12:18:00,85.8,62.7,30.18,SE,135,6.4,6.4,46,0.00,,,0.00,VWS V14.01,2013-06-20 17:18:00,
2013-06-20 12:19:00,85.8,62.7,30.18,SE,135,6.0,6.4,46,0.00,,,0.00,VWS V14.01,2013-06-20 17:19:00,
2013-06-20 12:20:00,85.8,62.7,30.18,SE,135,6.0,6.0,46,0.00,,,0.00,VWS V14.01,2013-06-20 17:20:00,
2013-06-20 12:21:00,85.8,62.7,30.18,SE,135,6.0,6.0,46,0.00,,,0.00,VWS V14.01,2013-06-20 17:21:00,
2013-06-20 12:22:00,86.1,61.7,30.18,South,180,2.6,6.0,44,0.00,,,0.00,VWS V14.01,2013-06-20 17:22:00,
2013-06-20 12:23:00,86.1,61.7,30.18,South,180,2.6,2.6,44,0.00,,,0.00,VWS V14.01,2013-06-20 17:23:00,
2013-06-20 12:24:00,86.5,62.0,30.18,ESE,112,0.0,2.6,44,0.00,,,0.00,VWS V14.01,2013-06-20 17:24:00,
2013-06-20 12:25:00,86.5,62.0,30.18,ESE,112,0.0,0.0,44,0.00,,,0.00,VWS V14.01,2013-06-20 17:25:00,
2013-06-20 12:26:00,86.3,61.2,30.18,SE,135,13.1,13.1,43,0.00,,,0.00,VWS V14.01,2013-06-20 17:26:00,
2013-06-20 12:27:00,86.3,61.2,30.18,SE,135,13.1,13.1,43,0.00,,,0.00,VWS V14.01,2013-06-20 17:27:00,
2013-06-20 12:28:00,85.8,61.4,30.18,SE,135,6.4,13.1,44,0.00,,,0.00,VWS V14.01,2013-06-20 17:28:00,
2013-06-20 12:29:00,85.8,61.4,30.18,SE,135,6.4,6.4,44,0.00,,,0.00,VWS V14.01,2013-06-20 17:29:00,
2013-06-20 12:30:00,85.8,61.4,30.18,SE,135,6.4,6.4,44,0.00,,,0.00,VWS V14.01,2013-06-20 17:30:00,
2013-06-20 12:31:00,85.8,60.7,30.18,South,180,5.5,5.5,43,0.00,,,0.00,VWS V14.01,2013-06-20 17:31:00,
2013-06-20 12:32:00,85.8,60.1,30.18,SE,135,14.5,14.5,42,0.00,,,0.00,VWS V14.01,2013-06-20 17:32:00,
2013-06-20 12:33:00,85.8,60.1,30.18,SE,135,14.5,14.5,42,0.00,,,0.00,VWS V14.01,2013-06-20 17:33:00,
2013-06-20 12:34:00,85.8,60.1,30.18,South,180,3.1,14.5,42,0.00,,,0.00,VWS V14.01,2013-06-20 17:34:00,
2013-06-20 12:35:00,85.8,60.1,30.18,South,180,3.1,3.1,42,0.00,,,0.00,VWS V14.01,2013-06-20 17:35:00,
2013-06-20 12:36:00,85.8,60.7,30.18,South,180,3.1,3.1,43,0.00,,,0.00,VWS V14.01,2013-06-20 17:36:00,
2013-06-20 12:37:00,85.8,62.0,30.17,SSE,158,11.1,11.1,45,0.00,,,0.00,VWS V14.01,2013-06-20 17:37:00,
2013-06-20 12:38:00,85.8,62.0,30.17,SSE,158,11.1,11.1,45,0.00,,,0.00,VWS V14.01,2013-06-20 17:38:00,
2013-06-20 12:39:00,86.0,61.6,30.18,SE,135,6.4,11.1,44,0.00,,,0.00,VWS V14.01,2013-06-20 17:39:00,
2013-06-20 12:40:00,86.0,61.6,30.18,SE,135,6.4,6.4,44,0.00,,,0.00,VWS V14.01,2013-06-20 17:40:00,
2013-06-20 12:41:00,85.8,60.7,30.17,SSE,158,4.6,6.4,43,0.00,,,0.00,VWS V14.01,2013-06-20 17:41:00,
2013-06-20 12:42:00,85.8,60.7,30.17,SSE,158,4.6,4.6,43,0.00,,,0.00,VWS V14.01,2013-06-20 17:42:00,
2013-06-20 12:43:00,86.1,60.3,30.18,SSW,202,6.7,6.7,42,0.00,,,0.00,VWS V14.01,2013-06-20 17:43:00,
2013-06-20 12:44:00,86.1,60.3,30.17,SSW,202,6.7,6.7,42,0.00,,,0.00,VWS V14.01,2013-06-20 17:44:00,
2013-06-20 12:45:00,86.1,60.3,30.17,SSW,202,6.7,6.7,42,0.00,,,0.00,VWS V14.01,2013-06-20 17:45:00,
2013-06-20 12:46:00,86.5,60.0,30.17,SSW,202,4.0,4.0,41,0.00,,,0.00,VWS V14.01,2013-06-20 17:46:00,
2013-06-20 12:47:00,86.7,61.5,30.17,SE,135,5.1,5.1,43,0.00,,,0.00,VWS V14.01,2013-06-20 17:47:00,
2013-06-20 12:48:00,86.7,61.5,30.17,SE,135,5.1,5.1,43,0.00,,,0.00,VWS V14.01,2013-06-20 17:48:00,
2013-06-20 12:49:00,86.7,61.5,30.17,SE,135,5.1,5.1,43,0.00,,,0.00,VWS V14.01,2013-06-20 17:49:00,
2013-06-20 12:50:00,86.7,61.5,30.17,SE,135,5.1,5.1,43,0.00,,,0.00,VWS V14.01,2013-06-20 17:50:00,
2013-06-20 12:51:00,86.7,60.9,30.17,SE,135,5.1,5.1,42,0.00,,,0.00,VWS V14.01,2013-06-20 17:51:00,
2013-06-20 12:52:00,86.5,60.7,30.17,SE,135,0.0,5.1,42,0.00,,,0.00,VWS V14.01,2013-06-20 17:52:00,
2013-06-20 12:53:00,86.5,60.7,30.17,SE,135,0.0,0.0,42,0.00,,,0.00,VWS V14.01,2013-06-20 17:53:00,
2013-06-20 12:54:00,86.7,60.9,30.17,SE,135,0.0,0.0,42,0.00,,,0.00,VWS V14.01,2013-06-20 17:54:00,
2013-06-20 12:55:00,86.7,60.9,30.17,SE,135,0.0,0.0,42,0.00,,,0.00,VWS V14.01,2013-06-20 17:55:00,
2013-06-20 12:56:00,86.9,61.1,30.17,SSE,158,8.5,8.5,42,0.00,,,0.00,VWS V14.01,2013-06-20 17:56:00,
2013-06-20 12:57:00,86.9,61.1,30.17,SSE,158,8.5,8.5,42,0.00,,,0.00,VWS V14.01,2013-06-20 17:57:00,
2013-06-20 12:58:00,86.3,59.8,30.17,SE,135,6.0,8.5,41,0.00,,,0.00,VWS V14.01,2013-06-20 17:58:00,
2013-06-20 12:59:00,86.3,59.8,30.17,SE,135,6.0,6.0,41,0.00,,,0.00,VWS V14.01,2013-06-20 17:59:00,
2013-06-20 13:00:00,86.3,59.8,30.17,SE,135,6.0,6.0,41,0.00,,,0.00,VWS V14.01,2013-06-20 18:00:00,
2013-06-20 13:01:00,86.7,61.5,30.16,NW,315,1.1,1.1,43,0.00,,,0.00,VWS V14.01,2013-06-20 18:01:00,
2013-06-20 13:02:00,86.7,60.2,30.16,SE,135,4.2,4.2,41,0.00,,,0.00,VWS V14.01,2013-06-20 18:02:00,
2013-06-20 13:03:00,86.7,60.2,30.16,SE,135,4.2,4.2,41,0.00,,,0.00,VWS V14.01,2013-06-20 18:03:00,
2013-06-20 13:04:00,86.7,60.9,30.16,SSW,202,6.2,6.2,42,0.00,,,0.00,VWS V14.01,2013-06-20 18:04:00,
2013-06-20 13:05:00,86.7,60.9,30.16,SSW,202,6.2,6.2,42,0.00,,,0.00,VWS V14.01,2013-06-20 18:05:00,
2013-06-20 13:06:00,86.7,60.9,30.16,SSW,202,6.2,6.2,42,0.00,,,0.00,VWS V14.01,2013-06-20 18:06:00,
2013-06-20 13:07:00,87.0,60.5,30.17,SSW,202,5.5,6.2,41,0.00,,,0.00,VWS V14.01,2013-06-20 18:07:00,
2013-06-20 13:08:00,87.0,60.5,30.16,SSW,202,5.5,5.5,41,0.00,,,0.00,VWS V14.01,2013-06-20 18:08:00,
2013-06-20 13:09:00,87.4,60.8,30.16,South,180,0.8,5.5,41,0.00,,,0.00,VWS V14.01,2013-06-20 18:09:00,
2013-06-20 13:10:00,87.4,60.8,30.16,South,180,0.8,0.8,41,0.00,,,0.00,VWS V14.01,2013-06-20 18:10:00,
2013-06-20 13:11:00,87.8,62.5,30.16,SE,135,1.5,1.5,43,0.00,,,0.00,VWS V14.01,2013-06-20 18:11:00,
2013-06-20 13:12:00,87.8,62.5,30.16,SE,135,1.5,1.5,43,0.00,,,0.00,VWS V14.01,2013-06-20 18:12:00,
2013-06-20 13:13:00,87.9,60.6,30.17,SSW,202,0.0,1.5,40,0.00,,,0.00,VWS V14.01,2013-06-20 18:13:00,
2013-06-20 13:14:00,87.9,60.6,30.16,SSW,202,0.0,0.0,40,0.00,,,0.00,VWS V14.01,2013-06-20 18:14:00,
2013-06-20 13:15:00,87.9,60.6,30.16,SSW,202,0.0,0.0,40,0.00,,,0.00,VWS V14.01,2013-06-20 18:15:00,
2013-06-20 13:16:00,87.9,61.3,30.16,SSW,202,0.0,0.0,41,0.00,,,0.00,VWS V14.01,2013-06-20 18:16:00,
2013-06-20 13:17:00,87.8,61.9,30.16,ESE,112,0.0,0.0,42,0.00,,,0.00,VWS V14.01,2013-06-20 18:17:00,
2013-06-20 13:18:00,87.8,61.9,30.16,ESE,112,0.0,0.0,42,0.00,,,0.00,VWS V14.01,2013-06-20 18:18:00,
2013-06-20 13:19:00,88.1,62.8,30.16,SE,135,4.2,4.2,43,0.00,,,0.00,VWS V14.01,2013-06-20 18:19:00,
2013-06-20 13:20:00,88.1,62.8,30.16,SE,135,4.2,4.2,43,0.00,,,0.00,VWS V14.01,2013-06-20 18:20:00,
2013-06-20 13:21:00,88.1,62.8,30.16,SE,135,4.2,4.2,43,0.00,,,0.00,VWS V14.01,2013-06-20 18:21:00,
2013-06-20 13:22:00,87.9,62.0,30.16,ESE,112,4.9,4.9,42,0.00,,,0.00,VWS V14.01,2013-06-20 18:22:00,
2013-06-20 13:23:00,87.9,62.0,30.16,ESE,112,4.9,4.9,42,0.00,,,0.00,VWS V14.01,2013-06-20 18:23:00,
2013-06-20 13:24:00,87.0,61.2,30.16,SE,135,5.3,5.3,42,0.00,,,0.00,VWS V14.01,2013-06-20 18:24:00,
2013-06-20 13:25:00,87.0,61.2,30.16,SE,135,5.3,5.3,42,0.00,,,0.00,VWS V14.01,2013-06-20 18:25:00,
2013-06-20 13:26:00,87.2,62.7,30.16,SSE,158,13.1,13.1,44,0.00,,,0.00,VWS V14.01,2013-06-20 18:26:00,
2013-06-20 13:27:00,87.2,62.7,30.16,SSE,158,13.1,13.1,44,0.00,,,0.00,VWS V14.01,2013-06-20 18:27:00,
2013-06-20 13:28:00,86.7,60.9,30.15,SE,135,10.0,13.1,42,0.00,,,0.00,VWS V14.01,2013-06-20 18:28:00,
2013-06-20 13:29:00,86.7,60.9,30.15,SE,135,10.0,10.0,42,0.00,,,0.00,VWS V14.01,2013-06-20 18:29:00,
2013-06-20 13:30:00,86.7,60.9,30.15,SE,135,10.0,10.0,42,0.00,,,0.00,VWS V14.01,2013-06-20 18:30:00,
2013-06-20 13:31:00,86.7,61.5,30.15,SSE,158,7.1,7.1,43,0.00,,,0.00,VWS V14.01,2013-06-20 18:31:00,
2013-06-20 13:32:00,86.5,61.4,30.15,SSE,158,12.0,12.0,43,0.00,,,0.00,VWS V14.01,2013-06-20 18:32:00,
2013-06-20 13:33:00,86.5,61.4,30.15,SSE,158,12.0,12.0,43,0.00,,,0.00,VWS V14.01,2013-06-20 18:33:00,
2013-06-20 13:34:00,86.5,61.4,30.15,SE,135,11.8,12.0,43,0.00,,,0.00,VWS V14.01,2013-06-20 18:34:00,
2013-06-20 13:35:00,86.5,61.4,30.15,SE,135,11.8,11.8,43,0.00,,,0.00,VWS V14.01,2013-06-20 18:35:00,
2013-06-20 13:36:00,86.7,61.5,30.15,SE,135,11.8,11.8,43,0.00,,,0.00,VWS V14.01,2013-06-20 18:36:00,
2013-06-20 13:37:00,86.5,61.4,30.15,SW,225,5.8,11.8,43,0.00,,,0.00,VWS V14.01,2013-06-20 18:37:00,
2013-06-20 13:38:00,86.5,61.4,30.16,SW,225,5.8,5.8,43,0.00,,,0.00,VWS V14.01,2013-06-20 18:38:00,
2013-06-20 13:39:00,86.9,61.7,30.15,SSE,158,3.3,5.8,43,0.00,,,0.00,VWS V14.01,2013-06-20 18:39:00,
2013-06-20 13:40:00,86.9,61.7,30.15,SSE,158,3.3,3.3,43,0.00,,,0.00,VWS V14.01,2013-06-20 18:40:00,
2013-06-20 13:41:00,87.4,62.2,30.16,South,180,5.8,5.8,43,0.00,,,0.00,VWS V14.01,2013-06-20 18:41:00,
2013-06-20 13:42:00,87.4,62.2,30.16,South,180,5.8,5.8,43,0.00,,,0.00,VWS V14.01,2013-06-20 18:42:00,
2013-06-20 13:43:00,87.6,62.4,30.15,SSE,158,8.7,8.7,43,0.00,,,0.00,VWS V14.01,2013-06-20 18:43:00,
2013-06-20 13:44:00,87.6,62.4,30.16,SSE,158,8.7,8.7,43,0.00,,,0.00,VWS V14.01,2013-06-20 18:44:00,
2013-06-20 13:45:00,87.6,62.4,30.16,SSE,158,8.7,8.7,43,0.00,,,0.00,VWS V14.01,2013-06-20 18:45:00,
2013-06-20 13:46:00,87.0,61.8,30.16,SSE,158,6.0,6.0,43,0.00,,,0.00,VWS V14.01,2013-06-20 18:46:00,
2013-06-20 13:47:00,87.4,62.2,30.15,South,180,5.3,6.0,43,0.00,,,0.00,VWS V14.01,2013-06-20 18:47:00,
2013-06-20 13:48:00,87.4,61.5,30.15,South,180,5.3,5.3,42,0.00,,,0.00,VWS V14.01,2013-06-20 18:48:00,
2013-06-20 13:49:00,87.8,61.2,30.15,South,180,8.9,8.9,41,0.00,,,0.00,VWS V14.01,2013-06-20 18:49:00,
2013-06-20 13:50:00,87.8,61.2,30.15,South,180,8.9,8.9,41,0.00,,,0.00,VWS V14.01,2013-06-20 18:50:00,
2013-06-20 13:51:00,88.1,62.1,30.15,South,180,8.9,8.9,42,0.00,,,0.00,VWS V14.01,2013-06-20 18:51:00,
2013-06-20 13:52:00,88.1,62.1,30.15,SSW,202,8.2,8.9,42,0.00,,,0.00,VWS V14.01,2013-06-20 18:52:00,
2013-06-20 13:53:00,88.1,62.1,30.15,SSW,202,8.2,8.2,42,0.00,,,0.00,VWS V14.01,2013-06-20 18:53:00,
2013-06-20 13:54:00,88.3,61.6,30.16,SSW,202,8.7,8.7,41,0.00,,,0.00,VWS V14.01,2013-06-20 18:54:00,
2013-06-20 13:55:00,88.3,61.6,30.16,SSW,202,8.7,8.7,41,0.00,,,0.00,VWS V14.01,2013-06-20 18:55:00,
2013-06-20 13:56:00,88.3,60.9,30.15,South,180,11.6,11.6,40,0.00,,,0.00,VWS V14.01,2013-06-20 18:56:00,
2013-06-20 13:57:00,88.3,60.9,30.16,South,180,11.6,11.6,40,0.00,,,0.00,VWS V14.01,2013-06-20 18:57:00,
2013-06-20 13:58:00,88.3,61.6,30.16,SSW,202,5.1,11.6,41,0.00,,,0.00,VWS V14.01,2013-06-20 18:58:00,
2013-06-20 13:59:00,88.3,61.6,30.16,SSW,202,5.1,5.1,41,0.00,,,0.00,VWS V14.01,2013-06-20 18:59:00,
2013-06-20 14:00:00,88.3,61.6,30.16,SSW,202,5.1,5.1,41,0.00,,,0.00,VWS V14.01,2013-06-20 19:00:00,
2013-06-20 14:01:00,88.3,60.9,30.16,SSW,202,0.0,0.0,40,0.00,,,0.00,VWS V14.01,2013-06-20 19:01:00,
2013-06-20 14:02:00,88.3,61.6,30.15,SSW,202,3.8,3.8,41,0.00,,,0.00,VWS V14.01,2013-06-20 19:02:00,
2013-06-20 14:03:00,88.5,61.8,30.15,SSW,202,3.8,3.8,41,0.00,,,0.00,VWS V14.01,2013-06-20 19:03:00,
2013-06-20 14:04:00,88.7,62.7,30.15,SE,135,8.2,8.2,42,0.00,,,0.00,VWS V14.01,2013-06-20 19:04:00,
2013-06-20 14:05:00,88.7,62.7,30.15,SE,135,8.2,8.2,42,0.00,,,0.00,VWS V14.01,2013-06-20 19:05:00,
2013-06-20 14:06:00,88.7,62.7,30.15,SE,135,8.2,8.2,42,0.00,,,0.00,VWS V14.01,2013-06-20 19:06:00,
2013-06-20 14:07:00,88.8,62.8,30.15,SSW,202,9.1,9.1,42,0.00,,,0.00,VWS V14.01,2013-06-20 19:07:00,
2013-06-20 14:08:00,88.8,62.8,30.15,SSW,202,9.1,9.1,42,0.00,,,0.00,VWS V14.01,2013-06-20 19:08:00,
2013-06-20 14:09:00,88.8,61.4,30.15,SSW,202,5.5,9.1,40,0.00,,,0.00,VWS V14.01,2013-06-20 19:09:00,
2013-06-20 14:10:00,88.8,61.4,30.15,SSW,202,5.5,5.5,40,0.00,,,0.00,VWS V14.01,2013-06-20 19:10:00,
2013-06-20 14:11:00,88.7,62.7,30.15,ESE,112,0.4,5.5,42,0.00,,,0.00,VWS V14.01,2013-06-20 19:11:00,
2013-06-20 14:12:00,88.7,62.7,30.15,ESE,112,0.4,0.4,42,0.00,,,0.00,VWS V14.01,2013-06-20 19:12:00,
2013-06-20 14:13:00,88.8,62.8,30.15,SSE,158,7.6,7.6,42,0.00,,,0.00,VWS V14.01,2013-06-20 19:13:00,
2013-06-20 14:14:00,88.8,62.8,30.15,SSE,158,7.6,7.6,42,0.00,,,0.00,VWS V14.01,2013-06-20 19:14:00,
2013-06-20 14:15:00,88.8,62.8,30.15,SSE,158,7.6,7.6,42,0.00,,,0.00,VWS V14.01,2013-06-20 19:15:00,
2013-06-20 14:16:00,88.7,62.7,30.15,SE,135,5.3,5.3,42,0.00,,,0.00,VWS V14.01,2013-06-20 19:16:00,
2013-06-20 14:17:00,88.7,63.3,30.15,South,180,7.8,7.8,43,0.00,,,0.00,VWS V14.01,2013-06-20 19:17:00,
2013-06-20 14:18:00,88.7,63.3,30.15,South,180,7.8,7.8,43,0.00,,,0.00,VWS V14.01,2013-06-20 19:18:00,
2013-06-20 14:19:00,89.0,62.3,30.15,SSE,158,12.0,12.0,41,0.00,,,0.00,VWS V14.01,2013-06-20 19:19:00,
2013-06-20 14:20:00,89.0,62.3,30.15,SSE,158,12.0,12.0,41,0.00,,,0.00,VWS V14.01,2013-06-20 19:20:00,
2013-06-20 14:21:00,89.0,62.3,30.14,South,180,0.0,12.0,41,0.00,,,0.00,VWS V14.01,2013-06-20 19:21:00,
2013-06-20 14:22:00,88.5,61.8,30.14,South,180,0.0,0.0,41,0.00,,,0.00,VWS V14.01,2013-06-20 19:22:00,
2013-06-20 14:23:00,88.5,61.8,30.15,South,180,0.0,0.0,41,0.00,,,0.00,VWS V14.01,2013-06-20 19:23:00,
2013-06-20 14:24:00,88.7,61.3,30.15,SSE,158,1.7,1.7,40,0.00,,,0.00,VWS V14.01,2013-06-20 19:24:00,
2013-06-20 14:25:00,88.7,61.3,30.15,SSE,158,1.7,1.7,40,0.00,,,0.00,VWS V14.01,2013-06-20 19:25:00,
2013-06-20 14:26:00,88.8,61.4,30.15,South,180,10.9,10.9,40,0.00,,,0.00,VWS V14.01,2013-06-20 19:26:00,
2013-06-20 14:27:00,88.8,61.4,30.15,South,180,10.9,10.9,40,0.00,,,0.00,VWS V14.01,2013-06-20 19:27:00,
2013-06-20 14:28:00,89.2,62.4,30.15,SSW,202,12.7,12.7,41,0.00,,,0.00,VWS V14.01,2013-06-20 19:28:00,
2013-06-20 14:29:00,89.2,62.4,30.15,SSW,202,12.7,12.7,41,0.00,,,0.00,VWS V14.01,2013-06-20 19:29:00,
2013-06-20 14:30:00,89.2,62.4,30.15,SSW,202,12.7,12.7,41,0.00,,,0.00,VWS V14.01,2013-06-20 19:30:00,
2013-06-20 14:31:00,89.2,62.4,30.15,SSW,202,7.3,7.3,41,0.00,,,0.00,VWS V14.01,2013-06-20 19:31:00,
2013-06-20 14:32:00,89.2,62.4,30.15,SSW,202,7.1,7.3,41,0.00,,,0.00,VWS V14.01,2013-06-20 19:32:00,
2013-06-20 14:33:00,89.2,62.4,30.14,SSW,202,7.1,7.1,41,0.00,,,0.00,VWS V14.01,2013-06-20 19:33:00,
2013-06-20 14:34:00,89.2,62.4,30.15,South,180,9.8,9.8,41,0.00,,,0.00,VWS V14.01,2013-06-20 19:34:00,
2013-06-20 14:35:00,89.2,62.4,30.15,South,180,9.8,9.8,41,0.00,,,0.00,VWS V14.01,2013-06-20 19:35:00,
2013-06-20 14:36:00,89.2,62.4,30.15,SSW,202,8.2,9.8,41,0.00,,,0.00,VWS V14.01,2013-06-20 19:36:00,
2013-06-20 14:37:00,89.2,62.4,30.15,SSW,202,8.2,8.2,41,0.00,,,0.00,VWS V14.01,2013-06-20 19:37:00,
2013-06-20 14:38:00,89.2,62.4,30.14,SSW,202,8.2,8.2,41,0.00,,,0.00,VWS V14.01,2013-06-20 19:38:00,
2013-06-20 14:39:00,89.4,61.9,30.14,SSW,202,6.9,8.2,40,0.00,,,0.00,VWS V14.01,2013-06-20 19:39:00,
2013-06-20 14:40:00,89.2,62.4,30.14,SSW,202,8.2,8.2,41,0.00,,,0.00,VWS V14.01,2013-06-20 19:40:00,
2013-06-20 14:41:00,89.4,61.9,30.14,SE,135,8.2,8.2,40,0.00,,,0.00,VWS V14.01,2013-06-20 19:41:00,
2013-06-20 14:42:00,89.4,61.9,30.14,SE,135,8.2,8.2,40,0.00,,,0.00,VWS V14.01,2013-06-20 19:42:00,
2013-06-20 14:43:00,89.2,62.4,30.14,SSW,202,14.0,14.0,41,0.00,,,0.00,VWS V14.01,2013-06-20 19:43:00,
2013-06-20 14:44:00,89.2,62.4,30.14,SSW,202,14.0,14.0,41,0.00,,,0.00,VWS V14.01,2013-06-20 19:44:00,
2013-06-20 14:45:00,89.2,62.4,30.14,SSW,202,14.0,14.0,41,0.00,,,0.00,VWS V14.01,2013-06-20 19:45:00,
2013-06-20 14:46:00,89.2,61.7,30.14,South,180,7.1,7.1,40,0.00,,,0.00,VWS V14.01,2013-06-20 19:46:00,
2013-06-20 14:47:00,89.4,62.6,30.14,SSW,202,6.9,7.1,41,0.00,,,0.00,VWS V14.01,2013-06-20 19:47:00,
2013-06-20 14:48:00,89.4,62.6,30.14,SSW,202,6.9,6.9,41,0.00,,,0.00,VWS V14.01,2013-06-20 19:48:00,
2013-06-20 14:49:00,89.4,62.6,30.14,SSW,202,8.0,8.0,41,0.00,,,0.00,VWS V14.01,2013-06-20 19:49:00,
2013-06-20 14:50:00,89.4,62.6,30.14,SSW,202,6.9,6.9,41,0.00,,,0.00,VWS V14.01,2013-06-20 19:50:00,
2013-06-20 14:51:00,89.4,62.6,30.15,SSE,158,9.1,9.1,41,0.00,,,0.00,VWS V14.01,2013-06-20 19:51:00,
2013-06-20 14:52:00,89.4,62.6,30.14,SSE,158,9.1,9.1,41,0.00,,,0.00,VWS V14.01,2013-06-20 19:52:00,
2013-06-20 14:53:00,89.4,62.6,30.14,SSE,158,9.1,9.1,41,0.00,,,0.00,VWS V14.01,2013-06-20 19:53:00,
2013-06-20 14:54:00,88.8,62.1,30.14,SE,135,4.6,9.1,41,0.00,,,0.00,VWS V14.01,2013-06-20 19:54:00,
2013-06-20 14:55:00,89.4,62.6,30.14,SSE,158,9.1,9.1,41,0.00,,,0.00,VWS V14.01,2013-06-20 19:55:00,
2013-06-20 14:56:00,88.8,62.1,30.14,East,90,0.0,4.6,41,0.00,,,0.00,VWS V14.01,2013-06-20 19:56:00,
2013-06-20 14:57:00,88.8,62.1,30.14,East,90,0.0,0.0,41,0.00,,,0.00,VWS V14.01,2013-06-20 19:57:00,
2013-06-20 14:58:00,89.4,62.6,30.14,SSW,202,7.6,7.6,41,0.00,,,0.00,VWS V14.01,2013-06-20 19:58:00,
2013-06-20 14:59:00,89.4,62.6,30.15,SSW,202,7.6,7.6,41,0.00,,,0.00,VWS V14.01,2013-06-20 19:59:00,
2013-06-20 15:00:00,89.4,62.6,30.14,SSW,202,7.6,7.6,41,0.00,,,0.00,VWS V14.01,2013-06-20 20:00:00,
2013-06-20 15:01:00,89.7,62.9,30.14,SSW,202,0.0,0.0,41,0.00,,,0.00,VWS V14.01,2013-06-20 20:01:00,
2013-06-20 15:02:00,90.3,63.4,30.14,SSW,202,5.1,5.1,41,0.00,,,0.00,VWS V14.01,2013-06-20 20:02:00,
2013-06-20 15:03:00,90.3,63.4,30.14,SSW,202,5.1,5.1,41,0.00,,,0.00,VWS V14.01,2013-06-20 20:03:00,
2013-06-20 15:04:00,90.3,62.0,30.14,ESE,112,0.0,5.1,39,0.00,,,0.00,VWS V14.01,2013-06-20 20:04:00,
2013-06-20 15:05:00,90.3,63.4,30.14,SSW,202,5.1,5.1,41,0.00,,,0.00,VWS V14.01,2013-06-20 20:05:00,
2013-06-20 15:06:00,90.3,62.0,30.14,ESE,112,0.0,0.0,39,0.00,,,0.00,VWS V14.01,2013-06-20 20:06:00,
2013-06-20 15:07:00,89.7,62.2,30.14,SSE,158,6.9,6.9,40,0.00,,,0.00,VWS V14.01,2013-06-20 20:07:00,
2013-06-20 15:08:00,89.7,62.2,30.14,SSE,158,6.9,6.9,40,0.00,,,0.00,VWS V14.01,2013-06-20 20:08:00,
2013-06-20 15:09:00,88.8,61.4,30.14,SE,135,5.1,6.9,40,0.00,,,0.00,VWS V14.01,2013-06-20 20:09:00,
2013-06-20 15:10:00,88.8,61.4,30.14,SE,135,5.1,6.9,40,0.00,,,0.00,VWS V14.01,2013-06-20 20:10:00,
2013-06-20 15:11:00,88.8,61.4,30.14,SE,135,1.3,5.1,40,0.00,,,0.00,VWS V14.01,2013-06-20 20:11:00,
2013-06-20 15:12:00,88.8,61.4,30.14,SE,135,1.3,1.3,40,0.00,,,0.00,VWS V14.01,2013-06-20 20:12:00,
2013-06-20 15:13:00,89.4,62.6,30.14,SE,135,4.9,4.9,41,0.00,,,0.00,VWS V14.01,2013-06-20 20:13:00,
2013-06-20 15:14:00,89.4,62.6,30.14,SE,135,4.9,4.9,41,0.00,,,0.00,VWS V14.01,2013-06-20 20:14:00,
2013-06-20 15:15:00,89.4,62.6,30.14,SE,135,4.9,4.9,41,0.00,,,0.00,VWS V14.01,2013-06-20 20:15:00,
2013-06-20 15:16:00,89.7,61.5,30.14,SSW,202,10.5,10.5,39,0.00,,,0.00,VWS V14.01,2013-06-20 20:16:00,
2013-06-20 15:17:00,90.1,62.5,30.14,SSE,158,4.6,10.5,40,0.00,,,0.00,VWS V14.01,2013-06-20 20:17:00,
2013-06-20 15:18:00,90.1,62.5,30.14,SSE,158,4.6,4.6,40,0.00,,,0.00,VWS V14.01,2013-06-20 20:18:00,
2013-06-20 15:19:00,89.9,62.4,30.14,SE,135,8.9,8.9,40,0.00,,,0.00,VWS V14.01,2013-06-20 20:19:00,
2013-06-20 15:20:00,90.1,62.5,30.14,SSE,158,4.6,4.6,40,0.00,,,0.00,VWS V14.01,2013-06-20 20:20:00,
2013-06-20 15:21:00,89.9,62.4,30.14,SE,135,5.1,8.9,40,0.00,,,0.00,VWS V14.01,2013-06-20 20:21:00,
2013-06-20 15:22:00,89.7,62.2,30.14,SE,135,5.1,5.1,40,0.00,,,0.00,VWS V14.01,2013-06-20 20:22:00,
2013-06-20 15:23:00,89.7,62.2,30.14,SE,135,5.1,5.1,40,0.00,,,0.00,VWS V14.01,2013-06-20 20:23:00,
2013-06-20 15:24:00,89.4,61.2,30.14,SSW,202,5.5,5.5,39,0.00,,,0.00,VWS V14.01,2013-06-20 20:24:00,
2013-06-20 15:25:00,89.7,62.2,30.14,SE,135,5.1,5.1,40,0.00,,,0.00,VWS V14.01,2013-06-20 20:25:00,
2013-06-20 15:26:00,89.7,61.5,30.14,SW,225,10.9,10.9,39,0.00,,,0.00,VWS V14.01,2013-06-20 20:26:00,
2013-06-20 15:27:00,89.7,61.5,30.13,SW,225,10.9,10.9,39,0.00,,,0.00,VWS V14.01,2013-06-20 20:27:00,
2013-06-20 15:28:00,89.7,61.5,30.13,SSW,202,11.4,11.4,39,0.00,,,0.00,VWS V14.01,2013-06-20 20:28:00,
2013-06-20 15:29:00,89.7,61.5,30.13,SSW,202,11.4,11.4,39,0.00,,,0.00,VWS V14.01,2013-06-20 20:29:00,
2013-06-20 15:30:00,89.7,61.5,30.13,SSW,202,11.4,11.4,39,0.00,,,0.00,VWS V14.01,2013-06-20 20:30:00,
2013-06-20 15:31:00,89.9,62.4,30.14,SW,225,0.6,0.6,40,0.00,,,0.00,VWS V14.01,2013-06-20 20:31:00,
2013-06-20 15:32:00,90.1,61.8,30.14,SE,135,7.6,7.6,39,0.00,,,0.00,VWS V14.01,2013-06-20 20:32:00,
2013-06-20 15:33:00,90.1,61.8,30.14,SE,135,7.6,7.6,39,0.00,,,0.00,VWS V14.01,2013-06-20 20:33:00,
2013-06-20 15:34:00,89.9,62.4,30.13,SE,135,14.3,14.3,40,0.00,,,0.00,VWS V14.01,2013-06-20 20:34:00,
2013-06-20 15:35:00,90.1,61.8,30.14,SE,135,7.6,7.6,39,0.00,,,0.00,VWS V14.01,2013-06-20 20:35:00,
2013-06-20 15:36:00,89.7,61.5,30.13,ENE,68,0.0,14.3,39,0.00,,,0.00,VWS V14.01,2013-06-20 20:36:00,
2013-06-20 15:37:00,89.7,61.5,30.13,ENE,68,0.0,0.0,39,0.00,,,0.00,VWS V14.01,2013-06-20 20:37:00,
2013-06-20 15:38:00,89.7,61.5,30.13,ENE,68,0.0,0.0,39,0.00,,,0.00,VWS V14.01,2013-06-20 20:38:00,
2013-06-20 15:39:00,89.7,60.0,30.13,South,180,0.2,0.2,37,0.00,,,0.00,VWS V14.01,2013-06-20 20:39:00,
2013-06-20 15:40:00,89.7,61.5,30.13,ENE,68,0.0,0.0,39,0.00,,,0.00,VWS V14.01,2013-06-20 20:40:00,
2013-06-20 15:41:00,89.7,61.5,30.13,SE,135,0.2,0.2,39,0.00,,,0.00,VWS V14.01,2013-06-20 20:41:00,
2013-06-20 15:42:00,89.7,61.5,30.13,SE,135,0.2,0.2,39,0.00,,,0.00,VWS V14.01,2013-06-20 20:42:00,
2013-06-20 15:43:00,90.1,61.8,30.13,SSW,202,1.3,1.3,39,0.00,,,0.00,VWS V14.01,2013-06-20 20:43:00,
2013-06-20 15:44:00,90.1,61.8,30.13,SSW,202,1.3,1.3,39,0.00,,,0.00,VWS V14.01,2013-06-20 20:44:00,
2013-06-20 15:45:00,90.1,61.8,30.13,SSW,202,1.3,1.3,39,0.00,,,0.00,VWS V14.01,2013-06-20 20:45:00,
2013-06-20 15:46:00,90.5,62.2,30.13,SE,135,9.8,9.8,39,0.00,,,0.00,VWS V14.01,2013-06-20 20:46:00,
2013-06-20 15:47:00,90.3,62.7,30.13,South,180,8.2,9.8,40,0.00,,,0.00,VWS V14.01,2013-06-20 20:47:00,
2013-06-20 15:48:00,90.3,62.7,30.13,South,180,8.2,8.2,40,0.00,,,0.00,VWS V14.01,2013-06-20 20:48:00,
2013-06-20 15:49:00,90.5,63.6,30.13,SE,135,0.0,8.2,41,0.00,,,0.00,VWS V14.01,2013-06-20 20:49:00,
2013-06-20 15:50:00,90.3,62.7,30.13,South,180,8.2,8.2,40,0.00,,,0.00,VWS V14.01,2013-06-20 20:50:00,
2013-06-20 15:51:00,91.0,62.6,30.13,South,180,1.1,1.1,39,0.00,,,0.00,VWS V14.01,2013-06-20 20:51:00,
2013-06-20 15:52:00,91.0,62.6,30.13,South,180,1.1,1.1,39,0.00,,,0.00,VWS V14.01,2013-06-20 20:52:00,
2013-06-20 15:53:00,91.0,62.6,30.13,SE,135,7.8,7.8,39,0.00,,,0.00,VWS V14.01,2013-06-20 20:53:00,
2013-06-20 15:54:00,91.2,62.8,30.13,SE,135,7.8,7.8,39,0.00,,,0.00,VWS V14.01,2013-06-20 20:54:00,
2013-06-20 15:55:00,91.0,62.6,30.13,SE,135,7.8,7.8,39,0.00,,,0.00,VWS V14.01,2013-06-20 20:55:00,
2013-06-20 15:56:00,90.5,62.9,30.13,SE,135,1.3,7.8,40,0.00,,,0.00,VWS V14.01,2013-06-20 20:56:00,
2013-06-20 15:57:00,90.5,62.9,30.13,SE,135,1.3,1.3,40,0.00,,,0.00,VWS V14.01,2013-06-20 20:57:00,
2013-06-20 15:58:00,90.6,60.8,30.13,SSW,202,12.0,12.0,37,0.00,,,0.00,VWS V14.01,2013-06-20 20:58:00,
2013-06-20 15:59:00,90.6,60.8,30.13,SSW,202,12.0,12.0,37,0.00,,,0.00,VWS V14.01,2013-06-20 20:59:00,
2013-06-20 16:00:00,90.6,60.8,30.13,SSW,202,12.0,12.0,37,0.00,,,99.99,VWS V14.01,2013-06-20 21:00:00,
2013-06-20 16:01:00,90.5,60.7,30.12,South,180,3.1,3.1,37,0.00,,,0.00,VWS V14.01,2013-06-20 21:01:00,
2013-06-20 16:02:00,90.6,62.3,30.13,SE,135,4.6,4.6,39,0.00,,,0.00,VWS V14.01,2013-06-20 21:02:00,
2013-06-20 16:03:00,90.6,62.3,30.12,SE,135,4.6,4.6,39,0.00,,,0.00,VWS V14.01,2013-06-20 21:03:00,
2013-06-20 16:04:00,90.8,62.5,30.12,SE,135,4.9,4.9,39,0.00,,,0.00,VWS V14.01,2013-06-20 21:04:00,
2013-06-20 16:05:00,90.6,62.3,30.12,SE,135,4.6,4.6,39,0.00,,,0.00,VWS V14.01,2013-06-20 21:05:00,
2013-06-20 16:06:00,90.6,62.3,30.13,WSW,248,2.0,4.9,39,0.00,,,0.00,VWS V14.01,2013-06-20 21:06:00,
2013-06-20 16:07:00,90.6,62.3,30.12,WSW,248,2.0,2.0,39,0.00,,,0.00,VWS V14.01,2013-06-20 21:07:00,
2013-06-20 16:08:00,90.6,62.3,30.12,SE,135,5.3,5.3,39,0.00,,,0.00,VWS V14.01,2013-06-20 21:08:00,
2013-06-20 16:09:00,90.6,62.3,30.13,SE,135,5.3,5.3,39,0.00,,,0.00,VWS V14.01,2013-06-20 21:09:00,
2013-06-20 16:10:00,90.6,62.3,30.12,SE,135,5.3,5.3,39,0.00,,,0.00,VWS V14.01,2013-06-20 21:10:00,
2013-06-20 16:11:00,90.3,63.4,30.13,SSW,202,6.7,6.7,41,0.00,,,0.00,VWS V14.01,2013-06-20 21:11:00,
2013-06-20 16:12:00,90.3,63.4,30.13,SSW,202,6.7,6.7,41,0.00,,,0.00,VWS V14.01,2013-06-20 21:12:00,
2013-06-20 16:13:00,90.6,61.5,30.13,SSW,202,6.9,6.9,38,0.00,,,0.00,VWS V14.01,2013-06-20 21:13:00,
2013-06-20 16:14:00,90.6,61.5,30.13,SSW,202,6.9,6.9,38,0.00,,,0.00,VWS V14.01,2013-06-20 21:14:00,
2013-06-20 16:15:00,90.6,61.5,30.13,SSW,202,6.9,6.9,38,0.00,,,0.00,VWS V14.01,2013-06-20 21:15:00,
2013-06-20 16:16:00,90.8,62.5,30.13,SE,135,8.9,8.9,39,0.00,,,0.00,VWS V14.01,2013-06-20 21:16:00,
2013-06-20 16:17:00,90.1,62.5,30.13,SSE,158,8.0,8.9,40,0.00,,,0.00,VWS V14.01,2013-06-20 21:17:00,
2013-06-20 16:18:00,90.1,62.5,30.13,SSE,158,8.0,8.0,40,0.00,,,0.00,VWS V14.01,2013-06-20 21:18:00,
2013-06-20 16:19:00,90.1,63.2,30.13,SE,135,0.0,8.0,41,0.00,,,0.00,VWS V14.01,2013-06-20 21:19:00,
2013-06-20 16:20:00,90.1,62.5,30.13,SSE,158,8.0,8.0,40,0.00,,,0.00,VWS V14.01,2013-06-20 21:20:00,
2013-06-20 16:21:00,89.6,62.8,30.13,SE,135,7.3,7.3,41,0.00,,,0.00,VWS V14.01,2013-06-20 21:21:00,
2013-06-20 16:22:00,89.6,62.8,30.13,SE,135,7.3,7.3,41,0.00,,,0.00,VWS V14.01,2013-06-20 21:22:00,
2013-06-20 16:23:00,89.6,62.8,30.13,SE,135,7.1,7.3,41,0.00,,,0.00,VWS V14.01,2013-06-20 21:23:00,
2013-06-20 16:24:00,89.4,61.9,30.13,SE,135,7.1,7.1,40,0.00,,,0.00,VWS V14.01,2013-06-20 21:24:00,
2013-06-20 16:25:00,89.6,62.8,30.13,SE,135,7.1,7.1,41,0.00,,,0.00,VWS V14.01,2013-06-20 21:25:00,
2013-06-20 16:26:00,89.4,62.6,30.13,SE,135,10.7,10.7,41,0.00,,,0.00,VWS V14.01,2013-06-20 21:26:00,
2013-06-20 16:27:00,89.4,62.6,30.13,SE,135,10.7,10.7,41,0.00,,,0.00,VWS V14.01,2013-06-20 21:27:00,
2013-06-20 16:28:00,89.6,62.8,30.12,SSW,202,6.0,10.7,41,0.00,,,0.00,VWS V14.01,2013-06-20 21:28:00,
2013-06-20 16:29:00,89.6,62.8,30.12,SSW,202,6.0,6.0,41,0.00,,,0.00,VWS V14.01,2013-06-20 21:29:00,
2013-06-20 16:30:00,89.6,62.8,30.12,SSW,202,6.0,6.0,41,0.00,,,0.00,VWS V14.01,2013-06-20 21:30:00,
2013-06-20 16:31:00,89.9,61.7,30.13,SSW,202,7.3,7.3,39,0.00,,,0.00,VWS V14.01,2013-06-20 21:31:00,
2013-06-20 16:32:00,90.1,61.8,30.12,SSW,202,7.1,7.3,39,0.00,,,0.00,VWS V14.01,2013-06-20 21:32:00,
2013-06-20 16:33:00,90.1,61.8,30.12,SSW,202,7.1,7.1,39,0.00,,,0.00,VWS V14.01,2013-06-20 21:33:00,
2013-06-20 16:34:00,90.1,61.8,30.12,SSW,202,8.9,8.9,39,0.00,,,0.00,VWS V14.01,2013-06-20 21:34:00,
2013-06-20 16:35:00,90.1,61.8,30.12,SSW,202,7.1,7.1,39,0.00,,,0.00,VWS V14.01,2013-06-20 21:35:00,
2013-06-20 16:36:00,90.6,62.3,30.12,South,180,8.5,8.9,39,0.00,,,0.00,VWS V14.01,2013-06-20 21:36:00,
2013-06-20 16:37:00,90.6,62.3,30.12,South,180,8.5,8.5,39,0.00,,,0.00,VWS V14.01,2013-06-20 21:37:00,
2013-06-20 16:38:00,90.6,62.3,30.12,SE,135,5.1,8.5,39,0.00,,,0.00,VWS V14.01,2013-06-20 21:38:00,
2013-06-20 16:39:00,90.8,63.2,30.12,SE,135,5.1,5.1,40,0.00,,,0.00,VWS V14.01,2013-06-20 21:39:00,
2013-06-20 16:40:00,90.6,62.3,30.12,SE,135,5.1,5.1,39,0.00,,,0.00,VWS V14.01,2013-06-20 21:40:00,
2013-06-20 16:41:00,90.6,63.0,30.12,SE,135,0.0,5.1,40,0.00,,,0.00,VWS V14.01,2013-06-20 21:41:00,
2013-06-20 16:42:00,90.6,63.0,30.12,SE,135,0.0,0.0,40,0.00,,,0.00,VWS V14.01,2013-06-20 21:42:00,
2013-06-20 16:43:00,90.5,62.9,30.12,SSE,158,9.3,9.3,40,0.00,,,0.00,VWS V14.01,2013-06-20 21:43:00,
2013-06-20 16:44:00,90.5,62.9,30.12,SSE,158,9.3,9.3,40,0.00,,,0.00,VWS V14.01,2013-06-20 21:44:00,
2013-06-20 16:45:00,90.5,62.9,30.12,SSE,158,9.3,9.3,40,0.00,,,0.00,VWS V14.01,2013-06-20 21:45:00,
2013-06-20 16:46:00,90.1,62.5,30.12,SSE,158,5.8,5.8,40,0.00,,,0.00,VWS V14.01,2013-06-20 21:46:00,
2013-06-20 16:47:00,89.9,62.4,30.12,SE,135,6.9,6.9,40,0.00,,,0.00,VWS V14.01,2013-06-20 21:47:00,
2013-06-20 16:48:00,89.9,62.4,30.12,SE,135,6.9,6.9,40,0.00,,,0.00,VWS V14.01,2013-06-20 21:48:00,
2013-06-20 16:49:00,89.7,62.2,30.12,SSE,158,11.4,11.4,40,0.00,,,0.00,VWS V14.01,2013-06-20 21:49:00,
2013-06-20 16:50:00,89.9,62.4,30.12,SE,135,6.9,6.9,40,0.00,,,0.00,VWS V14.01,2013-06-20 21:50:00,
2013-06-20 16:51:00,89.6,62.8,30.12,SSE,158,4.2,11.4,41,0.00,,,0.00,VWS V14.01,2013-06-20 21:51:00,
2013-06-20 16:52:00,89.6,62.8,30.12,SSE,158,4.2,4.2,41,0.00,,,0.00,VWS V14.01,2013-06-20 21:52:00,
2013-06-20 16:53:00,88.7,62.0,30.12,SSE,158,7.8,7.8,41,0.00,,,0.00,VWS V14.01,2013-06-20 21:53:00,
2013-06-20 16:54:00,88.7,62.0,30.12,SSE,158,7.8,7.8,41,0.00,,,0.00,VWS V14.01,2013-06-20 21:54:00,
2013-06-20 16:55:00,88.7,62.0,30.12,SSE,158,7.8,7.8,41,0.00,,,0.00,VWS V14.01,2013-06-20 21:55:00,
2013-06-20 16:56:00,87.9,62.0,30.12,ESE,112,2.2,7.8,42,0.00,,,0.00,VWS V14.01,2013-06-20 21:56:00,
2013-06-20 16:57:00,87.9,62.0,30.12,ESE,112,2.2,2.2,42,0.00,,,0.00,VWS V14.01,2013-06-20 21:57:00,
2013-06-20 16:58:00,88.5,62.5,30.12,SE,135,7.3,7.3,42,0.00,,,0.00,VWS V14.01,2013-06-20 21:58:00,
2013-06-20 16:59:00,88.5,62.5,30.12,SE,135,7.3,7.3,42,0.00,,,0.00,VWS V14.01,2013-06-20 21:59:00,
2013-06-20 17:00:00,88.5,62.5,30.12,SE,135,7.3,7.3,42,0.00,,,0.00,VWS V14.01,2013-06-20 22:00:00,
2013-06-20 17:01:00,88.8,62.8,30.12,SE,135,6.7,6.7,42,0.00,,,0.00,VWS V14.01,2013-06-20 22:01:00,
2013-06-20 17:02:00,89.4,62.6,30.12,ESE,112,0.0,6.7,41,0.00,,,0.00,VWS V14.01,2013-06-20 22:02:00,
2013-06-20 17:03:00,89.4,62.6,30.12,ESE,112,0.0,0.0,41,0.00,,,0.00,VWS V14.01,2013-06-20 22:03:00,
2013-06-20 17:04:00,89.9,61.7,30.12,SSW,202,5.3,5.3,39,0.00,,,0.00,VWS V14.01,2013-06-20 22:04:00,
2013-06-20 17:05:00,89.4,62.6,30.12,ESE,112,0.0,0.0,41,0.00,,,0.00,VWS V14.01,2013-06-20 22:05:00,
2013-06-20 17:06:00,89.9,62.4,30.12,South,180,0.0,5.3,40,0.00,,,0.00,VWS V14.01,2013-06-20 22:06:00,
2013-06-20 17:07:00,89.9,62.4,30.12,South,180,0.0,0.0,40,0.00,,,0.00,VWS V14.01,2013-06-20 22:07:00,
2013-06-20 17:08:00,89.4,62.6,30.12,SSW,202,0.0,0.0,41,0.00,,,0.00,VWS V14.01,2013-06-20 22:08:00,
2013-06-20 17:09:00,89.4,62.6,30.12,SSW,202,0.0,0.0,41,0.00,,,0.00,VWS V14.01,2013-06-20 22:09:00,
2013-06-20 17:10:00,89.4,62.6,30.12,SSW,202,0.0,0.0,41,0.00,,,0.00,VWS V14.01,2013-06-20 22:10:00,
2013-06-20 17:11:00,89.2,61.7,30.11,SSE,158,10.5,10.5,40,0.00,,,0.00,VWS V14.01,2013-06-20 22:11:00,
2013-06-20 17:12:00,89.2,61.7,30.11,SSE,158,10.5,10.5,40,0.00,,,0.00,VWS V14.01,2013-06-20 22:12:00,
2013-06-20 17:13:00,88.8,62.1,30.11,SE,135,17.2,17.2,41,0.00,,,0.00,VWS V14.01,2013-06-20 22:13:00,
2013-06-20 17:14:00,88.8,62.1,30.11,SE,135,17.2,17.2,41,0.00,,,0.00,VWS V14.01,2013-06-20 22:14:00,
2013-06-20 17:15:00,88.8,62.1,30.11,SE,135,17.2,17.2,41,0.00,,,0.00,VWS V14.01,2013-06-20 22:15:00,
2013-06-20 17:16:00,88.5,61.8,30.11,SE,135,6.7,6.7,41,0.00,,,0.00,VWS V14.01,2013-06-20 22:16:00,
2013-06-20 17:17:00,88.1,60.8,30.11,SSE,158,12.7,12.7,40,0.00,,,0.00,VWS V14.01,2013-06-20 22:17:00,
2013-06-20 17:18:00,88.1,60.8,30.11,SSE,158,12.7,12.7,40,0.00,,,0.00,VWS V14.01,2013-06-20 22:18:00,
2013-06-20 17:19:00,87.6,61.0,30.12,SE,135,10.0,12.7,41,0.00,,,0.00,VWS V14.01,2013-06-20 22:19:00,
2013-06-20 17:20:00,88.1,60.8,30.11,SSE,158,12.7,12.7,40,0.00,,,0.00,VWS V14.01,2013-06-20 22:20:00,
2013-06-20 17:21:00,87.6,61.0,30.11,SE,135,11.4,11.4,41,0.00,,,0.00,VWS V14.01,2013-06-20 22:21:00,
2013-06-20 17:22:00,87.6,61.0,30.11,SE,135,11.4,11.4,41,0.00,,,0.00,VWS V14.01,2013-06-20 22:22:00,
2013-06-20 17:23:00,87.6,61.0,30.11,SE,135,8.9,11.4,41,0.00,,,0.00,VWS V14.01,2013-06-20 22:23:00,
2013-06-20 17:24:00,87.8,61.9,30.11,SE,135,8.9,8.9,42,0.00,,,0.00,VWS V14.01,2013-06-20 22:24:00,
2013-06-20 17:25:00,87.6,61.0,30.11,SE,135,8.9,8.9,41,0.00,,,0.00,VWS V14.01,2013-06-20 22:25:00,
2013-06-20 17:26:00,88.3,61.6,30.11,SE,135,8.0,8.9,41,0.00,,,0.00,VWS V14.01,2013-06-20 22:26:00,
2013-06-20 17:27:00,88.3,61.6,30.11,SE,135,8.0,8.0,41,0.00,,,0.00,VWS V14.01,2013-06-20 22:27:00,
2013-06-20 17:28:00,88.8,62.1,30.11,South,180,6.2,8.0,41,0.00,,,0.00,VWS V14.01,2013-06-20 22:28:00,
2013-06-20 17:29:00,88.8,62.1,30.11,South,180,6.2,6.2,41,0.00,,,0.00,VWS V14.01,2013-06-20 22:29:00,
2013-06-20 17:30:00,88.8,62.1,30.11,South,180,6.2,6.2,41,0.00,,,0.00,VWS V14.01,2013-06-20 22:30:00,
2013-06-20 17:31:00,89.2,61.7,30.10,SW,225,12.7,12.7,40,0.00,,,0.00,VWS V14.01,2013-06-20 22:31:00,
2013-06-20 17:32:00,89.2,61.7,30.11,NW,315,1.1,12.7,40,0.00,,,0.00,VWS V14.01,2013-06-20 22:32:00,
2013-06-20 17:33:00,89.2,61.7,30.11,NW,315,1.1,1.1,40,0.00,,,0.00,VWS V14.01,2013-06-20 22:33:00,
2013-06-20 17:34:00,88.8,61.4,30.11,SE,135,0.0,1.1,40,0.00,,,0.00,VWS V14.01,2013-06-20 22:34:00,
2013-06-20 17:35:00,89.2,61.8,30.11,NW,315,1.1,1.1,40,0.00,,,0.00,VWS V14.01,2013-06-20 22:35:00,
2013-06-20 17:36:00,89.0,61.6,30.11,South,180,3.1,3.1,40,0.00,,,0.00,VWS V14.01,2013-06-20 22:36:00,
2013-06-20 17:37:00,89.0,62.3,30.10,South,180,3.1,3.1,41,0.00,,,0.00,VWS V14.01,2013-06-20 22:37:00,
2013-06-20 17:38:00,89.0,62.3,30.11,SSE,158,6.4,6.4,41,0.00,,,0.00,VWS V14.01,2013-06-20 22:38:00,
2013-06-20 17:39:00,89.2,62.4,30.11,SSE,158,6.4,6.4,41,0.00,,,0.00,VWS V14.01,2013-06-20 22:39:00,
2013-06-20 17:40:00,89.0,62.3,30.11,SSE,158,6.4,6.4,41,0.00,,,0.00,VWS V14.01,2013-06-20 22:40:00,
2013-06-20 17:41:00,89.2,62.4,30.11,South,180,0.0,6.4,41,0.00,,,0.00,VWS V14.01,2013-06-20 22:41:00,
2013-06-20 17:42:00,89.2,62.4,30.10,South,180,0.0,0.0,41,0.00,,,0.00,VWS V14.01,2013-06-20 22:42:00,
2013-06-20 17:43:00,89.6,62.1,30.10,WSW,248,3.5,3.5,40,0.00,,,0.00,VWS V14.01,2013-06-20 22:43:00,
2013-06-20 17:44:00,89.6,62.1,30.10,WSW,248,3.5,3.5,40,0.00,,,0.00,VWS V14.01,2013-06-20 22:44:00,
2013-06-20 17:45:00,89.6,62.1,30.10,WSW,248,3.5,3.5,40,0.00,,,0.00,VWS V14.01,2013-06-20 22:45:00,
2013-06-20 17:46:00,89.7,61.5,30.10,SSW,202,12.0,12.0,39,0.00,,,0.00,VWS V14.01,2013-06-20 22:46:00,
2013-06-20 17:47:00,89.4,61.2,30.11,SSW,202,8.0,12.0,39,0.00,,,0.00,VWS V14.01,2013-06-20 22:47:00,
2013-06-20 17:48:00,89.4,61.2,30.11,SSW,202,8.0,8.0,39,0.00,,,0.00,VWS V14.01,2013-06-20 22:48:00,
2013-06-20 17:49:00,89.4,61.2,30.10,SW,225,1.1,8.0,39,0.00,,,0.00,VWS V14.01,2013-06-20 22:49:00,
2013-06-20 17:50:00,89.4,61.2,30.11,SSW,202,8.0,8.0,39,0.00,,,0.00,VWS V14.01,2013-06-20 22:50:00,
2013-06-20 17:51:00,89.4,61.2,30.10,SSW,202,15.6,15.6,39,0.00,,,0.00,VWS V14.01,2013-06-20 22:51:00,
2013-06-20 17:52:00,89.4,61.2,30.10,SSW,202,15.6,15.6,39,0.00,,,0.00,VWS V14.01,2013-06-20 22:52:00,
2013-06-20 17:53:00,89.4,61.2,30.10,SE,135,7.1,15.6,39,0.00,,,0.00,VWS V14.01,2013-06-20 22:53:00,
2013-06-20 17:54:00,89.4,61.2,30.10,SE,135,7.1,7.1,39,0.00,,,0.00,VWS V14.01,2013-06-20 22:54:00,
2013-06-20 17:55:00,89.4,61.2,30.10,SE,135,7.1,7.1,39,0.00,,,0.00,VWS V14.01,2013-06-20 22:55:00,
2013-06-20 17:56:00,89.4,61.2,30.10,SSW,202,7.6,7.6,39,0.00,,,0.00,VWS V14.01,2013-06-20 22:56:00,
2013-06-20 17:57:00,89.4,61.2,30.10,SSW,202,7.6,7.6,39,0.00,,,0.00,VWS V14.01,2013-06-20 22:57:00,
2013-06-20 17:58:00,89.4,61.2,30.10,SSW,202,4.4,7.6,39,0.00,,,0.00,VWS V14.01,2013-06-20 22:58:00,
2013-06-20 17:59:00,89.4,61.2,30.10,SSW,202,4.4,4.4,39,0.00,,,0.00,VWS V14.01,2013-06-20 22:59:00,
2013-06-20 18:00:00,89.4,61.2,30.10,SSW,202,4.4,4.4,39,0.00,,,0.00,VWS V14.01,2013-06-20 23:00:00,
2013-06-20 18:01:00,89.4,61.9,30.10,SE,135,6.9,6.9,40,0.00,,,0.00,VWS V14.01,2013-06-20 23:01:00,
2013-06-20 18:02:00,88.8,61.4,30.10,SE,135,9.1,9.1,40,0.00,,,0.00,VWS V14.01,2013-06-20 23:02:00,
2013-06-20 18:03:00,88.8,61.4,30.10,SE,135,9.1,9.1,40,0.00,,,0.00,VWS V14.01,2013-06-20 23:03:00,
2013-06-20 18:04:00,88.5,61.1,30.10,SE,135,7.3,9.1,40,0.00,,,0.00,VWS V14.01,2013-06-20 23:04:00,
2013-06-20 18:05:00,88.8,61.4,30.10,SE,135,9.1,9.1,40,0.00,,,0.00,VWS V14.01,2013-06-20 23:05:00,
2013-06-20 18:06:00,88.1,60.8,30.10,ESE,112,11.4,11.4,40,0.00,,,0.00,VWS V14.01,2013-06-20 23:06:00,
2013-06-20 18:07:00,88.1,61.5,30.10,ESE,112,11.4,11.4,41,0.00,,,0.00,VWS V14.01,2013-06-20 23:07:00,
2013-06-20 18:08:00,88.1,61.5,30.10,SSE,158,0.0,11.4,41,0.00,,,0.00,VWS V14.01,2013-06-20 23:08:00,
2013-06-20 18:09:00,88.1,62.1,30.10,SSE,158,0.0,0.0,42,0.00,,,0.00,VWS V14.01,2013-06-20 23:09:00,
2013-06-20 18:10:00,88.1,61.5,30.10,SSE,158,0.0,0.0,41,0.00,,,0.00,VWS V14.01,2013-06-20 23:10:00,
2013-06-20 18:11:00,88.5,61.8,30.10,South,180,4.2,4.2,41,0.00,,,0.00,VWS V14.01,2013-06-20 23:11:00,
2013-06-20 18:12:00,88.5,61.8,30.10,South,180,4.2,4.2,41,0.00,,,0.00,VWS V14.01,2013-06-20 23:12:00,
2013-06-20 18:13:00,88.8,62.1,30.10,SE,135,2.9,4.2,41,0.00,,,0.00,VWS V14.01,2013-06-20 23:13:00,
2013-06-20 18:14:00,88.8,62.1,30.10,SE,135,2.9,2.9,41,0.00,,,0.00,VWS V14.01,2013-06-20 23:14:00,
2013-06-20 18:15:00,88.8,62.1,30.10,SE,135,2.9,2.9,41,0.00,,,0.00,VWS V14.01,2013-06-20 23:15:00,
2013-06-20 18:16:00,88.8,62.1,30.10,SE,135,3.1,3.1,41,0.00,,,0.00,VWS V14.01,2013-06-20 23:16:00,
2013-06-20 18:17:00,88.8,62.1,30.10,ESE,112,0.6,3.1,41,0.00,,,0.00,VWS V14.01,2013-06-20 23:17:00,
2013-06-20 18:18:00,88.8,62.1,30.10,ESE,112,0.6,0.6,41,0.00,,,0.00,VWS V14.01,2013-06-20 23:18:00,
2013-06-20 18:19:00,88.8,62.1,30.10,SSW,202,0.0,0.6,41,0.00,,,0.00,VWS V14.01,2013-06-20 23:19:00,
2013-06-20 18:20:00,88.8,62.1,30.10,ESE,112,0.6,0.6,41,0.00,,,0.00,VWS V14.01,2013-06-20 23:20:00,
2013-06-20 18:21:00,88.8,62.1,30.10,ESE,112,0.0,0.0,41,0.00,,,0.00,VWS V14.01,2013-06-20 23:21:00,
2013-06-20 18:22:00,88.8,62.1,30.10,ESE,112,0.0,0.0,41,0.00,,,0.00,VWS V14.01,2013-06-20 23:22:00,
2013-06-20 18:23:00,88.8,62.1,30.09,SSW,202,6.4,6.4,41,0.00,,,0.00,VWS V14.01,2013-06-20 23:23:00,
2013-06-20 18:24:00,88.8,62.1,30.09,SSW,202,6.4,6.4,41,0.00,,,0.00,VWS V14.01,2013-06-20 23:24:00,
2013-06-20 18:25:00,88.8,62.1,30.09,SSW,202,6.4,6.4,41,0.00,,,0.00,VWS V14.01,2013-06-20 23:25:00,
2013-06-20 18:26:00,89.0,61.6,30.09,East,90,3.8,6.4,40,0.00,,,0.00,VWS V14.01,2013-06-20 23:26:00,
2013-06-20 18:27:00,89.0,61.6,30.09,East,90,3.8,3.8,40,0.00,,,0.00,VWS V14.01,2013-06-20 23:27:00,
2013-06-20 18:28:00,88.8,61.4,30.09,SSW,202,4.0,4.0,40,0.00,,,0.00,VWS V14.01,2013-06-20 23:28:00,
2013-06-20 18:29:00,88.8,61.4,30.09,SSW,202,4.0,4.0,40,0.00,,,0.00,VWS V14.01,2013-06-20 23:29:00,
2013-06-20 18:30:00,88.8,61.4,30.09,SSW,202,4.0,4.0,40,0.00,,,0.00,VWS V14.01,2013-06-20 23:30:00,
2013-06-20 18:31:00,88.8,62.1,30.09,South,180,2.0,2.0,41,0.00,,,0.00,VWS V14.01,2013-06-20 23:31:00,
2013-06-20 18:32:00,88.8,62.1,30.09,SSW,202,1.3,2.0,41,0.00,,,0.00,VWS V14.01,2013-06-20 23:32:00,
2013-06-20 18:33:00,88.8,62.1,30.09,SSW,202,1.3,1.3,41,0.00,,,0.00,VWS V14.01,2013-06-20 23:33:00,
2013-06-20 18:34:00,88.8,61.4,30.09,SSE,158,6.7,6.7,40,0.00,,,0.00,VWS V14.01,2013-06-20 23:34:00,
2013-06-20 18:35:00,88.8,62.1,30.09,SSW,202,1.3,1.3,41,0.00,,,0.00,VWS V14.01,2013-06-20 23:35:00,
2013-06-20 18:36:00,88.8,61.4,30.09,SE,135,1.3,6.7,40,0.00,,,0.00,VWS V14.01,2013-06-20 23:36:00,
2013-06-20 18:37:00,88.8,61.4,30.09,SE,135,1.3,1.3,40,0.00,,,0.00,VWS V14.01,2013-06-20 23:37:00,
2013-06-20 18:38:00,88.8,61.4,30.09,SW,225,0.8,1.3,40,0.00,,,0.00,VWS V14.01,2013-06-20 23:38:00,
2013-06-20 18:39:00,88.8,62.1,30.09,SW,225,0.8,0.8,41,0.00,,,0.00,VWS V14.01,2013-06-20 23:39:00,
2013-06-20 18:40:00,88.8,61.4,30.09,SW,225,0.8,0.8,40,0.00,,,0.00,VWS V14.01,2013-06-20 23:40:00,
2013-06-20 18:41:00,88.8,61.4,30.08,SSE,158,4.9,4.9,40,0.00,,,0.00,VWS V14.01,2013-06-20 23:41:00,
2013-06-20 18:42:00,88.8,61.4,30.08,SSE,158,4.9,4.9,40,0.00,,,0.00,VWS V14.01,2013-06-20 23:42:00,
2013-06-20 18:43:00,88.7,61.3,30.08,WSW,248,5.3,5.3,40,0.00,,,0.00,VWS V14.01,2013-06-20 23:43:00,
2013-06-20 18:44:00,88.7,61.3,30.09,WSW,248,5.3,5.3,40,0.00,,,0.00,VWS V14.01,2013-06-20 23:44:00,
2013-06-20 18:45:00,88.7,61.3,30.08,WSW,248,5.3,5.3,40,0.00,,,0.00,VWS V14.01,2013-06-20 23:45:00,
2013-06-20 18:46:00,88.7,62.0,30.09,South,180,0.0,0.0,41,0.00,,,0.00,VWS V14.01,2013-06-20 23:46:00,
2013-06-20 18:47:00,88.3,60.9,30.09,SE,135,1.3,1.3,40,0.00,,,0.00,VWS V14.01,2013-06-20 23:47:00,
2013-06-20 18:48:00,88.3,60.9,30.09,SE,135,1.3,1.3,40,0.00,,,0.00,VWS V14.01,2013-06-20 23:48:00,
2013-06-20 18:49:00,88.3,61.6,30.09,East,90,1.5,1.5,41,0.00,,,0.00,VWS V14.01,2013-06-20 23:49:00,
2013-06-20 18:50:00,88.3,60.9,30.09,SE,135,1.3,1.3,40,0.00,,,0.00,VWS V14.01,2013-06-20 23:50:00,
2013-06-20 18:51:00,88.1,61.5,30.10,SSE,158,4.9,4.9,41,0.00,,,0.00,VWS V14.01,2013-06-20 23:51:00,
2013-06-20 18:52:00,88.1,61.5,30.10,SSE,158,4.9,4.9,41,0.00,,,0.00,VWS V14.01,2013-06-20 23:52:00,
2013-06-20 18:53:00,87.9,61.3,30.10,South,180,6.9,6.9,41,0.00,,,0.00,VWS V14.01,2013-06-20 23:53:00,
2013-06-20 18:54:00,87.9,61.3,30.10,South,180,6.9,6.9,41,0.00,,,0.00,VWS V14.01,2013-06-20 23:54:00,
2013-06-20 18:55:00,87.9,61.3,30.10,South,180,6.9,6.9,41,0.00,,,0.00,VWS V14.01,2013-06-20 23:55:00,
2013-06-20 18:56:00,87.8,61.2,30.10,SSW,202,0.0,6.9,41,0.00,,,0.00,VWS V14.01,2013-06-20 23:56:00,
2013-06-20 18:57:00,87.8,61.2,30.09,SSW,202,0.0,0.0,41,0.00,,,0.00,VWS V14.01,2013-06-20 23:57:00,
2013-06-20 18:58:00,87.6,61.0,30.09,SSW,202,0.0,0.0,41,0.00,,,0.00,VWS V14.01,2013-06-20 23:58:00,
2013-06-20 18:59:00,87.6,61.0,30.09,SSW,202,0.0,0.0,41,0.00,,,0.00,VWS V14.01,2013-06-20 23:59:00,
2013-06-20 19:00:00,87.6,61.0,30.09,SSW,202,0.0,0.0,41,0.00,,,0.00,VWS V14.01,2013-06-21 00:00:00,
2013-06-20 19:01:00,87.4,60.8,30.09,SSE,158,5.3,5.3,41,0.00,,,0.00,VWS V14.01,2013-06-21 00:01:00,
2013-06-20 19:02:00,87.0,61.2,30.09,SW,225,0.0,5.3,42,0.00,,,0.00,VWS V14.01,2013-06-21 00:02:00,
2013-06-20 19:03:00,87.0,61.2,30.09,SW,225,0.0,0.0,42,0.00,,,0.00,VWS V14.01,2013-06-21 00:03:00,
2013-06-20 19:04:00,87.0,61.2,30.09,SSW,202,1.3,1.3,42,0.00,,,0.00,VWS V14.01,2013-06-21 00:04:00,
2013-06-20 19:05:00,87.0,61.2,30.09,SW,225,0.0,0.0,42,0.00,,,0.00,VWS V14.01,2013-06-21 00:05:00,
2013-06-20 19:06:00,86.9,61.1,30.09,SSE,158,0.0,1.3,42,0.00,,,0.00,VWS V14.01,2013-06-21 00:06:00,
2013-06-20 19:07:00,86.9,61.1,30.10,SSE,158,0.0,0.0,42,0.00,,,0.00,VWS V14.01,2013-06-21 00:07:00,
2013-06-20 19:08:00,86.9,61.1,30.10,SW,225,1.5,1.5,42,0.00,,,0.00,VWS V14.01,2013-06-21 00:08:00,
2013-06-20 19:09:00,86.9,61.1,30.10,SW,225,1.5,1.5,42,0.00,,,0.00,VWS V14.01,2013-06-21 00:09:00,
2013-06-20 19:10:00,86.5,61.4,30.10,SW,225,1.5,1.5,43,0.00,,,0.00,VWS V14.01,2013-06-21 00:10:00,
2013-06-20 19:11:00,86.7,61.5,30.10,SSW,202,8.0,8.0,43,0.00,,,0.00,VWS V14.01,2013-06-21 00:11:00,
2013-06-20 19:12:00,86.7,61.5,30.10,SSW,202,8.0,8.0,43,0.00,,,0.00,VWS V14.01,2013-06-21 00:12:00,
2013-06-20 19:13:00,86.5,61.4,30.10,SSW,202,1.1,8.0,43,0.00,,,0.00,VWS V14.01,2013-06-21 00:13:00,
2013-06-20 19:14:00,86.5,61.4,30.09,SSW,202,1.1,1.1,43,0.00,,,0.00,VWS V14.01,2013-06-21 00:14:00,
2013-06-20 19:15:00,86.5,61.4,30.10,SSW,202,1.1,1.1,43,0.00,,,0.00,VWS V14.01,2013-06-21 00:15:00,
2013-06-20 19:16:00,86.7,61.5,30.09,SSW,202,0.0,0.0,43,0.00,,,0.00,VWS V14.01,2013-06-21 00:16:00,
2013-06-20 19:17:00,86.7,61.5,30.09,South,180,1.1,1.1,43,0.00,,,0.00,VWS V14.01,2013-06-21 00:17:00,
2013-06-20 19:18:00,86.7,61.5,30.09,South,180,1.1,1.1,43,0.00,,,0.00,VWS V14.01,2013-06-21 00:18:00,
2013-06-20 19:19:00,86.7,61.5,30.09,South,180,1.1,1.1,43,0.00,,,0.00,VWS V14.01,2013-06-21 00:19:00,
2013-06-20 19:20:00,86.9,61.7,30.09,SE,135,2.6,2.6,43,0.00,,,0.00,VWS V14.01,2013-06-21 00:20:00,
2013-06-20 19:21:00,86.7,61.5,30.09,SE,135,0.0,2.6,43,0.00,,,0.00,VWS V14.01,2013-06-21 00:21:00,
2013-06-20 19:22:00,86.7,61.5,30.09,SE,135,0.0,0.0,43,0.00,,,0.00,VWS V14.01,2013-06-21 00:22:00,
2013-06-20 19:23:00,86.7,61.5,30.09,SE,135,3.5,3.5,43,0.00,,,0.00,VWS V14.01,2013-06-21 00:23:00,
2013-06-20 19:24:00,86.7,61.5,30.09,SE,135,3.5,3.5,43,0.00,,,0.00,VWS V14.01,2013-06-21 00:24:00,
2013-06-20 19:25:00,86.1,61.7,30.09,SSE,158,0.8,3.5,44,0.00,,,0.00,VWS V14.01,2013-06-21 00:25:00,
2013-06-20 19:26:00,86.1,61.7,30.10,SSE,158,0.8,0.8,44,0.00,,,0.00,VWS V14.01,2013-06-21 00:26:00,
2013-06-20 19:27:00,86.1,61.7,30.09,SSE,158,0.8,0.8,44,0.00,,,0.00,VWS V14.01,2013-06-21 00:27:00,
2013-06-20 19:28:00,86.1,61.7,30.09,ESE,112,5.1,5.1,44,0.00,,,0.00,VWS V14.01,2013-06-21 00:28:00,
2013-06-20 19:29:00,86.1,61.7,30.09,ESE,112,5.1,5.1,44,0.00,,,0.00,VWS V14.01,2013-06-21 00:29:00,
2013-06-20 19:30:00,86.1,61.7,30.09,SSW,202,4.4,5.1,44,0.00,,,0.00,VWS V14.01,2013-06-21 00:30:00,
2013-06-20 19:31:00,86.1,61.7,30.09,SSW,202,4.4,4.4,44,0.00,,,0.00,VWS V14.01,2013-06-21 00:31:00,
2013-06-20 19:32:00,86.1,61.7,30.09,SE,135,4.0,4.4,44,0.00,,,0.00,VWS V14.01,2013-06-21 00:32:00,
2013-06-20 19:33:00,86.1,61.7,30.09,SE,135,4.0,4.0,44,0.00,,,0.00,VWS V14.01,2013-06-21 00:33:00,
2013-06-20 19:34:00,86.1,61.7,30.09,SE,135,4.0,4.0,44,0.00,,,0.00,VWS V14.01,2013-06-21 00:34:00,
2013-06-20 19:35:00,86.0,62.2,30.09,SE,135,6.9,6.9,45,0.00,,,0.00,VWS V14.01,2013-06-21 00:35:00,
2013-06-20 19:36:00,85.6,62.5,30.09,SE,135,1.5,6.9,46,0.00,,,0.00,VWS V14.01,2013-06-21 00:36:00,
2013-06-20 19:37:00,85.6,62.5,30.10,SE,135,1.5,1.5,46,0.00,,,0.00,VWS V14.01,2013-06-21 00:37:00,
2013-06-20 19:38:00,85.2,62.1,30.09,SE,135,0.0,1.5,46,0.00,,,0.00,VWS V14.01,2013-06-21 00:38:00,
2013-06-20 19:39:00,85.2,62.1,30.09,SE,135,0.0,0.0,46,0.00,,,0.00,VWS V14.01,2013-06-21 00:39:00,
2013-06-20 19:40:00,85.2,62.1,30.10,SE,135,0.6,0.6,46,0.00,,,0.00,VWS V14.01,2013-06-21 00:40:00,
2013-06-20 19:41:00,85.2,62.1,30.10,SE,135,0.6,0.6,46,0.00,,,0.00,VWS V14.01,2013-06-21 00:41:00,
2013-06-20 19:42:00,85.2,62.1,30.10,SE,135,0.6,0.6,46,0.00,,,0.00,VWS V14.01,2013-06-21 00:42:00,
2013-06-20 19:43:00,84.9,61.8,30.10,SSE,158,0.0,0.6,46,0.00,,,0.00,VWS V14.01,2013-06-21 00:43:00,
2013-06-20 19:44:00,84.9,61.8,30.10,SSE,158,0.0,0.0,46,0.00,,,0.00,VWS V14.01,2013-06-21 00:44:00,
2013-06-20 19:45:00,84.7,61.7,30.10,SE,135,0.0,0.0,46,0.00,,,0.00,VWS V14.01,2013-06-21 00:45:00,
2013-06-20 19:46:00,84.7,61.7,30.09,SE,135,0.0,0.0,46,0.00,,,0.00,VWS V14.01,2013-06-21 00:46:00,
2013-06-20 19:47:00,84.5,62.1,30.10,South,180,0.0,0.0,47,0.00,,,0.00,VWS V14.01,2013-06-21 00:47:00,
2013-06-20 19:48:00,84.5,62.1,30.09,South,180,0.0,0.0,47,0.00,,,0.00,VWS V14.01,2013-06-21 00:48:00,
2013-06-20 19:49:00,84.5,62.1,30.09,South,180,0.0,0.0,47,0.00,,,0.00,VWS V14.01,2013-06-21 00:49:00,
2013-06-20 19:50:00,84.3,61.9,30.10,SSE,158,5.3,5.3,47,0.00,,,0.00,VWS V14.01,2013-06-21 00:50:00,
2013-06-20 19:51:00,84.0,61.6,30.10,SE,135,3.5,5.3,47,0.00,,,0.00,VWS V14.01,2013-06-21 00:51:00,
2013-06-20 19:52:00,84.0,61.6,30.10,SE,135,3.5,3.5,47,0.00,,,0.00,VWS V14.01,2013-06-21 00:52:00,
2013-06-20 19:53:00,84.0,62.2,30.10,SE,135,3.5,3.5,48,0.00,,,0.00,VWS V14.01,2013-06-21 00:53:00,
2013-06-20 19:54:00,84.0,62.2,30.10,SE,135,3.5,3.5,48,0.00,,,0.00,VWS V14.01,2013-06-21 00:54:00,
2013-06-20 19:55:00,84.0,62.2,30.10,SE,135,0.0,3.5,48,0.00,,,0.00,VWS V14.01,2013-06-21 00:55:00,
2013-06-20 19:56:00,83.6,61.8,30.10,SE,135,0.0,0.0,48,0.00,,,0.00,VWS V14.01,2013-06-21 00:56:00,
2013-06-20 19:57:00,83.6,61.8,30.10,SE,135,0.0,0.0,48,0.00,,,0.00,VWS V14.01,2013-06-21 00:57:00,
2013-06-20 19:58:00,83.4,61.7,30.10,ESE,112,0.0,0.0,48,0.00,,,0.00,VWS V14.01,2013-06-21 00:58:00,
2013-06-20 19:59:00,83.4,61.7,30.10,ESE,112,0.0,0.0,48,0.00,,,0.00,VWS V14.01,2013-06-21 00:59:00,
2013-06-20 20:00:00,83.4,61.7,30.09,SSE,158,3.8,3.8,48,0.00,,,0.00,VWS V14.01,2013-06-21 01:00:00,
2013-06-20 20:01:00,83.4,61.7,30.09,SSE,158,3.8,3.8,48,0.00,,,0.00,VWS V14.01,2013-06-21 01:01:00,
2013-06-20 20:02:00,83.4,62.3,30.10,SE,135,1.5,3.8,49,0.00,,,0.00,VWS V14.01,2013-06-21 01:02:00,
2013-06-20 20:03:00,83.4,62.3,30.09,SE,135,1.5,1.5,49,0.00,,,0.00,VWS V14.01,2013-06-21 01:03:00,
2013-06-20 20:04:00,83.4,62.3,30.09,SE,135,1.5,1.5,49,0.00,,,0.00,VWS V14.01,2013-06-21 01:04:00,
2013-06-20 20:05:00,83.3,62.2,30.09,SE,135,3.5,3.5,49,0.00,,,0.00,VWS V14.01,2013-06-21 01:05:00,
2013-06-20 20:06:00,83.1,62.0,30.09,SE,135,0.0,3.5,49,0.00,,,0.00,VWS V14.01,2013-06-21 01:06:00,
2013-06-20 20:07:00,83.1,62.0,30.09,SE,135,0.0,0.0,49,0.00,,,0.00,VWS V14.01,2013-06-21 01:07:00,
2013-06-20 20:08:00,82.9,61.8,30.09,SE,135,2.2,2.2,49,0.00,,,0.00,VWS V14.01,2013-06-21 01:08:00,
2013-06-20 20:09:00,82.9,61.8,30.09,SE,135,2.2,2.2,49,0.00,,,0.00,VWS V14.01,2013-06-21 01:09:00,
2013-06-20 20:10:00,82.9,61.8,30.09,SE,135,6.7,6.7,49,0.00,,,0.00,VWS V14.01,2013-06-21 01:10:00,
2013-06-20 20:11:00,82.9,61.8,30.09,SE,135,6.7,6.7,49,0.00,,,0.00,VWS V14.01,2013-06-21 01:11:00,
2013-06-20 20:12:00,82.9,61.8,30.10,SE,135,6.7,6.7,49,0.00,,,0.00,VWS V14.01,2013-06-21 01:12:00,
2013-06-20 20:13:00,82.9,62.4,30.10,South,180,0.4,6.7,50,0.00,,,0.00,VWS V14.01,2013-06-21 01:13:00,
2013-06-20 20:14:00,82.9,62.4,30.10,South,180,0.4,0.4,50,0.00,,,0.00,VWS V14.01,2013-06-21 01:14:00,
2013-06-20 20:15:00,82.5,62.0,30.09,ESE,112,0.4,0.4,50,0.00,,,0.00,VWS V14.01,2013-06-21 01:15:00,
2013-06-20 20:16:00,82.5,62.0,30.09,ESE,112,0.4,0.4,50,0.00,,,0.00,VWS V14.01,2013-06-21 01:16:00,
2013-06-20 20:17:00,82.5,62.0,30.09,ESE,112,0.0,0.4,50,0.00,,,0.00,VWS V14.01,2013-06-21 01:17:00,
2013-06-20 20:18:00,82.5,62.0,30.09,ESE,112,0.0,0.0,50,0.00,,,0.00,VWS V14.01,2013-06-21 01:18:00,
2013-06-20 20:19:00,82.5,62.0,30.09,ESE,112,0.0,0.0,50,0.00,,,0.00,VWS V14.01,2013-06-21 01:19:00,
2013-06-20 20:20:00,82.2,61.7,30.09,SE,135,0.0,0.0,50,0.00,,,0.00,VWS V14.01,2013-06-21 01:20:00,
2013-06-20 20:21:00,82.2,62.3,30.09,SSE,158,1.1,1.1,51,0.00,,,0.00,VWS V14.01,2013-06-21 01:21:00,
2013-06-20 20:22:00,82.2,62.3,30.09,SSE,158,1.1,1.1,51,0.00,,,0.00,VWS V14.01,2013-06-21 01:22:00,
2013-06-20 20:23:00,82.2,62.3,30.10,SSE,158,0.0,1.1,51,0.00,,,0.00,VWS V14.01,2013-06-21 01:23:00,
2013-06-20 20:24:00,82.2,62.3,30.10,SSE,158,0.0,0.0,51,0.00,,,0.00,VWS V14.01,2013-06-21 01:24:00,
2013-06-20 20:25:00,82.0,62.1,30.10,SSE,158,4.0,4.0,51,0.00,,,0.00,VWS V14.01,2013-06-21 01:25:00,
2013-06-20 20:26:00,82.0,62.1,30.10,SSE,158,4.0,4.0,51,0.00,,,0.00,VWS V14.01,2013-06-21 01:26:00,
2013-06-20 20:27:00,82.0,62.1,30.10,SSE,158,4.0,4.0,51,0.00,,,0.00,VWS V14.01,2013-06-21 01:27:00,
2013-06-20 20:28:00,82.0,62.1,30.10,SSE,158,0.0,4.0,51,0.00,,,0.00,VWS V14.01,2013-06-21 01:28:00,
2013-06-20 20:29:00,82.0,62.1,30.10,SSE,158,0.0,0.0,51,0.00,,,0.00,VWS V14.01,2013-06-21 01:29:00,
2013-06-20 20:30:00,81.6,62.3,30.10,SE,135,1.3,1.3,52,0.00,,,0.00,VWS V14.01,2013-06-21 01:30:00,
2013-06-20 20:31:00,81.6,62.3,30.10,SE,135,1.3,1.3,52,0.00,,,0.00,VWS V14.01,2013-06-21 01:31:00,
2013-06-20 20:32:00,81.6,62.3,30.10,SE,135,3.3,3.3,52,0.00,,,0.00,VWS V14.01,2013-06-21 01:32:00,
2013-06-20 20:33:00,81.6,62.3,30.10,SE,135,3.3,3.3,52,0.00,,,0.00,VWS V14.01,2013-06-21 01:33:00,
2013-06-20 20:34:00,81.6,62.3,30.10,SE,135,3.3,3.3,52,0.00,,,0.00,VWS V14.01,2013-06-21 01:34:00,
2013-06-20 20:35:00,81.5,62.2,30.10,SE,135,4.6,4.6,52,0.00,,,0.00,VWS V14.01,2013-06-21 01:35:00,
2013-06-20 20:36:00,81.3,62.0,30.10,SE,135,3.8,4.6,52,0.00,,,0.00,VWS V14.01,2013-06-21 01:36:00,
2013-06-20 20:37:00,81.3,62.0,30.10,SE,135,3.8,3.8,52,0.00,,,0.00,VWS V14.01,2013-06-21 01:37:00,
2013-06-20 20:38:00,81.3,62.0,30.10,SSE,158,1.7,3.8,52,0.00,,,0.00,VWS V14.01,2013-06-21 01:38:00,
2013-06-20 20:39:00,81.3,62.0,30.10,SSE,158,1.7,1.7,52,0.00,,,0.00,VWS V14.01,2013-06-21 01:39:00,
2013-06-20 20:40:00,81.1,61.8,30.10,SE,135,2.9,2.9,52,0.00,,,0.00,VWS V14.01,2013-06-21 01:40:00,
2013-06-20 20:41:00,81.1,61.8,30.10,SE,135,2.9,2.9,52,0.00,,,0.00,VWS V14.01,2013-06-21 01:41:00,
2013-06-20 20:42:00,81.1,61.8,30.10,SE,135,2.9,2.9,52,0.00,,,0.00,VWS V14.01,2013-06-21 01:42:00,
2013-06-20 20:43:00,81.1,61.8,30.10,SE,135,0.2,2.9,52,0.00,,,0.00,VWS V14.01,2013-06-21 01:43:00,
2013-06-20 20:44:00,81.1,61.8,30.10,SE,135,0.2,0.2,52,0.00,,,0.00,VWS V14.01,2013-06-21 01:44:00,
2013-06-20 20:45:00,80.9,62.2,30.10,SE,135,1.3,1.3,53,0.00,,,0.00,VWS V14.01,2013-06-21 01:45:00,
2013-06-20 20:46:00,80.9,62.2,30.10,SE,135,1.3,1.3,53,0.00,,,0.00,VWS V14.01,2013-06-21 01:46:00,
2013-06-20 20:47:00,80.7,62.0,30.10,SSE,158,6.7,6.7,53,0.00,,,0.00,VWS V14.01,2013-06-21 01:47:00,
2013-06-20 20:48:00,80.7,62.0,30.10,SSE,158,6.7,6.7,53,0.00,,,0.00,VWS V14.01,2013-06-21 01:48:00,
2013-06-20 20:49:00,80.7,62.0,30.10,SSE,158,6.7,6.7,53,0.00,,,0.00,VWS V14.01,2013-06-21 01:49:00,
2013-06-20 20:50:00,80.7,62.0,30.10,SSE,158,2.2,2.2,53,0.00,,,0.00,VWS V14.01,2013-06-21 01:50:00,
2013-06-20 20:51:00,80.6,61.9,30.10,SE,135,1.3,2.2,53,0.00,,,0.00,VWS V14.01,2013-06-21 01:51:00,
2013-06-20 20:52:00,80.6,61.9,30.10,SE,135,1.3,1.3,53,0.00,,,0.00,VWS V14.01,2013-06-21 01:52:00,
2013-06-20 20:53:00,80.6,62.4,30.10,SE,135,0.0,1.3,54,0.00,,,0.00,VWS V14.01,2013-06-21 01:53:00,
2013-06-20 20:54:00,80.6,62.4,30.10,SE,135,0.0,0.0,54,0.00,,,0.00,VWS V14.01,2013-06-21 01:54:00,
2013-06-20 20:55:00,80.6,62.4,30.10,SE,135,2.4,2.4,54,0.00,,,0.00,VWS V14.01,2013-06-21 01:55:00,
2013-06-20 20:56:00,80.6,62.4,30.10,SE,135,2.4,2.4,54,0.00,,,0.00,VWS V14.01,2013-06-21 01:56:00,
2013-06-20 20:57:00,80.4,62.2,30.10,SE,135,5.1,5.1,54,0.00,,,0.00,VWS V14.01,2013-06-21 01:57:00,
2013-06-20 20:58:00,80.4,62.2,30.10,SE,135,5.1,5.1,54,0.00,,,0.00,VWS V14.01,2013-06-21 01:58:00,
2013-06-20 20:59:00,80.4,62.2,30.10,SE,135,5.1,5.1,54,0.00,,,0.00,VWS V14.01,2013-06-21 01:59:00,
2013-06-20 21:00:00,80.6,62.4,30.10,SE,135,4.0,5.1,54,0.00,,,0.00,VWS V14.01,2013-06-21 02:00:00,
2013-06-20 21:01:00,80.6,62.4,30.10,SE,135,4.0,4.0,54,0.00,,,0.00,VWS V14.01,2013-06-21 02:01:00,
2013-06-20 21:02:00,80.4,62.2,30.10,SE,135,0.0,4.0,54,0.00,,,0.00,VWS V14.01,2013-06-21 02:02:00,
2013-06-20 21:03:00,80.4,62.2,30.10,SE,135,0.0,0.0,54,0.00,,,0.00,VWS V14.01,2013-06-21 02:03:00,
2013-06-20 21:04:00,80.4,62.2,30.10,SE,135,0.0,0.0,54,0.00,,,0.00,VWS V14.01,2013-06-21 02:04:00,
2013-06-20 21:05:00,80.4,62.2,30.10,SE,135,3.1,3.1,54,0.00,,,0.00,VWS V14.01,2013-06-21 02:05:00,
2013-06-20 21:06:00,80.4,62.8,30.11,SE,135,4.2,4.2,55,0.00,,,0.00,VWS V14.01,2013-06-21 02:06:00,
2013-06-20 21:07:00,80.4,62.8,30.10,SE,135,4.2,4.2,55,0.00,,,0.00,VWS V14.01,2013-06-21 02:07:00,
2013-06-20 21:08:00,80.2,62.6,30.11,SE,135,1.1,4.2,55,0.00,,,0.00,VWS V14.01,2013-06-21 02:08:00,
2013-06-20 21:09:00,80.2,62.6,30.11,SE,135,1.1,1.1,55,0.00,,,0.00,VWS V14.01,2013-06-21 02:09:00,
2013-06-20 21:10:00,80.2,62.6,30.11,SSE,158,4.4,4.4,55,0.00,,,0.00,VWS V14.01,2013-06-21 02:10:00,
2013-06-20 21:11:00,80.2,62.6,30.10,SSE,158,4.4,4.4,55,0.00,,,0.00,VWS V14.01,2013-06-21 02:11:00,
2013-06-20 21:12:00,80.2,62.6,30.11,SSE,158,4.4,4.4,55,0.00,,,0.00,VWS V14.01,2013-06-21 02:12:00,
2013-06-20 21:13:00,80.2,62.6,30.10,SE,135,2.2,4.4,55,0.00,,,0.00,VWS V14.01,2013-06-21 02:13:00,
2013-06-20 21:14:00,80.2,62.6,30.10,SE,135,2.2,2.2,55,0.00,,,0.00,VWS V14.01,2013-06-21 02:14:00,
2013-06-20 21:15:00,80.2,62.6,30.10,SE,135,2.0,2.2,55,0.00,,,0.00,VWS V14.01,2013-06-21 02:15:00,
2013-06-20 21:16:00,80.2,62.6,30.11,SE,135,2.0,2.0,55,0.00,,,0.00,VWS V14.01,2013-06-21 02:16:00,
2013-06-20 21:17:00,79.8,62.2,30.11,SSE,158,0.0,2.0,55,0.00,,,0.00,VWS V14.01,2013-06-21 02:17:00,
2013-06-20 21:18:00,79.8,62.2,30.11,SSE,158,0.0,0.0,55,0.00,,,0.00,VWS V14.01,2013-06-21 02:18:00,
2013-06-20 21:19:00,79.8,62.2,30.11,SSE,158,0.0,0.0,55,0.00,,,0.00,VWS V14.01,2013-06-21 02:19:00,
2013-06-20 21:20:00,79.8,62.7,30.11,SE,135,0.2,0.2,56,0.00,,,0.00,VWS V14.01,2013-06-21 02:20:00,
2013-06-20 21:21:00,79.7,62.6,30.11,SE,135,2.2,2.2,56,0.00,,,0.00,VWS V14.01,2013-06-21 02:21:00,
2013-06-20 21:22:00,79.7,62.6,30.11,SE,135,2.2,2.2,56,0.00,,,0.00,VWS V14.01,2013-06-21 02:22:00,
2013-06-20 21:23:00,79.5,62.5,30.11,ESE,112,1.1,2.2,56,0.00,,,0.00,VWS V14.01,2013-06-21 02:23:00,
2013-06-20 21:24:00,79.5,62.5,30.11,ESE,112,1.1,1.1,56,0.00,,,0.00,VWS V14.01,2013-06-21 02:24:00,
2013-06-20 21:25:00,79.5,62.5,30.11,SE,135,3.3,3.3,56,0.00,,,0.00,VWS V14.01,2013-06-21 02:25:00,
2013-06-20 21:26:00,79.5,62.5,30.11,SE,135,3.3,3.3,56,0.00,,,0.00,VWS V14.01,2013-06-21 02:26:00,
2013-06-20 21:27:00,79.5,62.5,30.11,SE,135,1.1,3.3,56,0.00,,,0.00,VWS V14.01,2013-06-21 02:27:00,
2013-06-20 21:28:00,79.5,62.5,30.11,SE,135,1.1,1.1,56,0.00,,,0.00,VWS V14.01,2013-06-21 02:28:00,
2013-06-20 21:29:00,79.5,62.5,30.11,SE,135,1.1,1.1,56,0.00,,,0.00,VWS V14.01,2013-06-21 02:29:00,
2013-06-20 21:30:00,79.3,62.8,30.11,SE,135,3.5,3.5,57,0.00,,,0.00,VWS V14.01,2013-06-21 02:30:00,
2013-06-20 21:31:00,79.3,62.8,30.12,SE,135,3.5,3.5,57,0.00,,,0.00,VWS V14.01,2013-06-21 02:31:00,
2013-06-20 21:32:00,79.1,62.6,30.11,SE,135,4.2,4.2,57,0.00,,,0.00,VWS V14.01,2013-06-21 02:32:00,
2013-06-20 21:33:00,79.1,62.6,30.12,SE,135,4.2,4.2,57,0.00,,,0.00,VWS V14.01,2013-06-21 02:33:00,
2013-06-20 21:34:00,79.1,62.6,30.12,SE,135,4.2,4.2,57,0.00,,,0.00,VWS V14.01,2013-06-21 02:34:00,
2013-06-20 21:35:00,78.9,62.4,30.12,SSE,158,3.3,3.3,57,0.00,,,0.00,VWS V14.01,2013-06-21 02:35:00,
2013-06-20 21:36:00,78.6,62.6,30.12,SE,135,0.6,3.3,58,0.00,,,0.00,VWS V14.01,2013-06-21 02:36:00,
2013-06-20 21:37:00,78.6,62.6,30.12,SE,135,0.6,0.6,58,0.00,,,0.00,VWS V14.01,2013-06-21 02:37:00,
2013-06-20 21:38:00,78.6,62.6,30.12,ESE,112,0.2,0.6,58,0.00,,,0.00,VWS V14.01,2013-06-21 02:38:00,
2013-06-20 21:39:00,78.6,62.6,30.12,ESE,112,0.2,0.2,58,0.00,,,0.00,VWS V14.01,2013-06-21 02:39:00,
2013-06-20 21:40:00,78.2,62.2,30.12,SE,135,0.4,0.4,58,0.00,,,0.00,VWS V14.01,2013-06-21 02:40:00,
2013-06-20 21:41:00,78.2,62.2,30.12,SE,135,0.4,0.4,58,0.00,,,0.00,VWS V14.01,2013-06-21 02:41:00,
2013-06-20 21:42:00,77.9,62.4,30.12,SE,135,1.1,1.1,59,0.00,,,0.00,VWS V14.01,2013-06-21 02:42:00,
2013-06-20 21:43:00,77.9,62.4,30.11,SE,135,1.1,1.1,59,0.00,,,0.00,VWS V14.01,2013-06-21 02:43:00,
2013-06-20 21:44:00,77.9,62.4,30.11,SE,135,1.1,1.1,59,0.00,,,0.00,VWS V14.01,2013-06-21 02:44:00,
2013-06-20 21:45:00,77.7,62.7,30.11,SE,135,3.1,3.1,60,0.00,,,0.00,VWS V14.01,2013-06-21 02:45:00,
2013-06-20 21:46:00,77.7,62.7,30.12,SE,135,3.1,3.1,60,0.00,,,0.00,VWS V14.01,2013-06-21 02:46:00,
2013-06-20 21:47:00,77.5,62.5,30.12,SE,135,0.0,3.1,60,0.00,,,0.00,VWS V14.01,2013-06-21 02:47:00,
2013-06-20 21:48:00,77.5,62.5,30.12,SE,135,0.0,0.0,60,0.00,,,0.00,VWS V14.01,2013-06-21 02:48:00,
2013-06-20 21:49:00,77.5,62.5,30.12,SE,135,0.0,0.0,60,0.00,,,0.00,VWS V14.01,2013-06-21 02:49:00,
2013-06-20 21:50:00,77.3,62.3,30.12,SE,135,1.3,1.3,60,0.00,,,0.00,VWS V14.01,2013-06-21 02:50:00,
2013-06-20 21:51:00,77.1,62.2,30.12,SE,135,0.0,1.3,60,0.00,,,0.00,VWS V14.01,2013-06-21 02:51:00,
2013-06-20 21:52:00,77.1,62.2,30.12,SE,135,0.0,0.0,60,0.00,,,0.00,VWS V14.01,2013-06-21 02:52:00,
2013-06-20 21:53:00,77.1,62.6,30.12,SE,135,2.9,2.9,61,0.00,,,0.00,VWS V14.01,2013-06-21 02:53:00,
2013-06-20 21:54:00,77.1,62.6,30.12,SE,135,2.9,2.9,61,0.00,,,0.00,VWS V14.01,2013-06-21 02:54:00,
2013-06-20 21:55:00,77.1,62.6,30.11,SE,135,0.2,2.9,61,0.00,,,0.00,VWS V14.01,2013-06-21 02:55:00,
2013-06-20 21:56:00,77.0,62.5,30.11,SE,135,0.2,0.2,61,0.00,,,0.00,VWS V14.01,2013-06-21 02:56:00,
2013-06-20 21:57:00,77.0,62.5,30.12,SE,135,2.4,2.4,61,0.00,,,0.00,VWS V14.01,2013-06-21 02:57:00,
2013-06-20 21:58:00,77.0,62.5,30.12,SE,135,2.4,2.4,61,0.00,,,0.00,VWS V14.01,2013-06-21 02:58:00,
2013-06-20 21:59:00,77.0,62.5,30.12,SE,135,2.4,2.4,61,0.00,,,0.00,VWS V14.01,2013-06-21 02:59:00,
2013-06-20 22:00:00,77.0,62.5,30.11,SE,135,6.4,6.4,61,0.00,,,0.00,VWS V14.01,2013-06-21 03:00:00,
2013-06-20 22:01:00,77.0,62.5,30.11,SE,135,6.4,6.4,61,0.00,,,0.00,VWS V14.01,2013-06-21 03:01:00,
2013-06-20 22:02:00,77.0,62.5,30.11,SE,135,2.4,6.4,61,0.00,,,0.00,VWS V14.01,2013-06-21 03:02:00,
2013-06-20 22:03:00,77.0,62.5,30.11,SE,135,2.4,2.4,61,0.00,,,0.00,VWS V14.01,2013-06-21 03:03:00,
2013-06-20 22:04:00,77.0,62.5,30.11,SE,135,2.4,2.4,61,0.00,,,0.00,VWS V14.01,2013-06-21 03:04:00,
2013-06-20 22:05:00,77.0,62.5,30.11,SE,135,4.9,4.9,61,0.00,,,0.00,VWS V14.01,2013-06-21 03:05:00,
2013-06-20 22:06:00,77.0,62.5,30.11,SE,135,4.6,4.9,61,0.00,,,0.00,VWS V14.01,2013-06-21 03:06:00,
2013-06-20 22:07:00,77.0,62.5,30.11,SE,135,4.6,4.6,61,0.00,,,0.00,VWS V14.01,2013-06-21 03:07:00,
2013-06-20 22:08:00,76.8,62.3,30.12,SE,135,4.0,4.6,61,0.00,,,0.00,VWS V14.01,2013-06-21 03:08:00,
2013-06-20 22:09:00,76.8,62.3,30.12,SE,135,4.0,4.0,61,0.00,,,0.00,VWS V14.01,2013-06-21 03:09:00,
2013-06-20 22:10:00,76.8,62.8,30.12,SE,135,4.2,4.2,62,0.00,,,0.00,VWS V14.01,2013-06-21 03:10:00,
2013-06-20 22:11:00,76.8,62.8,30.12,SE,135,4.2,4.2,62,0.00,,,0.00,VWS V14.01,2013-06-21 03:11:00,
2013-06-20 22:12:00,76.8,62.8,30.12,SE,135,3.3,4.2,62,0.00,,,0.00,VWS V14.01,2013-06-21 03:12:00,
2013-06-20 22:13:00,76.8,62.8,30.12,SE,135,3.3,3.3,62,0.00,,,0.00,VWS V14.01,2013-06-21 03:13:00,
2013-06-20 22:14:00,76.8,62.8,30.12,SE,135,3.3,3.3,62,0.00,,,0.00,VWS V14.01,2013-06-21 03:14:00,
2013-06-20 22:15:00,76.8,62.8,30.12,SE,135,3.1,3.3,62,0.00,,,0.00,VWS V14.01,2013-06-21 03:15:00,
2013-06-20 22:16:00,76.8,62.8,30.11,SE,135,3.1,3.1,62,0.00,,,0.00,VWS V14.01,2013-06-21 03:16:00,
2013-06-20 22:17:00,76.8,62.8,30.12,SE,135,0.0,3.1,62,0.00,,,0.00,VWS V14.01,2013-06-21 03:17:00,
2013-06-20 22:18:00,76.8,62.8,30.11,SE,135,0.0,0.0,62,0.00,,,0.00,VWS V14.01,2013-06-21 03:18:00,
2013-06-20 22:19:00,76.8,62.8,30.11,SE,135,0.0,0.0,62,0.00,,,0.00,VWS V14.01,2013-06-21 03:19:00,
2013-06-20 22:20:00,76.8,62.8,30.12,SE,135,0.0,0.0,62,0.00,,,0.00,VWS V14.01,2013-06-21 03:20:00,
2013-06-20 22:21:00,76.8,62.8,30.11,SE,135,3.5,3.5,62,0.00,,,0.00,VWS V14.01,2013-06-21 03:21:00,
2013-06-20 22:22:00,76.8,62.8,30.11,SE,135,3.5,3.5,62,0.00,,,0.00,VWS V14.01,2013-06-21 03:22:00,
2013-06-20 22:23:00,76.8,62.8,30.11,SSE,158,6.4,6.4,62,0.00,,,0.00,VWS V14.01,2013-06-21 03:23:00,
2013-06-20 22:24:00,76.8,62.8,30.11,SSE,158,6.4,6.4,62,0.00,,,0.00,VWS V14.01,2013-06-21 03:24:00,
2013-06-20 22:25:00,76.8,62.8,30.11,SSE,158,0.4,6.4,62,0.00,,,0.00,VWS V14.01,2013-06-21 03:25:00,
2013-06-20 22:26:00,76.8,62.8,30.11,SSE,158,0.4,0.4,62,0.00,,,0.00,VWS V14.01,2013-06-21 03:26:00,
2013-06-20 22:27:00,77.0,63.0,30.11,SE,135,3.1,3.1,62,0.00,,,0.00,VWS V14.01,2013-06-21 03:27:00,
2013-06-20 22:28:00,77.0,63.0,30.11,SE,135,3.1,3.1,62,0.00,,,0.00,VWS V14.01,2013-06-21 03:28:00,
2013-06-20 22:29:00,77.0,63.0,30.11,SE,135,3.1,3.1,62,0.00,,,0.00,VWS V14.01,2013-06-21 03:29:00,
2013-06-20 22:30:00,77.0,63.0,30.11,SE,135,3.8,3.8,62,0.00,,,0.00,VWS V14.01,2013-06-21 03:30:00,
2013-06-20 22:31:00,77.0,63.0,30.11,SE,135,3.8,3.8,62,0.00,,,0.00,VWS V14.01,2013-06-21 03:31:00,
2013-06-20 22:32:00,77.3,63.3,30.11,SE,135,4.2,4.2,62,0.00,,,0.00,VWS V14.01,2013-06-21 03:32:00,
2013-06-20 22:33:00,77.3,63.3,30.11,SE,135,4.2,4.2,62,0.00,,,0.00,VWS V14.01,2013-06-21 03:33:00,
2013-06-20 22:34:00,77.3,63.3,30.11,SE,135,4.2,4.2,62,0.00,,,0.00,VWS V14.01,2013-06-21 03:34:00,
2013-06-20 22:35:00,77.5,63.5,30.11,SE,135,3.8,3.8,62,0.00,,,0.00,VWS V14.01,2013-06-21 03:35:00,
2013-06-20 22:36:00,77.5,63.5,30.11,ESE,112,1.1,3.8,62,0.00,,,0.00,VWS V14.01,2013-06-21 03:36:00,
2013-06-20 22:37:00,77.5,63.5,30.11,ESE,112,1.1,1.1,62,0.00,,,0.00,VWS V14.01,2013-06-21 03:37:00,
2013-06-20 22:38:00,77.5,63.5,30.11,SE,135,5.5,5.5,62,0.00,,,0.00,VWS V14.01,2013-06-21 03:38:00,
2013-06-20 22:39:00,77.5,63.5,30.11,SE,135,5.5,5.5,62,0.00,,,0.00,VWS V14.01,2013-06-21 03:39:00,
2013-06-20 22:40:00,77.5,63.5,30.11,SE,135,12.3,12.3,62,0.00,,,0.00,VWS V14.01,2013-06-21 03:40:00,
2013-06-20 22:41:00,77.5,63.5,30.11,SE,135,12.3,12.3,62,0.00,,,0.00,VWS V14.01,2013-06-21 03:41:00,
2013-06-20 22:42:00,77.5,63.5,30.11,SE,135,2.4,12.3,62,0.00,,,0.00,VWS V14.01,2013-06-21 03:42:00,
2013-06-20 22:43:00,77.5,63.5,30.11,SE,135,2.4,2.4,62,0.00,,,0.00,VWS V14.01,2013-06-21 03:43:00,
2013-06-20 22:44:00,77.5,63.5,30.11,SE,135,2.4,2.4,62,0.00,,,0.00,VWS V14.01,2013-06-21 03:44:00,
2013-06-20 22:45:00,77.5,63.5,30.12,SSE,158,4.2,4.2,62,0.00,,,0.00,VWS V14.01,2013-06-21 03:45:00,
2013-06-20 22:46:00,77.5,63.5,30.12,SSE,158,4.2,4.2,62,0.00,,,0.00,VWS V14.01,2013-06-21 03:46:00,
2013-06-20 22:47:00,77.5,63.5,30.12,SE,135,5.1,5.1,62,0.00,,,0.00,VWS V14.01,2013-06-21 03:47:00,
2013-06-20 22:48:00,77.5,63.5,30.12,SE,135,5.1,5.1,62,0.00,,,0.00,VWS V14.01,2013-06-21 03:48:00,
2013-06-20 22:49:00,77.5,63.5,30.12,SE,135,5.1,5.1,62,0.00,,,0.00,VWS V14.01,2013-06-21 03:49:00,
2013-06-20 22:50:00,77.5,63.5,30.11,SE,135,7.8,7.8,62,0.00,,,0.00,VWS V14.01,2013-06-21 03:50:00,
2013-06-20 22:51:00,77.5,63.5,30.11,SE,135,6.2,7.8,62,0.00,,,0.00,VWS V14.01,2013-06-21 03:51:00,
2013-06-20 22:52:00,77.5,63.5,30.11,SE,135,6.2,6.2,62,0.00,,,0.00,VWS V14.01,2013-06-21 03:52:00,
2013-06-20 22:53:00,77.3,63.3,30.12,SE,135,6.4,6.4,62,0.00,,,0.00,VWS V14.01,2013-06-21 03:53:00,
2013-06-20 22:54:00,77.3,63.3,30.12,SE,135,6.4,6.4,62,0.00,,,0.00,VWS V14.01,2013-06-21 03:54:00,
2013-06-20 22:55:00,77.3,63.3,30.12,SE,135,4.4,6.4,62,0.00,,,0.00,VWS V14.01,2013-06-21 03:55:00,
2013-06-20 22:56:00,77.3,63.3,30.12,SE,135,4.4,4.4,62,0.00,,,0.00,VWS V14.01,2013-06-21 03:56:00,
2013-06-20 22:57:00,77.3,63.3,30.12,SE,135,4.4,4.4,62,0.00,,,0.00,VWS V14.01,2013-06-21 03:57:00,
2013-06-20 22:58:00,77.1,63.1,30.12,East,90,3.8,4.4,62,0.00,,,0.00,VWS V14.01,2013-06-21 03:58:00,
2013-06-20 22:59:00,77.1,63.1,30.12,East,90,3.8,3.8,62,0.00,,,0.00,VWS V14.01,2013-06-21 03:59:00,
2013-06-20 23:00:00,77.1,63.1,30.12,SE,135,3.1,3.1,62,0.00,,,0.00,VWS V14.01,2013-06-21 04:00:00,
2013-06-20 23:01:00,77.1,63.1,30.12,SE,135,3.1,3.1,62,0.00,,,0.00,VWS V14.01,2013-06-21 04:01:00,
2013-06-20 23:02:00,77.1,63.1,30.12,SE,135,3.1,3.1,62,0.00,,,0.00,VWS V14.01,2013-06-21 04:02:00,
2013-06-20 23:03:00,77.1,63.1,30.12,SE,135,3.1,3.1,62,0.00,,,0.00,VWS V14.01,2013-06-21 04:03:00,
2013-06-20 23:04:00,77.0,63.5,30.12,SE,135,2.9,3.1,63,0.00,,,0.00,VWS V14.01,2013-06-21 04:04:00,
2013-06-20 23:05:00,77.0,63.5,30.12,SE,135,2.9,2.9,63,0.00,,,0.00,VWS V14.01,2013-06-21 04:05:00,
2013-06-20 23:06:00,77.0,63.5,30.12,SE,135,2.9,2.9,63,0.00,,,0.00,VWS V14.01,2013-06-21 04:06:00,
2013-06-20 23:08:00,76.8,63.3,30.11,SSE,158,0.6,2.0,63,0.00,,,0.00,VWS V14.01,2013-06-21 04:08:00,
2013-06-20 23:09:00,76.8,63.3,30.11,SSE,158,0.6,0.6,63,0.00,,,0.00,VWS V14.01,2013-06-21 04:09:00,
2013-06-20 23:10:00,76.8,63.3,30.12,SE,135,3.8,3.8,63,0.00,,,0.00,VWS V14.01,2013-06-21 04:10:00,
2013-06-20 23:11:00,76.8,63.3,30.12,SE,135,3.8,3.8,63,0.00,,,0.00,VWS V14.01,2013-06-21 04:11:00,
2013-06-20 23:12:00,76.8,63.3,30.12,SE,135,1.5,3.8,63,0.00,,,0.00,VWS V14.01,2013-06-21 04:12:00,
2013-06-20 23:13:00,76.8,63.3,30.12,SE,135,1.5,1.5,63,0.00,,,0.00,VWS V14.01,2013-06-21 04:13:00,
2013-06-20 23:14:00,76.8,63.3,30.12,SSE,158,0.0,1.5,63,0.00,,,0.00,VWS V14.01,2013-06-21 04:14:00,
2013-06-20 23:15:00,76.8,63.3,30.12,SSE,158,0.0,0.0,63,0.00,,,0.00,VWS V14.01,2013-06-21 04:15:00,
2013-06-20 23:16:00,76.8,63.3,30.12,SSE,158,0.0,0.0,63,0.00,,,0.00,VWS V14.01,2013-06-21 04:16:00,
2013-06-20 23:17:00,76.8,63.7,30.12,SE,135,3.3,3.3,64,0.00,,,0.00,VWS V14.01,2013-06-21 04:17:00,
2013-06-20 23:18:00,76.8,63.7,30.13,SE,135,3.3,3.3,64,0.00,,,0.00,VWS V14.01,2013-06-21 04:18:00,
2013-06-20 23:19:00,76.8,63.7,30.12,ESE,112,0.0,3.3,64,0.00,,,0.00,VWS V14.01,2013-06-21 04:19:00,
2013-06-20 23:20:00,76.8,63.7,30.12,ESE,112,0.0,0.0,64,0.00,,,0.00,VWS V14.01,2013-06-21 04:20:00,
2013-06-20 23:21:00,76.8,63.7,30.12,ESE,112,0.0,0.0,64,0.00,,,0.00,VWS V14.01,2013-06-21 04:21:00,
2013-06-20 23:22:00,76.8,63.7,30.12,SE,135,0.2,0.2,64,0.00,,,0.00,VWS V14.01,2013-06-21 04:22:00,
2013-06-20 23:23:00,76.8,63.7,30.12,SE,135,1.7,1.7,64,0.00,,,0.00,VWS V14.01,2013-06-21 04:23:00,
2013-06-20 23:24:00,76.8,63.7,30.12,SE,135,1.7,1.7,64,0.00,,,0.00,VWS V14.01,2013-06-21 04:24:00,
2013-06-20 23:25:00,76.6,63.5,30.12,SE,135,0.0,1.7,64,0.00,,,0.00,VWS V14.01,2013-06-21 04:25:00,
2013-06-20 23:26:00,76.6,63.5,30.12,SE,135,0.0,0.0,64,0.00,,,0.00,VWS V14.01,2013-06-21 04:26:00,
2013-06-20 23:27:00,76.6,63.5,30.12,SE,135,2.4,2.4,64,0.00,,,0.00,VWS V14.01,2013-06-21 04:27:00,
2013-06-20 23:28:00,76.6,63.5,30.12,SE,135,2.4,2.4,64,0.00,,,0.00,VWS V14.01,2013-06-21 04:28:00,
2013-06-20 23:29:00,76.6,63.5,30.12,SE,135,0.0,2.4,64,0.00,,,0.00,VWS V14.01,2013-06-21 04:29:00,
2013-06-20 23:30:00,76.6,63.5,30.12,SE,135,0.0,0.0,64,0.00,,,0.00,VWS V14.01,2013-06-21 04:30:00,
2013-06-20 23:31:00,76.6,63.5,30.12,SE,135,0.0,0.0,64,0.00,,,0.00,VWS V14.01,2013-06-21 04:31:00,
2013-06-20 23:32:00,76.6,63.5,30.12,SSE,158,2.2,2.2,64,0.00,,,0.00,VWS V14.01,2013-06-21 04:32:00,
2013-06-20 23:33:00,76.6,63.5,30.12,SSE,158,2.2,2.2,64,0.00,,,0.00,VWS V14.01,2013-06-21 04:33:00,
2013-06-20 23:34:00,76.6,63.5,30.12,SE,135,5.3,5.3,64,0.00,,,0.00,VWS V14.01,2013-06-21 04:34:00,
2013-06-20 23:35:00,76.6,63.5,30.13,SE,135,5.3,5.3,64,0.00,,,0.00,VWS V14.01,2013-06-21 04:35:00,
2013-06-20 23:36:00,76.6,63.5,30.13,SE,135,5.3,5.3,64,0.00,,,0.00,VWS V14.01,2013-06-21 04:36:00,
2013-06-20 23:37:00,76.6,63.5,30.13,SE,135,6.4,6.4,64,0.00,,,0.00,VWS V14.01,2013-06-21 04:37:00,
2013-06-20 23:38:00,76.6,63.5,30.13,SE,135,2.6,6.4,64,0.00,,,0.00,VWS V14.01,2013-06-21 04:38:00,
2013-06-20 23:39:00,76.6,63.5,30.13,SE,135,2.6,2.6,64,0.00,,,0.00,VWS V14.01,2013-06-21 04:39:00,
2013-06-20 23:40:00,76.8,63.7,30.13,SE,135,1.5,2.6,64,0.00,,,0.00,VWS V14.01,2013-06-21 04:40:00,
2013-06-20 23:41:00,76.8,63.7,30.13,SE,135,1.5,1.5,64,0.00,,,0.00,VWS V14.01,2013-06-21 04:41:00,
2013-06-20 23:42:00,76.8,63.7,30.13,SSE,158,3.3,3.3,64,0.00,,,0.00,VWS V14.01,2013-06-21 04:42:00,
2013-06-20 23:43:00,76.8,63.7,30.13,SSE,158,3.3,3.3,64,0.00,,,0.00,VWS V14.01,2013-06-21 04:43:00,
2013-06-20 23:44:00,76.8,63.7,30.12,SSE,158,4.4,4.4,64,0.00,,,0.00,VWS V14.01,2013-06-21 04:44:00,
2013-06-20 23:45:00,76.8,63.7,30.12,SSE,158,4.4,4.4,64,0.00,,,0.00,VWS V14.01,2013-06-21 04:45:00,
2013-06-20 23:46:00,76.8,63.7,30.12,SSE,158,4.4,4.4,64,0.00,,,0.00,VWS V14.01,2013-06-21 04:46:00,
2013-06-20 23:47:00,76.8,63.7,30.13,SE,135,0.0,0.0,64,0.00,,,0.00,VWS V14.01,2013-06-21 04:47:00,
2013-06-20 23:48:00,76.8,63.7,30.13,SE,135,0.0,0.0,64,0.00,,,0.00,VWS V14.01,2013-06-21 04:48:00,
2013-06-20 23:49:00,76.8,63.7,30.13,SE,135,2.6,2.6,64,0.00,,,0.00,VWS V14.01,2013-06-21 04:49:00,
2013-06-20 23:50:00,76.8,63.7,30.13,SE,135,2.6,2.6,64,0.00,,,0.00,VWS V14.01,2013-06-21 04:50:00,
2013-06-20 23:51:00,76.8,63.7,30.13,SE,135,2.6,2.6,64,0.00,,,0.00,VWS V14.01,2013-06-21 04:51:00,
2013-06-20 23:52:00,76.6,63.5,30.13,SE,135,3.8,3.8,64,0.00,,,0.00,VWS V14.01,2013-06-21 04:52:00,
2013-06-20 23:53:00,76.6,64.0,30.13,SE,135,6.4,6.4,65,0.00,,,0.00,VWS V14.01,2013-06-21 04:53:00,
2013-06-20 23:54:00,76.6,64.0,30.13,SE,135,6.4,6.4,65,0.00,,,0.00,VWS V14.01,2013-06-21 04:54:00,
2013-06-20 23:55:00,76.4,63.8,30.13,SSE,158,5.3,6.4,65,0.00,,,0.00,VWS V14.01,2013-06-21 04:55:00,
2013-06-20 23:56:00,76.4,63.8,30.13,SSE,158,5.3,5.3,65,0.00,,,0.00,VWS V14.01,2013-06-21 04:56:00,
2013-06-20 23:57:00,76.4,63.8,30.13,SSE,158,4.2,5.3,65,0.00,,,0.00,VWS V14.01,2013-06-21 04:57:00,
2013-06-20 23:58:00,76.4,63.8,30.13,SSE,158,4.2,4.2,65,0.00,,,0.00,VWS V14.01,2013-06-21 04:58:00,